<?xml version="1.0" encoding="UTF-8" standalone="no" ?>
<gpx xmlns="http://www.topografix.com/GPX/1/1" xmlns:xsi="http://www.w3.org/2001/XMLSchema-instance" xsi:schemaLocation="http://www.topografix.com/GPX/1/1 http://www.topografix.com/GPX/1/1/gpx.xsd" version="1.1" creator="VisuGPX - https://www.visugpx.com">
  <metadata>
    <name>Le Chapeau de Gendarme par la face Ouest</name>
    <desc><![CDATA[Les copains randonneurs du 04
Au départ de Super Sauze, prendre la piste à droite du téléski Le Brec et poursuivre en direction du Col des Alaris puis prendre la direction du Chapeau de Gendarme
Randonnée aérienne, avec passages escarpés, passage câblé
 Vertigineux s'abstenir !! ]]></desc>
  </metadata>
  <trk>
    <name><![CDATA[Le Chapeau de Gendarme par la face Ouest_1]]></name>
    <trkseg>
      <trkpt lat="44.35788" lon="6.68541">
        <ele>1704</ele>
        <time>2020-09-16T07:50:40+02:00</time>
      </trkpt>
      <trkpt lat="44.35788" lon="6.68542">
        <ele>1703</ele>
        <time>2020-09-16T07:50:41+02:00</time>
      </trkpt>
      <trkpt lat="44.35789" lon="6.68542">
        <ele>1703</ele>
        <time>2020-09-16T07:51:09+02:00</time>
      </trkpt>
      <trkpt lat="44.35786" lon="6.68545">
        <ele>1703</ele>
        <time>2020-09-16T07:51:27+02:00</time>
      </trkpt>
      <trkpt lat="44.35786" lon="6.68542">
        <ele>1703</ele>
        <time>2020-09-16T07:52:03+02:00</time>
      </trkpt>
      <trkpt lat="44.35786" lon="6.68542">
        <ele>1703</ele>
        <time>2020-09-16T07:52:39+02:00</time>
      </trkpt>
      <trkpt lat="44.35786" lon="6.68542">
        <ele>1704</ele>
        <time>2020-09-16T07:53:04+02:00</time>
      </trkpt>
      <trkpt lat="44.35783" lon="6.68542">
        <ele>1704</ele>
        <time>2020-09-16T07:53:29+02:00</time>
      </trkpt>
      <trkpt lat="44.35784" lon="6.68542">
        <ele>1704</ele>
        <time>2020-09-16T07:54:06+02:00</time>
      </trkpt>
      <trkpt lat="44.35784" lon="6.68543">
        <ele>1703</ele>
        <time>2020-09-16T07:54:35+02:00</time>
      </trkpt>
      <trkpt lat="44.35785" lon="6.68544">
        <ele>1703</ele>
        <time>2020-09-16T07:55:09+02:00</time>
      </trkpt>
      <trkpt lat="44.35783" lon="6.68542">
        <ele>1704</ele>
        <time>2020-09-16T07:55:47+02:00</time>
      </trkpt>
      <trkpt lat="44.35785" lon="6.68543">
        <ele>1703</ele>
        <time>2020-09-16T07:56:16+02:00</time>
      </trkpt>
      <trkpt lat="44.35787" lon="6.68542">
        <ele>1704</ele>
        <time>2020-09-16T07:56:54+02:00</time>
      </trkpt>
      <trkpt lat="44.35785" lon="6.68542">
        <ele>1704</ele>
        <time>2020-09-16T07:57:30+02:00</time>
      </trkpt>
      <trkpt lat="44.35784" lon="6.68542">
        <ele>1704</ele>
        <time>2020-09-16T07:58:01+02:00</time>
      </trkpt>
      <trkpt lat="44.35784" lon="6.68545">
        <ele>1703</ele>
        <time>2020-09-16T07:58:26+02:00</time>
      </trkpt>
      <trkpt lat="44.35787" lon="6.68544">
        <ele>1703</ele>
        <time>2020-09-16T07:58:41+02:00</time>
      </trkpt>
      <trkpt lat="44.35788" lon="6.68543">
        <ele>1703</ele>
        <time>2020-09-16T07:58:43+02:00</time>
      </trkpt>
      <trkpt lat="44.35783" lon="6.68542">
        <ele>1704</ele>
        <time>2020-09-16T08:00:06+02:00</time>
      </trkpt>
      <trkpt lat="44.35791" lon="6.68556">
        <ele>1701</ele>
        <time>2020-09-16T08:00:07+02:00</time>
      </trkpt>
      <trkpt lat="44.35784" lon="6.68541">
        <ele>1704</ele>
        <time>2020-09-16T08:00:33+02:00</time>
      </trkpt>
      <trkpt lat="44.35784" lon="6.68542">
        <ele>1704</ele>
        <time>2020-09-16T08:01:00+02:00</time>
      </trkpt>
      <trkpt lat="44.35784" lon="6.68543">
        <ele>1704</ele>
        <time>2020-09-16T08:01:36+02:00</time>
      </trkpt>
      <trkpt lat="44.35785" lon="6.68545">
        <ele>1703</ele>
        <time>2020-09-16T08:02:16+02:00</time>
      </trkpt>
      <trkpt lat="44.35785" lon="6.68543">
        <ele>1703</ele>
        <time>2020-09-16T08:02:44+02:00</time>
      </trkpt>
      <trkpt lat="44.35784" lon="6.68544">
        <ele>1703</ele>
        <time>2020-09-16T08:03:12+02:00</time>
      </trkpt>
      <trkpt lat="44.35785" lon="6.68543">
        <ele>1703</ele>
        <time>2020-09-16T08:03:19+02:00</time>
      </trkpt>
      <trkpt lat="44.35771" lon="6.68551">
        <ele>1703</ele>
      </trkpt>
      <trkpt lat="44.3576" lon="6.68567">
        <ele>1702</ele>
        <time>2020-09-16T08:06:06+02:00</time>
      </trkpt>
      <trkpt lat="44.35756" lon="6.68577">
        <ele>1701</ele>
        <time>2020-09-16T08:06:07+02:00</time>
      </trkpt>
      <trkpt lat="44.35752" lon="6.68589">
        <ele>1700</ele>
        <time>2020-09-16T08:07:22+02:00</time>
      </trkpt>
      <trkpt lat="44.35744" lon="6.68585">
        <ele>1702</ele>
        <time>2020-09-16T08:07:36+02:00</time>
      </trkpt>
      <trkpt lat="44.35739" lon="6.68584">
        <ele>1703</ele>
      </trkpt>
      <trkpt lat="44.35741" lon="6.68573">
        <ele>1704</ele>
      </trkpt>
      <trkpt lat="44.35745" lon="6.68559">
        <ele>1705</ele>
      </trkpt>
      <trkpt lat="44.35747" lon="6.68549">
        <ele>1706</ele>
      </trkpt>
      <trkpt lat="44.35755" lon="6.68533">
        <ele>1708</ele>
      </trkpt>
      <trkpt lat="44.35767" lon="6.68516">
        <ele>1709</ele>
      </trkpt>
      <trkpt lat="44.35783" lon="6.68505">
        <ele>1710</ele>
        <time>2020-09-16T08:07:53+02:00</time>
      </trkpt>
      <trkpt lat="44.3578" lon="6.68503">
        <ele>1710</ele>
        <time>2020-09-16T08:08:08+02:00</time>
      </trkpt>
      <trkpt lat="44.3578" lon="6.68502">
        <ele>1711</ele>
        <time>2020-09-16T08:08:48+02:00</time>
      </trkpt>
      <trkpt lat="44.3578" lon="6.68504">
        <ele>1710</ele>
        <time>2020-09-16T08:09:15+02:00</time>
      </trkpt>
      <trkpt lat="44.3578" lon="6.68505">
        <ele>1710</ele>
        <time>2020-09-16T08:09:18+02:00</time>
      </trkpt>
      <trkpt lat="44.35775" lon="6.68506">
        <ele>1710</ele>
        <time>2020-09-16T08:09:33+02:00</time>
      </trkpt>
      <trkpt lat="44.3579" lon="6.68486">
        <ele>1713</ele>
        <time>2020-09-16T08:09:50+02:00</time>
      </trkpt>
      <trkpt lat="44.35797" lon="6.68462">
        <ele>1716</ele>
        <time>2020-09-16T08:10:04+02:00</time>
      </trkpt>
      <trkpt lat="44.35803" lon="6.68456">
        <ele>1716</ele>
      </trkpt>
      <trkpt lat="44.35812" lon="6.68455">
        <ele>1717</ele>
        <time>2020-09-16T08:10:21+02:00</time>
      </trkpt>
      <trkpt lat="44.3583" lon="6.68453">
        <ele>1717</ele>
        <time>2020-09-16T08:10:40+02:00</time>
      </trkpt>
      <trkpt lat="44.35839" lon="6.68452">
        <ele>1718</ele>
        <time>2020-09-16T08:10:54+02:00</time>
      </trkpt>
      <trkpt lat="44.35853" lon="6.6845">
        <ele>1718</ele>
        <time>2020-09-16T08:11:08+02:00</time>
      </trkpt>
      <trkpt lat="44.35875" lon="6.68446">
        <ele>1719</ele>
        <time>2020-09-16T08:11:26+02:00</time>
      </trkpt>
      <trkpt lat="44.35882" lon="6.68441">
        <ele>1719</ele>
        <time>2020-09-16T08:11:41+02:00</time>
      </trkpt>
      <trkpt lat="44.35884" lon="6.68438">
        <ele>1720</ele>
        <time>2020-09-16T08:12:01+02:00</time>
      </trkpt>
      <trkpt lat="44.35891" lon="6.68438">
        <ele>1720</ele>
        <time>2020-09-16T08:12:08+02:00</time>
      </trkpt>
      <trkpt lat="44.3591" lon="6.68438">
        <ele>1720</ele>
        <time>2020-09-16T08:12:26+02:00</time>
      </trkpt>
      <trkpt lat="44.3593" lon="6.6843">
        <ele>1721</ele>
        <time>2020-09-16T08:12:46+02:00</time>
      </trkpt>
      <trkpt lat="44.35947" lon="6.6843">
        <ele>1722</ele>
        <time>2020-09-16T08:13:05+02:00</time>
      </trkpt>
      <trkpt lat="44.3597" lon="6.68437">
        <ele>1723</ele>
        <time>2020-09-16T08:13:27+02:00</time>
      </trkpt>
      <trkpt lat="44.35989" lon="6.68443">
        <ele>1723</ele>
        <time>2020-09-16T08:13:46+02:00</time>
      </trkpt>
      <trkpt lat="44.35997" lon="6.68444">
        <ele>1724</ele>
        <time>2020-09-16T08:14:04+02:00</time>
      </trkpt>
      <trkpt lat="44.35998" lon="6.68441">
        <ele>1725</ele>
        <time>2020-09-16T08:14:25+02:00</time>
      </trkpt>
      <trkpt lat="44.36011" lon="6.68439">
        <ele>1725</ele>
        <time>2020-09-16T08:14:41+02:00</time>
      </trkpt>
      <trkpt lat="44.36034" lon="6.68427">
        <ele>1726</ele>
        <time>2020-09-16T08:15:02+02:00</time>
      </trkpt>
      <trkpt lat="44.36048" lon="6.68408">
        <ele>1726</ele>
        <time>2020-09-16T08:15:22+02:00</time>
      </trkpt>
      <trkpt lat="44.36062" lon="6.6838">
        <ele>1728</ele>
        <time>2020-09-16T08:15:44+02:00</time>
      </trkpt>
      <trkpt lat="44.36063" lon="6.68349">
        <ele>1733</ele>
        <time>2020-09-16T08:16:04+02:00</time>
      </trkpt>
      <trkpt lat="44.36063" lon="6.68346">
        <ele>1733</ele>
        <time>2020-09-16T08:27:46+02:00</time>
      </trkpt>
      <trkpt lat="44.36066" lon="6.68343">
        <ele>1733</ele>
        <time>2020-09-16T08:28:00+02:00</time>
      </trkpt>
      <trkpt lat="44.36075" lon="6.68342">
        <ele>1731</ele>
        <time>2020-09-16T08:28:09+02:00</time>
      </trkpt>
      <trkpt lat="44.36089" lon="6.68339">
        <ele>1727</ele>
        <time>2020-09-16T08:28:21+02:00</time>
      </trkpt>
      <trkpt lat="44.36101" lon="6.68334">
        <ele>1723</ele>
        <time>2020-09-16T08:28:31+02:00</time>
      </trkpt>
      <trkpt lat="44.36112" lon="6.6833">
        <ele>1719</ele>
        <time>2020-09-16T08:28:41+02:00</time>
      </trkpt>
      <trkpt lat="44.36123" lon="6.68327">
        <ele>1715</ele>
        <time>2020-09-16T08:28:52+02:00</time>
      </trkpt>
      <trkpt lat="44.36137" lon="6.68324">
        <ele>1711</ele>
        <time>2020-09-16T08:29:06+02:00</time>
      </trkpt>
      <trkpt lat="44.36145" lon="6.6832">
        <ele>1709</ele>
        <time>2020-09-16T08:29:17+02:00</time>
      </trkpt>
      <trkpt lat="44.36153" lon="6.68313">
        <ele>1707</ele>
        <time>2020-09-16T08:29:31+02:00</time>
      </trkpt>
      <trkpt lat="44.36153" lon="6.68311">
        <ele>1707</ele>
        <time>2020-09-16T08:29:33+02:00</time>
      </trkpt>
      <trkpt lat="44.36152" lon="6.68299">
        <ele>1706</ele>
        <time>2020-09-16T08:29:46+02:00</time>
      </trkpt>
      <trkpt lat="44.36153" lon="6.683">
        <ele>1706</ele>
        <time>2020-09-16T08:30:05+02:00</time>
      </trkpt>
      <trkpt lat="44.36147" lon="6.68295">
        <ele>1705</ele>
        <time>2020-09-16T08:30:18+02:00</time>
      </trkpt>
      <trkpt lat="44.36127" lon="6.68289">
        <ele>1709</ele>
        <time>2020-09-16T08:30:36+02:00</time>
      </trkpt>
      <trkpt lat="44.36113" lon="6.68267">
        <ele>1703</ele>
        <time>2020-09-16T08:30:56+02:00</time>
      </trkpt>
      <trkpt lat="44.36112" lon="6.68266">
        <ele>1703</ele>
        <time>2020-09-16T08:30:57+02:00</time>
      </trkpt>
      <trkpt lat="44.36089" lon="6.68254">
        <ele>1703</ele>
        <time>2020-09-16T08:31:16+02:00</time>
      </trkpt>
      <trkpt lat="44.36075" lon="6.68242">
        <ele>1701</ele>
        <time>2020-09-16T08:31:31+02:00</time>
      </trkpt>
      <trkpt lat="44.3606" lon="6.6823">
        <ele>1700</ele>
        <time>2020-09-16T08:31:45+02:00</time>
      </trkpt>
      <trkpt lat="44.36035" lon="6.68227">
        <ele>1700</ele>
        <time>2020-09-16T08:32:04+02:00</time>
      </trkpt>
      <trkpt lat="44.36023" lon="6.68228">
        <ele>1702</ele>
        <time>2020-09-16T08:32:14+02:00</time>
      </trkpt>
      <trkpt lat="44.3602" lon="6.68227">
        <ele>1702</ele>
        <time>2020-09-16T08:32:17+02:00</time>
      </trkpt>
      <trkpt lat="44.36008" lon="6.68213">
        <ele>1700</ele>
        <time>2020-09-16T08:32:34+02:00</time>
      </trkpt>
      <trkpt lat="44.36006" lon="6.68208">
        <ele>1698</ele>
        <time>2020-09-16T08:33:00+02:00</time>
      </trkpt>
      <trkpt lat="44.35996" lon="6.68197">
        <ele>1697</ele>
        <time>2020-09-16T08:33:16+02:00</time>
      </trkpt>
      <trkpt lat="44.35977" lon="6.68187">
        <ele>1698</ele>
        <time>2020-09-16T08:33:35+02:00</time>
      </trkpt>
      <trkpt lat="44.3596" lon="6.68179">
        <ele>1698</ele>
        <time>2020-09-16T08:33:51+02:00</time>
      </trkpt>
      <trkpt lat="44.35956" lon="6.68177">
        <ele>1698</ele>
        <time>2020-09-16T08:33:54+02:00</time>
      </trkpt>
      <trkpt lat="44.35933" lon="6.68168">
        <ele>1697</ele>
        <time>2020-09-16T08:34:13+02:00</time>
      </trkpt>
      <trkpt lat="44.35916" lon="6.68157">
        <ele>1696</ele>
        <time>2020-09-16T08:34:30+02:00</time>
      </trkpt>
      <trkpt lat="44.35897" lon="6.68145">
        <ele>1696</ele>
        <time>2020-09-16T08:34:47+02:00</time>
      </trkpt>
      <trkpt lat="44.35888" lon="6.6813">
        <ele>1696</ele>
        <time>2020-09-16T08:34:59+02:00</time>
      </trkpt>
      <trkpt lat="44.35877" lon="6.68105">
        <ele>1695</ele>
        <time>2020-09-16T08:35:17+02:00</time>
      </trkpt>
      <trkpt lat="44.35864" lon="6.68078">
        <ele>1694</ele>
        <time>2020-09-16T08:35:37+02:00</time>
      </trkpt>
      <trkpt lat="44.35849" lon="6.68053">
        <ele>1693</ele>
        <time>2020-09-16T08:35:56+02:00</time>
      </trkpt>
      <trkpt lat="44.35831" lon="6.68035">
        <ele>1696</ele>
        <time>2020-09-16T08:36:13+02:00</time>
      </trkpt>
      <trkpt lat="44.35817" lon="6.68016">
        <ele>1698</ele>
        <time>2020-09-16T08:36:30+02:00</time>
      </trkpt>
      <trkpt lat="44.35805" lon="6.67983">
        <ele>1696</ele>
        <time>2020-09-16T08:36:50+02:00</time>
      </trkpt>
      <trkpt lat="44.358" lon="6.6796">
        <ele>1694</ele>
        <time>2020-09-16T08:37:05+02:00</time>
      </trkpt>
      <trkpt lat="44.35779" lon="6.67946">
        <ele>1699</ele>
        <time>2020-09-16T08:37:25+02:00</time>
      </trkpt>
      <trkpt lat="44.35763" lon="6.67919">
        <ele>1697</ele>
        <time>2020-09-16T08:37:46+02:00</time>
      </trkpt>
      <trkpt lat="44.35745" lon="6.67899">
        <ele>1699</ele>
        <time>2020-09-16T08:38:05+02:00</time>
      </trkpt>
      <trkpt lat="44.3573" lon="6.67877">
        <ele>1699</ele>
        <time>2020-09-16T08:38:22+02:00</time>
      </trkpt>
      <trkpt lat="44.35717" lon="6.67857">
        <ele>1701</ele>
        <time>2020-09-16T08:38:40+02:00</time>
      </trkpt>
      <trkpt lat="44.35714" lon="6.67851">
        <ele>1701</ele>
        <time>2020-09-16T08:39:02+02:00</time>
      </trkpt>
      <trkpt lat="44.35706" lon="6.6784">
        <ele>1703</ele>
        <time>2020-09-16T08:39:19+02:00</time>
      </trkpt>
      <trkpt lat="44.357" lon="6.67823">
        <ele>1703</ele>
        <time>2020-09-16T08:39:35+02:00</time>
      </trkpt>
      <trkpt lat="44.35697" lon="6.67821">
        <ele>1704</ele>
        <time>2020-09-16T08:39:55+02:00</time>
      </trkpt>
      <trkpt lat="44.35687" lon="6.67805">
        <ele>1705</ele>
        <time>2020-09-16T08:40:11+02:00</time>
      </trkpt>
      <trkpt lat="44.35673" lon="6.6779">
        <ele>1707</ele>
        <time>2020-09-16T08:40:29+02:00</time>
      </trkpt>
      <trkpt lat="44.35667" lon="6.67786">
        <ele>1708</ele>
        <time>2020-09-16T08:40:45+02:00</time>
      </trkpt>
      <trkpt lat="44.35656" lon="6.6778">
        <ele>1711</ele>
        <time>2020-09-16T08:41:01+02:00</time>
      </trkpt>
      <trkpt lat="44.35653" lon="6.67777">
        <ele>1712</ele>
        <time>2020-09-16T08:41:22+02:00</time>
      </trkpt>
      <trkpt lat="44.3564" lon="6.67765">
        <ele>1714</ele>
        <time>2020-09-16T08:41:38+02:00</time>
      </trkpt>
      <trkpt lat="44.35624" lon="6.6776">
        <ele>1719</ele>
        <time>2020-09-16T08:41:57+02:00</time>
      </trkpt>
      <trkpt lat="44.35616" lon="6.67756">
        <ele>1721</ele>
        <time>2020-09-16T08:42:07+02:00</time>
      </trkpt>
      <trkpt lat="44.35601" lon="6.67741">
        <ele>1717</ele>
        <time>2020-09-16T08:42:23+02:00</time>
      </trkpt>
      <trkpt lat="44.35599" lon="6.6774">
        <ele>1716</ele>
        <time>2020-09-16T08:42:41+02:00</time>
      </trkpt>
      <trkpt lat="44.35602" lon="6.67742">
        <ele>1717</ele>
        <time>2020-09-16T08:43:01+02:00</time>
      </trkpt>
      <trkpt lat="44.35593" lon="6.67752">
        <ele>1721</ele>
        <time>2020-09-16T08:43:16+02:00</time>
      </trkpt>
      <trkpt lat="44.35589" lon="6.67759">
        <ele>1724</ele>
        <time>2020-09-16T08:43:30+02:00</time>
      </trkpt>
      <trkpt lat="44.3557" lon="6.67771">
        <ele>1725</ele>
        <time>2020-09-16T08:43:48+02:00</time>
      </trkpt>
      <trkpt lat="44.35557" lon="6.67775">
        <ele>1723</ele>
        <time>2020-09-16T08:44:05+02:00</time>
      </trkpt>
      <trkpt lat="44.35556" lon="6.67775">
        <ele>1723</ele>
        <time>2020-09-16T08:44:26+02:00</time>
      </trkpt>
      <trkpt lat="44.35557" lon="6.67772">
        <ele>1722</ele>
        <time>2020-09-16T08:44:35+02:00</time>
      </trkpt>
      <trkpt lat="44.35555" lon="6.67774">
        <ele>1722</ele>
        <time>2020-09-16T08:44:38+02:00</time>
      </trkpt>
      <trkpt lat="44.35531" lon="6.67792">
        <ele>1726</ele>
        <time>2020-09-16T08:44:59+02:00</time>
      </trkpt>
      <trkpt lat="44.35514" lon="6.67801">
        <ele>1728</ele>
        <time>2020-09-16T08:45:14+02:00</time>
      </trkpt>
      <trkpt lat="44.35498" lon="6.67804">
        <ele>1727</ele>
        <time>2020-09-16T08:45:28+02:00</time>
      </trkpt>
      <trkpt lat="44.35478" lon="6.6781">
        <ele>1730</ele>
        <time>2020-09-16T08:45:45+02:00</time>
      </trkpt>
      <trkpt lat="44.35459" lon="6.67814">
        <ele>1731</ele>
        <time>2020-09-16T08:46:02+02:00</time>
      </trkpt>
      <trkpt lat="44.35458" lon="6.67814">
        <ele>1731</ele>
        <time>2020-09-16T08:46:03+02:00</time>
      </trkpt>
      <trkpt lat="44.35438" lon="6.67815">
        <ele>1731</ele>
        <time>2020-09-16T08:46:21+02:00</time>
      </trkpt>
      <trkpt lat="44.35415" lon="6.6782">
        <ele>1730</ele>
        <time>2020-09-16T08:46:41+02:00</time>
      </trkpt>
      <trkpt lat="44.35398" lon="6.67816">
        <ele>1723</ele>
        <time>2020-09-16T08:46:58+02:00</time>
      </trkpt>
      <trkpt lat="44.35383" lon="6.6782">
        <ele>1721</ele>
        <time>2020-09-16T08:47:13+02:00</time>
      </trkpt>
      <trkpt lat="44.35371" lon="6.6782">
        <ele>1720</ele>
        <time>2020-09-16T08:47:25+02:00</time>
      </trkpt>
      <trkpt lat="44.35362" lon="6.67828">
        <ele>1722</ele>
        <time>2020-09-16T08:47:39+02:00</time>
      </trkpt>
      <trkpt lat="44.35358" lon="6.67818">
        <ele>1721</ele>
        <time>2020-09-16T08:47:53+02:00</time>
      </trkpt>
      <trkpt lat="44.35358" lon="6.67816">
        <ele>1720</ele>
        <time>2020-09-16T08:47:55+02:00</time>
      </trkpt>
      <trkpt lat="44.35362" lon="6.67797">
        <ele>1714</ele>
        <time>2020-09-16T08:48:12+02:00</time>
      </trkpt>
      <trkpt lat="44.35362" lon="6.67797">
        <ele>1714</ele>
        <time>2020-09-16T08:48:43+02:00</time>
      </trkpt>
      <trkpt lat="44.35361" lon="6.67798">
        <ele>1714</ele>
        <time>2020-09-16T08:49:11+02:00</time>
      </trkpt>
      <trkpt lat="44.35362" lon="6.67784">
        <ele>1714</ele>
        <time>2020-09-16T08:49:26+02:00</time>
      </trkpt>
      <trkpt lat="44.35362" lon="6.67774">
        <ele>1715</ele>
        <time>2020-09-16T08:49:45+02:00</time>
      </trkpt>
      <trkpt lat="44.35369" lon="6.6776">
        <ele>1714</ele>
        <time>2020-09-16T08:49:57+02:00</time>
      </trkpt>
      <trkpt lat="44.35371" lon="6.67754">
        <ele>1713</ele>
        <time>2020-09-16T08:50:01+02:00</time>
      </trkpt>
      <trkpt lat="44.35372" lon="6.67742">
        <ele>1712</ele>
        <time>2020-09-16T08:50:09+02:00</time>
      </trkpt>
      <trkpt lat="44.35366" lon="6.67718">
        <ele>1715</ele>
        <time>2020-09-16T08:50:24+02:00</time>
      </trkpt>
      <trkpt lat="44.35358" lon="6.67706">
        <ele>1716</ele>
        <time>2020-09-16T08:50:39+02:00</time>
      </trkpt>
      <trkpt lat="44.35343" lon="6.67693">
        <ele>1720</ele>
        <time>2020-09-16T08:50:53+02:00</time>
      </trkpt>
      <trkpt lat="44.35342" lon="6.67693">
        <ele>1720</ele>
        <time>2020-09-16T08:50:54+02:00</time>
      </trkpt>
      <trkpt lat="44.35327" lon="6.67676">
        <ele>1720</ele>
        <time>2020-09-16T08:51:13+02:00</time>
      </trkpt>
      <trkpt lat="44.35327" lon="6.67673">
        <ele>1719</ele>
        <time>2020-09-16T08:51:15+02:00</time>
      </trkpt>
      <trkpt lat="44.35315" lon="6.67658">
        <ele>1720</ele>
        <time>2020-09-16T08:51:29+02:00</time>
      </trkpt>
      <trkpt lat="44.35309" lon="6.6765">
        <ele>1720</ele>
        <time>2020-09-16T08:51:46+02:00</time>
      </trkpt>
      <trkpt lat="44.35308" lon="6.67651">
        <ele>1720</ele>
        <time>2020-09-16T08:51:49+02:00</time>
      </trkpt>
      <trkpt lat="44.35301" lon="6.67642">
        <ele>1720</ele>
        <time>2020-09-16T08:51:58+02:00</time>
      </trkpt>
      <trkpt lat="44.35297" lon="6.67626">
        <ele>1719</ele>
        <time>2020-09-16T08:52:14+02:00</time>
      </trkpt>
      <trkpt lat="44.35298" lon="6.67621">
        <ele>1719</ele>
        <time>2020-09-16T08:52:21+02:00</time>
      </trkpt>
      <trkpt lat="44.35304" lon="6.6762">
        <ele>1717</ele>
        <time>2020-09-16T08:52:28+02:00</time>
      </trkpt>
      <trkpt lat="44.35313" lon="6.67611">
        <ele>1716</ele>
        <time>2020-09-16T08:52:39+02:00</time>
      </trkpt>
      <trkpt lat="44.35325" lon="6.67606">
        <ele>1718</ele>
        <time>2020-09-16T08:52:53+02:00</time>
      </trkpt>
      <trkpt lat="44.35339" lon="6.67607">
        <ele>1717</ele>
        <time>2020-09-16T08:53:06+02:00</time>
      </trkpt>
      <trkpt lat="44.35353" lon="6.67615">
        <ele>1713</ele>
        <time>2020-09-16T08:53:20+02:00</time>
      </trkpt>
      <trkpt lat="44.35373" lon="6.67611">
        <ele>1714</ele>
        <time>2020-09-16T08:53:36+02:00</time>
      </trkpt>
      <trkpt lat="44.35396" lon="6.67608">
        <ele>1711</ele>
        <time>2020-09-16T08:53:56+02:00</time>
      </trkpt>
      <trkpt lat="44.35406" lon="6.67606">
        <ele>1710</ele>
        <time>2020-09-16T08:54:13+02:00</time>
      </trkpt>
      <trkpt lat="44.35411" lon="6.67602">
        <ele>1710</ele>
        <time>2020-09-16T08:54:21+02:00</time>
      </trkpt>
      <trkpt lat="44.35413" lon="6.67596">
        <ele>1712</ele>
        <time>2020-09-16T08:54:27+02:00</time>
      </trkpt>
      <trkpt lat="44.35412" lon="6.67572">
        <ele>1720</ele>
        <time>2020-09-16T08:54:44+02:00</time>
      </trkpt>
      <trkpt lat="44.35415" lon="6.67566">
        <ele>1721</ele>
        <time>2020-09-16T08:54:52+02:00</time>
      </trkpt>
      <trkpt lat="44.35424" lon="6.67554">
        <ele>1721</ele>
        <time>2020-09-16T08:55:04+02:00</time>
      </trkpt>
      <trkpt lat="44.35432" lon="6.67529">
        <ele>1724</ele>
        <time>2020-09-16T08:55:24+02:00</time>
      </trkpt>
      <trkpt lat="44.35449" lon="6.67513">
        <ele>1723</ele>
        <time>2020-09-16T08:55:42+02:00</time>
      </trkpt>
      <trkpt lat="44.35464" lon="6.67497">
        <ele>1722</ele>
        <time>2020-09-16T08:56:03+02:00</time>
      </trkpt>
      <trkpt lat="44.35484" lon="6.6748">
        <ele>1719</ele>
        <time>2020-09-16T08:56:24+02:00</time>
      </trkpt>
      <trkpt lat="44.35487" lon="6.67469">
        <ele>1720</ele>
        <time>2020-09-16T08:56:32+02:00</time>
      </trkpt>
      <trkpt lat="44.35487" lon="6.67462">
        <ele>1721</ele>
        <time>2020-09-16T08:56:36+02:00</time>
      </trkpt>
      <trkpt lat="44.35491" lon="6.6744">
        <ele>1725</ele>
        <time>2020-09-16T08:56:50+02:00</time>
      </trkpt>
      <trkpt lat="44.35493" lon="6.67435">
        <ele>1725</ele>
        <time>2020-09-16T08:56:53+02:00</time>
      </trkpt>
      <trkpt lat="44.35503" lon="6.67413">
        <ele>1726</ele>
        <time>2020-09-16T08:57:09+02:00</time>
      </trkpt>
      <trkpt lat="44.35515" lon="6.67396">
        <ele>1726</ele>
        <time>2020-09-16T08:57:25+02:00</time>
      </trkpt>
      <trkpt lat="44.3553" lon="6.67378">
        <ele>1724</ele>
        <time>2020-09-16T08:57:42+02:00</time>
      </trkpt>
      <trkpt lat="44.35546" lon="6.67362">
        <ele>1722</ele>
        <time>2020-09-16T08:58:02+02:00</time>
      </trkpt>
      <trkpt lat="44.35549" lon="6.67356">
        <ele>1722</ele>
        <time>2020-09-16T08:58:24+02:00</time>
      </trkpt>
      <trkpt lat="44.35569" lon="6.67344">
        <ele>1718</ele>
        <time>2020-09-16T08:58:45+02:00</time>
      </trkpt>
      <trkpt lat="44.3558" lon="6.67324">
        <ele>1718</ele>
        <time>2020-09-16T08:59:05+02:00</time>
      </trkpt>
      <trkpt lat="44.35586" lon="6.67305">
        <ele>1720</ele>
        <time>2020-09-16T08:59:20+02:00</time>
      </trkpt>
      <trkpt lat="44.35602" lon="6.67286">
        <ele>1718</ele>
        <time>2020-09-16T08:59:39+02:00</time>
      </trkpt>
      <trkpt lat="44.35612" lon="6.67261">
        <ele>1719</ele>
        <time>2020-09-16T08:59:57+02:00</time>
      </trkpt>
      <trkpt lat="44.35622" lon="6.67231">
        <ele>1722</ele>
        <time>2020-09-16T09:00:15+02:00</time>
      </trkpt>
      <trkpt lat="44.3564" lon="6.67224">
        <ele>1717</ele>
        <time>2020-09-16T09:00:32+02:00</time>
      </trkpt>
      <trkpt lat="44.35645" lon="6.67221">
        <ele>1716</ele>
        <time>2020-09-16T09:00:37+02:00</time>
      </trkpt>
      <trkpt lat="44.35656" lon="6.67201">
        <ele>1716</ele>
        <time>2020-09-16T09:00:54+02:00</time>
      </trkpt>
      <trkpt lat="44.35668" lon="6.67174">
        <ele>1717</ele>
        <time>2020-09-16T09:01:15+02:00</time>
      </trkpt>
      <trkpt lat="44.35682" lon="6.67153">
        <ele>1715</ele>
        <time>2020-09-16T09:01:34+02:00</time>
      </trkpt>
      <trkpt lat="44.35691" lon="6.67142">
        <ele>1713</ele>
        <time>2020-09-16T09:01:49+02:00</time>
      </trkpt>
      <trkpt lat="44.35704" lon="6.67123">
        <ele>1711</ele>
        <time>2020-09-16T09:02:05+02:00</time>
      </trkpt>
      <trkpt lat="44.35714" lon="6.67102">
        <ele>1710</ele>
        <time>2020-09-16T09:02:21+02:00</time>
      </trkpt>
      <trkpt lat="44.35715" lon="6.6707">
        <ele>1713</ele>
        <time>2020-09-16T09:02:40+02:00</time>
      </trkpt>
      <trkpt lat="44.35722" lon="6.67034">
        <ele>1713</ele>
        <time>2020-09-16T09:03:00+02:00</time>
      </trkpt>
      <trkpt lat="44.35722" lon="6.67032">
        <ele>1714</ele>
        <time>2020-09-16T09:03:01+02:00</time>
      </trkpt>
      <trkpt lat="44.35731" lon="6.6701">
        <ele>1713</ele>
        <time>2020-09-16T09:03:18+02:00</time>
      </trkpt>
      <trkpt lat="44.35751" lon="6.66997">
        <ele>1708</ele>
        <time>2020-09-16T09:03:36+02:00</time>
      </trkpt>
      <trkpt lat="44.35752" lon="6.66996">
        <ele>1708</ele>
        <time>2020-09-16T09:03:37+02:00</time>
      </trkpt>
      <trkpt lat="44.35761" lon="6.66981">
        <ele>1708</ele>
        <time>2020-09-16T09:03:53+02:00</time>
      </trkpt>
      <trkpt lat="44.35778" lon="6.66959">
        <ele>1707</ele>
        <time>2020-09-16T09:04:13+02:00</time>
      </trkpt>
      <trkpt lat="44.35794" lon="6.66938">
        <ele>1706</ele>
        <time>2020-09-16T09:04:32+02:00</time>
      </trkpt>
      <trkpt lat="44.35808" lon="6.6692">
        <ele>1707</ele>
        <time>2020-09-16T09:04:53+02:00</time>
      </trkpt>
      <trkpt lat="44.35817" lon="6.66916">
        <ele>1705</ele>
        <time>2020-09-16T09:05:09+02:00</time>
      </trkpt>
      <trkpt lat="44.35818" lon="6.66918">
        <ele>1704</ele>
        <time>2020-09-16T09:05:37+02:00</time>
      </trkpt>
      <trkpt lat="44.35831" lon="6.66902">
        <ele>1705</ele>
        <time>2020-09-16T09:05:53+02:00</time>
      </trkpt>
      <trkpt lat="44.35834" lon="6.66879">
        <ele>1711</ele>
        <time>2020-09-16T09:06:11+02:00</time>
      </trkpt>
      <trkpt lat="44.3584" lon="6.66859">
        <ele>1715</ele>
        <time>2020-09-16T09:06:28+02:00</time>
      </trkpt>
      <trkpt lat="44.35853" lon="6.66842">
        <ele>1717</ele>
        <time>2020-09-16T09:06:47+02:00</time>
      </trkpt>
      <trkpt lat="44.3586" lon="6.66836">
        <ele>1717</ele>
        <time>2020-09-16T09:07:05+02:00</time>
      </trkpt>
      <trkpt lat="44.3586" lon="6.66834">
        <ele>1718</ele>
        <time>2020-09-16T09:07:18+02:00</time>
      </trkpt>
      <trkpt lat="44.35859" lon="6.66832">
        <ele>1719</ele>
        <time>2020-09-16T09:07:36+02:00</time>
      </trkpt>
      <trkpt lat="44.35859" lon="6.66834">
        <ele>1718</ele>
        <time>2020-09-16T09:07:56+02:00</time>
      </trkpt>
      <trkpt lat="44.3586" lon="6.66833">
        <ele>1718</ele>
        <time>2020-09-16T09:08:23+02:00</time>
      </trkpt>
      <trkpt lat="44.35862" lon="6.66834">
        <ele>1718</ele>
        <time>2020-09-16T09:08:41+02:00</time>
      </trkpt>
      <trkpt lat="44.35862" lon="6.66832">
        <ele>1718</ele>
        <time>2020-09-16T09:08:56+02:00</time>
      </trkpt>
      <trkpt lat="44.35867" lon="6.66828">
        <ele>1719</ele>
        <time>2020-09-16T09:09:11+02:00</time>
      </trkpt>
      <trkpt lat="44.35871" lon="6.66823">
        <ele>1719</ele>
        <time>2020-09-16T09:09:25+02:00</time>
      </trkpt>
      <trkpt lat="44.35876" lon="6.66819">
        <ele>1720</ele>
        <time>2020-09-16T09:09:46+02:00</time>
      </trkpt>
      <trkpt lat="44.35881" lon="6.66809">
        <ele>1721</ele>
        <time>2020-09-16T09:09:58+02:00</time>
      </trkpt>
      <trkpt lat="44.35879" lon="6.66805">
        <ele>1723</ele>
        <time>2020-09-16T09:10:09+02:00</time>
      </trkpt>
      <trkpt lat="44.35876" lon="6.66803">
        <ele>1723</ele>
        <time>2020-09-16T09:10:20+02:00</time>
      </trkpt>
      <trkpt lat="44.35877" lon="6.66806">
        <ele>1723</ele>
        <time>2020-09-16T09:10:35+02:00</time>
      </trkpt>
      <trkpt lat="44.35873" lon="6.668">
        <ele>1724</ele>
        <time>2020-09-16T09:10:44+02:00</time>
      </trkpt>
      <trkpt lat="44.35869" lon="6.66795">
        <ele>1726</ele>
        <time>2020-09-16T09:10:50+02:00</time>
      </trkpt>
      <trkpt lat="44.35866" lon="6.668">
        <ele>1726</ele>
        <time>2020-09-16T09:11:01+02:00</time>
      </trkpt>
      <trkpt lat="44.3586" lon="6.66787">
        <ele>1728</ele>
        <time>2020-09-16T09:11:11+02:00</time>
      </trkpt>
      <trkpt lat="44.35856" lon="6.66782">
        <ele>1728</ele>
        <time>2020-09-16T09:11:14+02:00</time>
      </trkpt>
      <trkpt lat="44.35842" lon="6.66765">
        <ele>1727</ele>
        <time>2020-09-16T09:11:31+02:00</time>
      </trkpt>
      <trkpt lat="44.35823" lon="6.66743">
        <ele>1725</ele>
        <time>2020-09-16T09:11:51+02:00</time>
      </trkpt>
      <trkpt lat="44.35808" lon="6.6672">
        <ele>1722</ele>
        <time>2020-09-16T09:12:11+02:00</time>
      </trkpt>
      <trkpt lat="44.3579" lon="6.6669">
        <ele>1720</ele>
        <time>2020-09-16T09:12:29+02:00</time>
      </trkpt>
      <trkpt lat="44.35776" lon="6.66656">
        <ele>1717</ele>
        <time>2020-09-16T09:12:48+02:00</time>
      </trkpt>
      <trkpt lat="44.3576" lon="6.66631">
        <ele>1716</ele>
        <time>2020-09-16T09:13:07+02:00</time>
      </trkpt>
      <trkpt lat="44.35746" lon="6.6661">
        <ele>1716</ele>
        <time>2020-09-16T09:13:22+02:00</time>
      </trkpt>
      <trkpt lat="44.35735" lon="6.66581">
        <ele>1713</ele>
        <time>2020-09-16T09:13:41+02:00</time>
      </trkpt>
      <trkpt lat="44.35734" lon="6.6657">
        <ele>1712</ele>
        <time>2020-09-16T09:13:47+02:00</time>
      </trkpt>
      <trkpt lat="44.35734" lon="6.66561">
        <ele>1710</ele>
        <time>2020-09-16T09:13:52+02:00</time>
      </trkpt>
      <trkpt lat="44.35734" lon="6.66544">
        <ele>1707</ele>
        <time>2020-09-16T09:14:03+02:00</time>
      </trkpt>
      <trkpt lat="44.35732" lon="6.66523">
        <ele>1704</ele>
        <time>2020-09-16T09:14:17+02:00</time>
      </trkpt>
      <trkpt lat="44.3574" lon="6.66489">
        <ele>1700</ele>
        <time>2020-09-16T09:14:34+02:00</time>
      </trkpt>
      <trkpt lat="44.35732" lon="6.66459">
        <ele>1701</ele>
        <time>2020-09-16T09:14:51+02:00</time>
      </trkpt>
      <trkpt lat="44.35731" lon="6.66442">
        <ele>1699</ele>
        <time>2020-09-16T09:15:01+02:00</time>
      </trkpt>
      <trkpt lat="44.35721" lon="6.66405">
        <ele>1700</ele>
        <time>2020-09-16T09:15:20+02:00</time>
      </trkpt>
      <trkpt lat="44.3572" lon="6.6638">
        <ele>1699</ele>
        <time>2020-09-16T09:15:35+02:00</time>
      </trkpt>
      <trkpt lat="44.35724" lon="6.66356">
        <ele>1696</ele>
        <time>2020-09-16T09:15:49+02:00</time>
      </trkpt>
      <trkpt lat="44.35714" lon="6.66333">
        <ele>1700</ele>
        <time>2020-09-16T09:16:03+02:00</time>
      </trkpt>
      <trkpt lat="44.3571" lon="6.66315">
        <ele>1700</ele>
        <time>2020-09-16T09:16:12+02:00</time>
      </trkpt>
      <trkpt lat="44.35711" lon="6.66307">
        <ele>1700</ele>
        <time>2020-09-16T09:16:16+02:00</time>
      </trkpt>
      <trkpt lat="44.35717" lon="6.66296">
        <ele>1696</ele>
        <time>2020-09-16T09:16:26+02:00</time>
      </trkpt>
      <trkpt lat="44.35729" lon="6.66265">
        <ele>1691</ele>
        <time>2020-09-16T09:16:46+02:00</time>
      </trkpt>
      <trkpt lat="44.35728" lon="6.66258">
        <ele>1691</ele>
        <time>2020-09-16T09:16:50+02:00</time>
      </trkpt>
      <trkpt lat="44.35722" lon="6.66228">
        <ele>1691</ele>
        <time>2020-09-16T09:17:06+02:00</time>
      </trkpt>
      <trkpt lat="44.35722" lon="6.662">
        <ele>1689</ele>
        <time>2020-09-16T09:17:20+02:00</time>
      </trkpt>
      <trkpt lat="44.35722" lon="6.66192">
        <ele>1688</ele>
        <time>2020-09-16T09:17:25+02:00</time>
      </trkpt>
      <trkpt lat="44.35721" lon="6.66162">
        <ele>1687</ele>
        <time>2020-09-16T09:17:41+02:00</time>
      </trkpt>
      <trkpt lat="44.35715" lon="6.6613">
        <ele>1687</ele>
        <time>2020-09-16T09:17:58+02:00</time>
      </trkpt>
      <trkpt lat="44.35711" lon="6.66111">
        <ele>1687</ele>
        <time>2020-09-16T09:18:10+02:00</time>
      </trkpt>
      <trkpt lat="44.35701" lon="6.66076">
        <ele>1687</ele>
        <time>2020-09-16T09:18:29+02:00</time>
      </trkpt>
      <trkpt lat="44.35691" lon="6.66049">
        <ele>1689</ele>
        <time>2020-09-16T09:18:46+02:00</time>
      </trkpt>
      <trkpt lat="44.35686" lon="6.66034">
        <ele>1690</ele>
        <time>2020-09-16T09:19:01+02:00</time>
      </trkpt>
      <trkpt lat="44.35686" lon="6.66032">
        <ele>1690</ele>
        <time>2020-09-16T09:19:02+02:00</time>
      </trkpt>
      <trkpt lat="44.35687" lon="6.66023">
        <ele>1690</ele>
        <time>2020-09-16T09:19:07+02:00</time>
      </trkpt>
      <trkpt lat="44.35685" lon="6.66008">
        <ele>1690</ele>
        <time>2020-09-16T09:19:21+02:00</time>
      </trkpt>
      <trkpt lat="44.35685" lon="6.66005">
        <ele>1690</ele>
        <time>2020-09-16T09:19:25+02:00</time>
      </trkpt>
      <trkpt lat="44.3568" lon="6.65985">
        <ele>1691</ele>
        <time>2020-09-16T09:19:42+02:00</time>
      </trkpt>
      <trkpt lat="44.3568" lon="6.65983">
        <ele>1691</ele>
        <time>2020-09-16T09:19:44+02:00</time>
      </trkpt>
      <trkpt lat="44.3568" lon="6.65969">
        <ele>1690</ele>
        <time>2020-09-16T09:19:56+02:00</time>
      </trkpt>
      <trkpt lat="44.35676" lon="6.65947">
        <ele>1690</ele>
        <time>2020-09-16T09:20:12+02:00</time>
      </trkpt>
      <trkpt lat="44.35676" lon="6.65932">
        <ele>1690</ele>
        <time>2020-09-16T09:20:31+02:00</time>
      </trkpt>
      <trkpt lat="44.35671" lon="6.65916">
        <ele>1690</ele>
        <time>2020-09-16T09:20:59+02:00</time>
      </trkpt>
      <trkpt lat="44.3566" lon="6.65896">
        <ele>1692</ele>
        <time>2020-09-16T09:21:13+02:00</time>
      </trkpt>
      <trkpt lat="44.35656" lon="6.65878">
        <ele>1692</ele>
        <time>2020-09-16T09:21:29+02:00</time>
      </trkpt>
      <trkpt lat="44.35657" lon="6.65857">
        <ele>1692</ele>
        <time>2020-09-16T09:21:43+02:00</time>
      </trkpt>
      <trkpt lat="44.35662" lon="6.65831">
        <ele>1690</ele>
        <time>2020-09-16T09:22:02+02:00</time>
      </trkpt>
      <trkpt lat="44.35663" lon="6.65802">
        <ele>1689</ele>
        <time>2020-09-16T09:22:20+02:00</time>
      </trkpt>
      <trkpt lat="44.35659" lon="6.65773">
        <ele>1692</ele>
        <time>2020-09-16T09:22:39+02:00</time>
      </trkpt>
      <trkpt lat="44.35664" lon="6.65756">
        <ele>1692</ele>
        <time>2020-09-16T09:22:53+02:00</time>
      </trkpt>
      <trkpt lat="44.3567" lon="6.65742">
        <ele>1690</ele>
        <time>2020-09-16T09:23:07+02:00</time>
      </trkpt>
      <trkpt lat="44.3567" lon="6.65734">
        <ele>1691</ele>
        <time>2020-09-16T09:23:14+02:00</time>
      </trkpt>
      <trkpt lat="44.35671" lon="6.65706">
        <ele>1690</ele>
        <time>2020-09-16T09:23:33+02:00</time>
      </trkpt>
      <trkpt lat="44.35656" lon="6.65684">
        <ele>1692</ele>
        <time>2020-09-16T09:23:51+02:00</time>
      </trkpt>
      <trkpt lat="44.35646" lon="6.6568">
        <ele>1694</ele>
        <time>2020-09-16T09:24:06+02:00</time>
      </trkpt>
      <trkpt lat="44.35634" lon="6.65687">
        <ele>1698</ele>
        <time>2020-09-16T09:24:20+02:00</time>
      </trkpt>
      <trkpt lat="44.35626" lon="6.6567">
        <ele>1697</ele>
        <time>2020-09-16T09:24:38+02:00</time>
      </trkpt>
      <trkpt lat="44.35626" lon="6.65651">
        <ele>1694</ele>
        <time>2020-09-16T09:24:53+02:00</time>
      </trkpt>
      <trkpt lat="44.35622" lon="6.65634">
        <ele>1693</ele>
        <time>2020-09-16T09:25:07+02:00</time>
      </trkpt>
      <trkpt lat="44.3562" lon="6.65611">
        <ele>1691</ele>
        <time>2020-09-16T09:25:21+02:00</time>
      </trkpt>
      <trkpt lat="44.35608" lon="6.65593">
        <ele>1692</ele>
        <time>2020-09-16T09:25:38+02:00</time>
      </trkpt>
      <trkpt lat="44.35607" lon="6.6559">
        <ele>1692</ele>
        <time>2020-09-16T09:25:42+02:00</time>
      </trkpt>
      <trkpt lat="44.35604" lon="6.65586">
        <ele>1693</ele>
        <time>2020-09-16T09:25:47+02:00</time>
      </trkpt>
      <trkpt lat="44.35593" lon="6.65561">
        <ele>1694</ele>
        <time>2020-09-16T09:26:07+02:00</time>
      </trkpt>
      <trkpt lat="44.35588" lon="6.65541">
        <ele>1695</ele>
        <time>2020-09-16T09:26:23+02:00</time>
      </trkpt>
      <trkpt lat="44.35595" lon="6.65518">
        <ele>1692</ele>
        <time>2020-09-16T09:26:43+02:00</time>
      </trkpt>
      <trkpt lat="44.35602" lon="6.65499">
        <ele>1689</ele>
        <time>2020-09-16T09:26:58+02:00</time>
      </trkpt>
      <trkpt lat="44.35598" lon="6.65478">
        <ele>1691</ele>
        <time>2020-09-16T09:27:15+02:00</time>
      </trkpt>
      <trkpt lat="44.35589" lon="6.65449">
        <ele>1696</ele>
        <time>2020-09-16T09:27:36+02:00</time>
      </trkpt>
      <trkpt lat="44.3558" lon="6.65422">
        <ele>1704</ele>
        <time>2020-09-16T09:27:55+02:00</time>
      </trkpt>
      <trkpt lat="44.35584" lon="6.65402">
        <ele>1705</ele>
        <time>2020-09-16T09:28:12+02:00</time>
      </trkpt>
      <trkpt lat="44.35587" lon="6.65376">
        <ele>1707</ele>
        <time>2020-09-16T09:28:28+02:00</time>
      </trkpt>
      <trkpt lat="44.3558" lon="6.65357">
        <ele>1710</ele>
        <time>2020-09-16T09:28:45+02:00</time>
      </trkpt>
      <trkpt lat="44.35573" lon="6.65332">
        <ele>1712</ele>
        <time>2020-09-16T09:29:03+02:00</time>
      </trkpt>
      <trkpt lat="44.35569" lon="6.65311">
        <ele>1713</ele>
        <time>2020-09-16T09:29:18+02:00</time>
      </trkpt>
      <trkpt lat="44.35572" lon="6.65288">
        <ele>1714</ele>
        <time>2020-09-16T09:29:32+02:00</time>
      </trkpt>
      <trkpt lat="44.35576" lon="6.65278">
        <ele>1714</ele>
        <time>2020-09-16T09:29:41+02:00</time>
      </trkpt>
      <trkpt lat="44.35584" lon="6.65264">
        <ele>1713</ele>
        <time>2020-09-16T09:29:54+02:00</time>
      </trkpt>
      <trkpt lat="44.35595" lon="6.65242">
        <ele>1714</ele>
        <time>2020-09-16T09:30:11+02:00</time>
      </trkpt>
      <trkpt lat="44.35609" lon="6.65222">
        <ele>1715</ele>
        <time>2020-09-16T09:30:28+02:00</time>
      </trkpt>
      <trkpt lat="44.35624" lon="6.65213">
        <ele>1715</ele>
        <time>2020-09-16T09:30:45+02:00</time>
      </trkpt>
      <trkpt lat="44.35642" lon="6.65214">
        <ele>1709</ele>
        <time>2020-09-16T09:31:01+02:00</time>
      </trkpt>
      <trkpt lat="44.35643" lon="6.65213">
        <ele>1708</ele>
        <time>2020-09-16T09:31:02+02:00</time>
      </trkpt>
      <trkpt lat="44.3565" lon="6.65197">
        <ele>1707</ele>
        <time>2020-09-16T09:31:19+02:00</time>
      </trkpt>
      <trkpt lat="44.35647" lon="6.65178">
        <ele>1711</ele>
        <time>2020-09-16T09:31:32+02:00</time>
      </trkpt>
      <trkpt lat="44.35647" lon="6.65164">
        <ele>1713</ele>
        <time>2020-09-16T09:31:41+02:00</time>
      </trkpt>
      <trkpt lat="44.35652" lon="6.65131">
        <ele>1715</ele>
        <time>2020-09-16T09:31:58+02:00</time>
      </trkpt>
      <trkpt lat="44.35664" lon="6.6511">
        <ele>1713</ele>
        <time>2020-09-16T09:32:14+02:00</time>
      </trkpt>
      <trkpt lat="44.35674" lon="6.65095">
        <ele>1710</ele>
        <time>2020-09-16T09:32:31+02:00</time>
      </trkpt>
      <trkpt lat="44.35683" lon="6.65078">
        <ele>1708</ele>
        <time>2020-09-16T09:32:47+02:00</time>
      </trkpt>
      <trkpt lat="44.35683" lon="6.65054">
        <ele>1711</ele>
        <time>2020-09-16T09:33:05+02:00</time>
      </trkpt>
      <trkpt lat="44.3568" lon="6.65024">
        <ele>1715</ele>
        <time>2020-09-16T09:33:26+02:00</time>
      </trkpt>
      <trkpt lat="44.35681" lon="6.65012">
        <ele>1716</ele>
        <time>2020-09-16T09:33:37+02:00</time>
      </trkpt>
      <trkpt lat="44.35689" lon="6.64993">
        <ele>1715</ele>
        <time>2020-09-16T09:33:54+02:00</time>
      </trkpt>
      <trkpt lat="44.35696" lon="6.64979">
        <ele>1715</ele>
        <time>2020-09-16T09:34:06+02:00</time>
      </trkpt>
      <trkpt lat="44.35702" lon="6.64962">
        <ele>1716</ele>
        <time>2020-09-16T09:34:24+02:00</time>
      </trkpt>
      <trkpt lat="44.35699" lon="6.64961">
        <ele>1716</ele>
        <time>2020-09-16T09:34:27+02:00</time>
      </trkpt>
      <trkpt lat="44.35696" lon="6.64955">
        <ele>1718</ele>
        <time>2020-09-16T09:34:34+02:00</time>
      </trkpt>
      <trkpt lat="44.35693" lon="6.64953">
        <ele>1718</ele>
        <time>2020-09-16T09:34:56+02:00</time>
      </trkpt>
      <trkpt lat="44.35693" lon="6.64955">
        <ele>1718</ele>
        <time>2020-09-16T09:35:22+02:00</time>
      </trkpt>
      <trkpt lat="44.35692" lon="6.64957">
        <ele>1718</ele>
        <time>2020-09-16T09:35:45+02:00</time>
      </trkpt>
      <trkpt lat="44.35693" lon="6.64958">
        <ele>1718</ele>
        <time>2020-09-16T09:36:01+02:00</time>
      </trkpt>
      <trkpt lat="44.35692" lon="6.64955">
        <ele>1718</ele>
        <time>2020-09-16T09:36:28+02:00</time>
      </trkpt>
      <trkpt lat="44.3569" lon="6.64956">
        <ele>1718</ele>
        <time>2020-09-16T09:36:53+02:00</time>
      </trkpt>
      <trkpt lat="44.35691" lon="6.64955">
        <ele>1718</ele>
        <time>2020-09-16T09:37:12+02:00</time>
      </trkpt>
      <trkpt lat="44.35691" lon="6.64956">
        <ele>1718</ele>
        <time>2020-09-16T09:37:30+02:00</time>
      </trkpt>
      <trkpt lat="44.35692" lon="6.64958">
        <ele>1718</ele>
        <time>2020-09-16T09:37:54+02:00</time>
      </trkpt>
      <trkpt lat="44.35692" lon="6.64965">
        <ele>1718</ele>
        <time>2020-09-16T09:38:07+02:00</time>
      </trkpt>
      <trkpt lat="44.35694" lon="6.64967">
        <ele>1718</ele>
        <time>2020-09-16T09:38:25+02:00</time>
      </trkpt>
      <trkpt lat="44.35692" lon="6.64966">
        <ele>1718</ele>
        <time>2020-09-16T09:38:27+02:00</time>
      </trkpt>
      <trkpt lat="44.35681" lon="6.64974">
        <ele>1720</ele>
        <time>2020-09-16T09:38:44+02:00</time>
      </trkpt>
      <trkpt lat="44.35672" lon="6.64986">
        <ele>1722</ele>
        <time>2020-09-16T09:39:01+02:00</time>
      </trkpt>
      <trkpt lat="44.35666" lon="6.64992">
        <ele>1724</ele>
        <time>2020-09-16T09:39:16+02:00</time>
      </trkpt>
      <trkpt lat="44.35658" lon="6.64999">
        <ele>1728</ele>
        <time>2020-09-16T09:39:33+02:00</time>
      </trkpt>
      <trkpt lat="44.35649" lon="6.65004">
        <ele>1733</ele>
        <time>2020-09-16T09:39:50+02:00</time>
      </trkpt>
      <trkpt lat="44.35644" lon="6.65013">
        <ele>1735</ele>
        <time>2020-09-16T09:40:06+02:00</time>
      </trkpt>
      <trkpt lat="44.35634" lon="6.6501">
        <ele>1740</ele>
        <time>2020-09-16T09:40:24+02:00</time>
      </trkpt>
      <trkpt lat="44.35624" lon="6.65008">
        <ele>1744</ele>
        <time>2020-09-16T09:40:40+02:00</time>
      </trkpt>
      <trkpt lat="44.35618" lon="6.65011">
        <ele>1747</ele>
        <time>2020-09-16T09:40:55+02:00</time>
      </trkpt>
      <trkpt lat="44.3561" lon="6.65017">
        <ele>1751</ele>
        <time>2020-09-16T09:41:09+02:00</time>
      </trkpt>
      <trkpt lat="44.35602" lon="6.65029">
        <ele>1754</ele>
        <time>2020-09-16T09:41:26+02:00</time>
      </trkpt>
      <trkpt lat="44.35592" lon="6.65034">
        <ele>1758</ele>
        <time>2020-09-16T09:41:42+02:00</time>
      </trkpt>
      <trkpt lat="44.35577" lon="6.65038">
        <ele>1761</ele>
        <time>2020-09-16T09:42:00+02:00</time>
      </trkpt>
      <trkpt lat="44.35568" lon="6.65043">
        <ele>1763</ele>
        <time>2020-09-16T09:42:15+02:00</time>
      </trkpt>
      <trkpt lat="44.35561" lon="6.65049">
        <ele>1766</ele>
        <time>2020-09-16T09:42:30+02:00</time>
      </trkpt>
      <trkpt lat="44.3555" lon="6.65049">
        <ele>1766</ele>
        <time>2020-09-16T09:42:47+02:00</time>
      </trkpt>
      <trkpt lat="44.35539" lon="6.65059">
        <ele>1768</ele>
        <time>2020-09-16T09:43:05+02:00</time>
      </trkpt>
      <trkpt lat="44.35528" lon="6.65067">
        <ele>1768</ele>
        <time>2020-09-16T09:43:22+02:00</time>
      </trkpt>
      <trkpt lat="44.35521" lon="6.65074">
        <ele>1770</ele>
        <time>2020-09-16T09:43:36+02:00</time>
      </trkpt>
      <trkpt lat="44.35518" lon="6.65086">
        <ele>1770</ele>
        <time>2020-09-16T09:43:49+02:00</time>
      </trkpt>
      <trkpt lat="44.35514" lon="6.65095">
        <ele>1769</ele>
        <time>2020-09-16T09:44:03+02:00</time>
      </trkpt>
      <trkpt lat="44.35506" lon="6.65104">
        <ele>1770</ele>
        <time>2020-09-16T09:44:18+02:00</time>
      </trkpt>
      <trkpt lat="44.355" lon="6.65088">
        <ele>1776</ele>
        <time>2020-09-16T09:44:36+02:00</time>
      </trkpt>
      <trkpt lat="44.35493" lon="6.65085">
        <ele>1779</ele>
        <time>2020-09-16T09:44:51+02:00</time>
      </trkpt>
      <trkpt lat="44.35485" lon="6.65086">
        <ele>1782</ele>
        <time>2020-09-16T09:45:07+02:00</time>
      </trkpt>
      <trkpt lat="44.35475" lon="6.65087">
        <ele>1786</ele>
        <time>2020-09-16T09:45:24+02:00</time>
      </trkpt>
      <trkpt lat="44.35468" lon="6.65099">
        <ele>1788</ele>
        <time>2020-09-16T09:45:40+02:00</time>
      </trkpt>
      <trkpt lat="44.35465" lon="6.65111">
        <ele>1790</ele>
        <time>2020-09-16T09:45:57+02:00</time>
      </trkpt>
      <trkpt lat="44.35459" lon="6.65121">
        <ele>1791</ele>
        <time>2020-09-16T09:46:14+02:00</time>
      </trkpt>
      <trkpt lat="44.35449" lon="6.65125">
        <ele>1796</ele>
        <time>2020-09-16T09:46:29+02:00</time>
      </trkpt>
      <trkpt lat="44.3544" lon="6.6513">
        <ele>1800</ele>
        <time>2020-09-16T09:46:46+02:00</time>
      </trkpt>
      <trkpt lat="44.35437" lon="6.65135">
        <ele>1801</ele>
        <time>2020-09-16T09:47:03+02:00</time>
      </trkpt>
      <trkpt lat="44.35437" lon="6.65136">
        <ele>1801</ele>
        <time>2020-09-16T09:47:35+02:00</time>
      </trkpt>
      <trkpt lat="44.35435" lon="6.65138">
        <ele>1802</ele>
        <time>2020-09-16T09:48:06+02:00</time>
      </trkpt>
      <trkpt lat="44.35436" lon="6.65134">
        <ele>1801</ele>
        <time>2020-09-16T09:48:33+02:00</time>
      </trkpt>
      <trkpt lat="44.35433" lon="6.65135">
        <ele>1803</ele>
        <time>2020-09-16T09:48:51+02:00</time>
      </trkpt>
      <trkpt lat="44.35433" lon="6.65137">
        <ele>1803</ele>
        <time>2020-09-16T09:49:16+02:00</time>
      </trkpt>
      <trkpt lat="44.35429" lon="6.65149">
        <ele>1803</ele>
        <time>2020-09-16T09:49:30+02:00</time>
      </trkpt>
      <trkpt lat="44.35421" lon="6.65158">
        <ele>1807</ele>
        <time>2020-09-16T09:49:45+02:00</time>
      </trkpt>
      <trkpt lat="44.35409" lon="6.6516">
        <ele>1812</ele>
        <time>2020-09-16T09:50:01+02:00</time>
      </trkpt>
      <trkpt lat="44.354" lon="6.65164">
        <ele>1815</ele>
        <time>2020-09-16T09:50:18+02:00</time>
      </trkpt>
      <trkpt lat="44.35392" lon="6.65167">
        <ele>1819</ele>
        <time>2020-09-16T09:50:35+02:00</time>
      </trkpt>
      <trkpt lat="44.35385" lon="6.65177">
        <ele>1820</ele>
        <time>2020-09-16T09:50:52+02:00</time>
      </trkpt>
      <trkpt lat="44.35376" lon="6.65179">
        <ele>1822</ele>
        <time>2020-09-16T09:51:09+02:00</time>
      </trkpt>
      <trkpt lat="44.35365" lon="6.65173">
        <ele>1825</ele>
        <time>2020-09-16T09:51:27+02:00</time>
      </trkpt>
      <trkpt lat="44.35358" lon="6.65168">
        <ele>1829</ele>
        <time>2020-09-16T09:51:44+02:00</time>
      </trkpt>
      <trkpt lat="44.35349" lon="6.65162">
        <ele>1833</ele>
        <time>2020-09-16T09:52:01+02:00</time>
      </trkpt>
      <trkpt lat="44.35341" lon="6.65157">
        <ele>1838</ele>
        <time>2020-09-16T09:52:19+02:00</time>
      </trkpt>
      <trkpt lat="44.35332" lon="6.65154">
        <ele>1842</ele>
        <time>2020-09-16T09:52:36+02:00</time>
      </trkpt>
      <trkpt lat="44.35317" lon="6.65165">
        <ele>1850</ele>
        <time>2020-09-16T09:52:55+02:00</time>
      </trkpt>
      <trkpt lat="44.35307" lon="6.6517">
        <ele>1855</ele>
        <time>2020-09-16T09:53:15+02:00</time>
      </trkpt>
      <trkpt lat="44.35289" lon="6.65181">
        <ele>1857</ele>
        <time>2020-09-16T09:53:38+02:00</time>
      </trkpt>
      <trkpt lat="44.35271" lon="6.65192">
        <ele>1859</ele>
        <time>2020-09-16T09:53:59+02:00</time>
      </trkpt>
      <trkpt lat="44.35259" lon="6.65208">
        <ele>1859</ele>
        <time>2020-09-16T09:54:20+02:00</time>
      </trkpt>
      <trkpt lat="44.35246" lon="6.65209">
        <ele>1860</ele>
        <time>2020-09-16T09:54:37+02:00</time>
      </trkpt>
      <trkpt lat="44.3524" lon="6.65206">
        <ele>1860</ele>
        <time>2020-09-16T09:54:45+02:00</time>
      </trkpt>
      <trkpt lat="44.35232" lon="6.65206">
        <ele>1860</ele>
        <time>2020-09-16T09:55:04+02:00</time>
      </trkpt>
      <trkpt lat="44.35231" lon="6.65204">
        <ele>1859</ele>
        <time>2020-09-16T09:55:29+02:00</time>
      </trkpt>
      <trkpt lat="44.3523" lon="6.65208">
        <ele>1860</ele>
        <time>2020-09-16T09:55:48+02:00</time>
      </trkpt>
      <trkpt lat="44.35223" lon="6.65214">
        <ele>1860</ele>
        <time>2020-09-16T09:56:05+02:00</time>
      </trkpt>
      <trkpt lat="44.35216" lon="6.6521">
        <ele>1859</ele>
        <time>2020-09-16T09:56:11+02:00</time>
      </trkpt>
      <trkpt lat="44.35205" lon="6.65212">
        <ele>1859</ele>
        <time>2020-09-16T09:57:55+02:00</time>
      </trkpt>
      <trkpt lat="44.35195" lon="6.6521">
        <ele>1859</ele>
        <time>2020-09-16T09:58:18+02:00</time>
      </trkpt>
      <trkpt lat="44.3519" lon="6.6521">
        <ele>1859</ele>
        <time>2020-09-16T10:10:55+02:00</time>
      </trkpt>
      <trkpt lat="44.35182" lon="6.65209">
        <ele>1858</ele>
        <time>2020-09-16T10:11:13+02:00</time>
      </trkpt>
      <trkpt lat="44.35175" lon="6.65205">
        <ele>1857</ele>
        <time>2020-09-16T10:11:29+02:00</time>
      </trkpt>
      <trkpt lat="44.35164" lon="6.65201">
        <ele>1857</ele>
      </trkpt>
      <trkpt lat="44.35157" lon="6.65198">
        <ele>1856</ele>
      </trkpt>
      <trkpt lat="44.35155" lon="6.652">
        <ele>1856</ele>
      </trkpt>
      <trkpt lat="44.35152" lon="6.65197">
        <ele>1856</ele>
      </trkpt>
      <trkpt lat="44.35148" lon="6.65193">
        <ele>1855</ele>
        <time>2020-09-16T10:11:51+02:00</time>
      </trkpt>
      <trkpt lat="44.35141" lon="6.65191">
        <ele>1855</ele>
      </trkpt>
      <trkpt lat="44.3514" lon="6.65195">
        <ele>1855</ele>
      </trkpt>
      <trkpt lat="44.35133" lon="6.65198">
        <ele>1856</ele>
        <time>2020-09-16T10:12:12+02:00</time>
      </trkpt>
      <trkpt lat="44.35129" lon="6.65194">
        <ele>1856</ele>
        <time>2020-09-16T10:12:33+02:00</time>
      </trkpt>
      <trkpt lat="44.35128" lon="6.65181">
        <ele>1854</ele>
        <time>2020-09-16T10:12:52+02:00</time>
      </trkpt>
      <trkpt lat="44.35117" lon="6.65173">
        <ele>1855</ele>
      </trkpt>
      <trkpt lat="44.35108" lon="6.65175">
        <ele>1856</ele>
      </trkpt>
      <trkpt lat="44.351" lon="6.65175">
        <ele>1857</ele>
        <time>2020-09-16T10:13:11+02:00</time>
      </trkpt>
      <trkpt lat="44.35097" lon="6.65172">
        <ele>1857</ele>
      </trkpt>
      <trkpt lat="44.35095" lon="6.65165">
        <ele>1857</ele>
      </trkpt>
      <trkpt lat="44.35089" lon="6.65159">
        <ele>1857</ele>
        <time>2020-09-16T10:13:30+02:00</time>
      </trkpt>
      <trkpt lat="44.35079" lon="6.65151">
        <ele>1858</ele>
        <time>2020-09-16T10:13:49+02:00</time>
      </trkpt>
      <trkpt lat="44.35073" lon="6.65145">
        <ele>1858</ele>
        <time>2020-09-16T10:14:08+02:00</time>
      </trkpt>
      <trkpt lat="44.35059" lon="6.65145">
        <ele>1861</ele>
        <time>2020-09-16T10:14:31+02:00</time>
      </trkpt>
      <trkpt lat="44.35054" lon="6.65146">
        <ele>1862</ele>
        <time>2020-09-16T10:14:49+02:00</time>
      </trkpt>
      <trkpt lat="44.3505" lon="6.6515">
        <ele>1863</ele>
        <time>2020-09-16T10:15:09+02:00</time>
      </trkpt>
      <trkpt lat="44.35043" lon="6.65156">
        <ele>1865</ele>
        <time>2020-09-16T10:15:30+02:00</time>
      </trkpt>
      <trkpt lat="44.35036" lon="6.65161">
        <ele>1867</ele>
      </trkpt>
      <trkpt lat="44.35027" lon="6.65167">
        <ele>1869</ele>
        <time>2020-09-16T10:15:50+02:00</time>
      </trkpt>
      <trkpt lat="44.3502" lon="6.65168">
        <ele>1871</ele>
        <time>2020-09-16T10:16:14+02:00</time>
      </trkpt>
      <trkpt lat="44.35011" lon="6.65169">
        <ele>1872</ele>
        <time>2020-09-16T10:16:35+02:00</time>
      </trkpt>
      <trkpt lat="44.35002" lon="6.65169">
        <ele>1874</ele>
        <time>2020-09-16T10:16:58+02:00</time>
      </trkpt>
      <trkpt lat="44.34999" lon="6.65171">
        <ele>1874</ele>
        <time>2020-09-16T10:17:16+02:00</time>
      </trkpt>
      <trkpt lat="44.34995" lon="6.65171">
        <ele>1875</ele>
        <time>2020-09-16T10:17:33+02:00</time>
      </trkpt>
      <trkpt lat="44.34986" lon="6.65173">
        <ele>1877</ele>
        <time>2020-09-16T10:17:50+02:00</time>
      </trkpt>
      <trkpt lat="44.3498" lon="6.65173">
        <ele>1878</ele>
      </trkpt>
      <trkpt lat="44.3497" lon="6.65167">
        <ele>1879</ele>
      </trkpt>
      <trkpt lat="44.34963" lon="6.65161">
        <ele>1880</ele>
      </trkpt>
      <trkpt lat="44.34963" lon="6.65156">
        <ele>1880</ele>
      </trkpt>
      <trkpt lat="44.34959" lon="6.65151">
        <ele>1880</ele>
      </trkpt>
      <trkpt lat="44.3496" lon="6.65146">
        <ele>1880</ele>
      </trkpt>
      <trkpt lat="44.3496" lon="6.65143">
        <ele>1880</ele>
      </trkpt>
      <trkpt lat="44.34958" lon="6.65155">
        <ele>1880</ele>
      </trkpt>
      <trkpt lat="44.34952" lon="6.65144">
        <ele>1880</ele>
      </trkpt>
      <trkpt lat="44.34939" lon="6.65142">
        <ele>1880</ele>
      </trkpt>
      <trkpt lat="44.34935" lon="6.65149">
        <ele>1881</ele>
      </trkpt>
      <trkpt lat="44.34932" lon="6.65157">
        <ele>1881</ele>
      </trkpt>
      <trkpt lat="44.34925" lon="6.65171">
        <ele>1883</ele>
      </trkpt>
      <trkpt lat="44.34907" lon="6.65188">
        <ele>1887</ele>
      </trkpt>
      <trkpt lat="44.349" lon="6.65197">
        <ele>1888</ele>
      </trkpt>
      <trkpt lat="44.34886" lon="6.65213">
        <ele>1892</ele>
      </trkpt>
      <trkpt lat="44.34879" lon="6.65215">
        <ele>1896</ele>
      </trkpt>
      <trkpt lat="44.3487" lon="6.6522">
        <ele>1900</ele>
      </trkpt>
      <trkpt lat="44.34861" lon="6.65228">
        <ele>1905</ele>
      </trkpt>
      <trkpt lat="44.34855" lon="6.65241">
        <ele>1909</ele>
      </trkpt>
      <trkpt lat="44.34846" lon="6.65248">
        <ele>1913</ele>
      </trkpt>
      <trkpt lat="44.34839" lon="6.65249">
        <ele>1916</ele>
      </trkpt>
      <trkpt lat="44.34833" lon="6.6525">
        <ele>1918</ele>
      </trkpt>
      <trkpt lat="44.34813" lon="6.65252">
        <ele>1928</ele>
      </trkpt>
      <trkpt lat="44.348" lon="6.65254">
        <ele>1934</ele>
      </trkpt>
      <trkpt lat="44.34792" lon="6.65249">
        <ele>1939</ele>
      </trkpt>
      <trkpt lat="44.34788" lon="6.6526">
        <ele>1940</ele>
      </trkpt>
      <trkpt lat="44.34778" lon="6.65256">
        <ele>1945</ele>
      </trkpt>
      <trkpt lat="44.34774" lon="6.65266">
        <ele>1947</ele>
      </trkpt>
      <trkpt lat="44.34776" lon="6.65276">
        <ele>1944</ele>
        <time>2020-09-16T10:34:31+02:00</time>
      </trkpt>
      <trkpt lat="44.34767" lon="6.65278">
        <ele>1950</ele>
        <time>2020-09-16T10:35:11+02:00</time>
      </trkpt>
      <trkpt lat="44.34757" lon="6.65297">
        <ele>1954</ele>
        <time>2020-09-16T10:35:24+02:00</time>
      </trkpt>
      <trkpt lat="44.34754" lon="6.65287">
        <ele>1957</ele>
        <time>2020-09-16T10:35:40+02:00</time>
      </trkpt>
      <trkpt lat="44.3475" lon="6.65292">
        <ele>1959</ele>
        <time>2020-09-16T10:35:56+02:00</time>
      </trkpt>
      <trkpt lat="44.34742" lon="6.65274">
        <ele>1964</ele>
        <time>2020-09-16T10:36:17+02:00</time>
      </trkpt>
      <trkpt lat="44.34736" lon="6.65257">
        <ele>1968</ele>
        <time>2020-09-16T10:36:36+02:00</time>
      </trkpt>
      <trkpt lat="44.34736" lon="6.65257">
        <ele>1968</ele>
        <time>2020-09-16T10:36:38+02:00</time>
      </trkpt>
      <trkpt lat="44.34734" lon="6.65256">
        <ele>1969</ele>
        <time>2020-09-16T10:36:45+02:00</time>
      </trkpt>
      <trkpt lat="44.34733" lon="6.65245">
        <ele>1971</ele>
        <time>2020-09-16T10:37:06+02:00</time>
      </trkpt>
      <trkpt lat="44.34732" lon="6.6524">
        <ele>1972</ele>
        <time>2020-09-16T10:37:25+02:00</time>
      </trkpt>
      <trkpt lat="44.34732" lon="6.65224">
        <ele>1973</ele>
        <time>2020-09-16T10:37:46+02:00</time>
      </trkpt>
      <trkpt lat="44.34732" lon="6.65209">
        <ele>1974</ele>
        <time>2020-09-16T10:38:04+02:00</time>
      </trkpt>
      <trkpt lat="44.3474" lon="6.65194">
        <ele>1972</ele>
        <time>2020-09-16T10:38:23+02:00</time>
      </trkpt>
      <trkpt lat="44.34737" lon="6.65171">
        <ele>1973</ele>
        <time>2020-09-16T10:38:43+02:00</time>
      </trkpt>
      <trkpt lat="44.34743" lon="6.65149">
        <ele>1970</ele>
        <time>2020-09-16T10:39:00+02:00</time>
      </trkpt>
      <trkpt lat="44.34734" lon="6.65149">
        <ele>1972</ele>
        <time>2020-09-16T10:39:19+02:00</time>
      </trkpt>
      <trkpt lat="44.34725" lon="6.65154">
        <ele>1975</ele>
        <time>2020-09-16T10:39:35+02:00</time>
      </trkpt>
      <trkpt lat="44.34715" lon="6.65164">
        <ele>1978</ele>
        <time>2020-09-16T10:39:55+02:00</time>
      </trkpt>
      <trkpt lat="44.34701" lon="6.65167">
        <ele>1982</ele>
        <time>2020-09-16T10:40:10+02:00</time>
      </trkpt>
      <trkpt lat="44.34686" lon="6.65175">
        <ele>1986</ele>
        <time>2020-09-16T10:40:26+02:00</time>
      </trkpt>
      <trkpt lat="44.34671" lon="6.65175">
        <ele>1988</ele>
        <time>2020-09-16T10:40:47+02:00</time>
      </trkpt>
      <trkpt lat="44.34651" lon="6.65179">
        <ele>1989</ele>
        <time>2020-09-16T10:41:08+02:00</time>
      </trkpt>
      <trkpt lat="44.34636" lon="6.65186">
        <ele>1992</ele>
        <time>2020-09-16T10:41:30+02:00</time>
      </trkpt>
      <trkpt lat="44.34618" lon="6.65188">
        <ele>1996</ele>
        <time>2020-09-16T10:41:48+02:00</time>
      </trkpt>
      <trkpt lat="44.34604" lon="6.65184">
        <ele>1997</ele>
        <time>2020-09-16T10:42:06+02:00</time>
      </trkpt>
      <trkpt lat="44.34593" lon="6.6518">
        <ele>1998</ele>
        <time>2020-09-16T10:42:26+02:00</time>
      </trkpt>
      <trkpt lat="44.34584" lon="6.65188">
        <ele>2003</ele>
        <time>2020-09-16T10:42:44+02:00</time>
      </trkpt>
      <trkpt lat="44.34574" lon="6.65195">
        <ele>2006</ele>
        <time>2020-09-16T10:43:01+02:00</time>
      </trkpt>
      <trkpt lat="44.34559" lon="6.65198">
        <ele>2009</ele>
        <time>2020-09-16T10:43:20+02:00</time>
      </trkpt>
      <trkpt lat="44.34544" lon="6.65199">
        <ele>2011</ele>
        <time>2020-09-16T10:43:41+02:00</time>
      </trkpt>
      <trkpt lat="44.34534" lon="6.65209">
        <ele>2015</ele>
        <time>2020-09-16T10:43:59+02:00</time>
      </trkpt>
      <trkpt lat="44.34524" lon="6.65207">
        <ele>2015</ele>
        <time>2020-09-16T10:44:17+02:00</time>
      </trkpt>
      <trkpt lat="44.34511" lon="6.6521">
        <ele>2017</ele>
        <time>2020-09-16T10:44:40+02:00</time>
      </trkpt>
      <trkpt lat="44.34507" lon="6.65219">
        <ele>2020</ele>
        <time>2020-09-16T10:45:00+02:00</time>
      </trkpt>
      <trkpt lat="44.34489" lon="6.65229">
        <ele>2024</ele>
        <time>2020-09-16T10:45:22+02:00</time>
      </trkpt>
      <trkpt lat="44.34484" lon="6.65239">
        <ele>2027</ele>
        <time>2020-09-16T10:45:40+02:00</time>
      </trkpt>
      <trkpt lat="44.34475" lon="6.65242">
        <ele>2027</ele>
        <time>2020-09-16T10:45:59+02:00</time>
      </trkpt>
      <trkpt lat="44.34465" lon="6.65243">
        <ele>2027</ele>
        <time>2020-09-16T10:46:17+02:00</time>
      </trkpt>
      <trkpt lat="44.34455" lon="6.65249">
        <ele>2029</ele>
        <time>2020-09-16T10:46:38+02:00</time>
      </trkpt>
      <trkpt lat="44.34446" lon="6.65258">
        <ele>2031</ele>
        <time>2020-09-16T10:46:54+02:00</time>
      </trkpt>
      <trkpt lat="44.34433" lon="6.65275">
        <ele>2036</ele>
        <time>2020-09-16T10:47:12+02:00</time>
      </trkpt>
      <trkpt lat="44.34419" lon="6.65288">
        <ele>2041</ele>
        <time>2020-09-16T10:47:30+02:00</time>
      </trkpt>
      <trkpt lat="44.34406" lon="6.65286">
        <ele>2043</ele>
        <time>2020-09-16T10:47:48+02:00</time>
      </trkpt>
      <trkpt lat="44.34401" lon="6.65281">
        <ele>2042</ele>
        <time>2020-09-16T10:48:15+02:00</time>
      </trkpt>
      <trkpt lat="44.34407" lon="6.65279">
        <ele>2040</ele>
        <time>2020-09-16T10:48:39+02:00</time>
      </trkpt>
      <trkpt lat="44.34408" lon="6.6528">
        <ele>2040</ele>
        <time>2020-09-16T10:49:13+02:00</time>
      </trkpt>
      <trkpt lat="44.34409" lon="6.65277">
        <ele>2039</ele>
        <time>2020-09-16T10:49:33+02:00</time>
      </trkpt>
      <trkpt lat="44.34408" lon="6.65275">
        <ele>2039</ele>
        <time>2020-09-16T10:50:00+02:00</time>
      </trkpt>
      <trkpt lat="44.34402" lon="6.6528">
        <ele>2042</ele>
        <time>2020-09-16T10:50:24+02:00</time>
      </trkpt>
      <trkpt lat="44.34392" lon="6.65268">
        <ele>2039</ele>
        <time>2020-09-16T10:50:41+02:00</time>
      </trkpt>
      <trkpt lat="44.34381" lon="6.65275">
        <ele>2045</ele>
        <time>2020-09-16T10:50:58+02:00</time>
      </trkpt>
      <trkpt lat="44.34378" lon="6.65276">
        <ele>2046</ele>
        <time>2020-09-16T10:51:04+02:00</time>
      </trkpt>
      <trkpt lat="44.34368" lon="6.65273">
        <ele>2047</ele>
        <time>2020-09-16T10:51:24+02:00</time>
      </trkpt>
      <trkpt lat="44.34356" lon="6.65265">
        <ele>2047</ele>
        <time>2020-09-16T10:51:44+02:00</time>
      </trkpt>
      <trkpt lat="44.34345" lon="6.65259">
        <ele>2048</ele>
        <time>2020-09-16T10:52:00+02:00</time>
      </trkpt>
      <trkpt lat="44.34333" lon="6.65248">
        <ele>2050</ele>
        <time>2020-09-16T10:52:20+02:00</time>
      </trkpt>
      <trkpt lat="44.34317" lon="6.65241">
        <ele>2051</ele>
        <time>2020-09-16T10:52:41+02:00</time>
      </trkpt>
      <trkpt lat="44.34303" lon="6.6524">
        <ele>2053</ele>
        <time>2020-09-16T10:53:00+02:00</time>
      </trkpt>
      <trkpt lat="44.34287" lon="6.65229">
        <ele>2054</ele>
        <time>2020-09-16T10:53:18+02:00</time>
      </trkpt>
      <trkpt lat="44.3427" lon="6.65217">
        <ele>2056</ele>
        <time>2020-09-16T10:53:39+02:00</time>
      </trkpt>
      <trkpt lat="44.3427" lon="6.65198">
        <ele>2056</ele>
        <time>2020-09-16T10:53:56+02:00</time>
      </trkpt>
      <trkpt lat="44.34263" lon="6.65173">
        <ele>2056</ele>
        <time>2020-09-16T10:54:19+02:00</time>
      </trkpt>
      <trkpt lat="44.34251" lon="6.65155">
        <ele>2059</ele>
        <time>2020-09-16T10:54:39+02:00</time>
      </trkpt>
      <trkpt lat="44.34244" lon="6.65137">
        <ele>2058</ele>
        <time>2020-09-16T10:54:59+02:00</time>
      </trkpt>
      <trkpt lat="44.34241" lon="6.65135">
        <ele>2058</ele>
        <time>2020-09-16T10:55:13+02:00</time>
      </trkpt>
      <trkpt lat="44.34242" lon="6.65131">
        <ele>2058</ele>
        <time>2020-09-16T10:55:29+02:00</time>
      </trkpt>
      <trkpt lat="44.34239" lon="6.65136">
        <ele>2059</ele>
        <time>2020-09-16T10:55:52+02:00</time>
      </trkpt>
      <trkpt lat="44.34236" lon="6.6514">
        <ele>2060</ele>
        <time>2020-09-16T10:56:16+02:00</time>
      </trkpt>
      <trkpt lat="44.34235" lon="6.6514">
        <ele>2060</ele>
        <time>2020-09-16T10:56:18+02:00</time>
      </trkpt>
      <trkpt lat="44.34219" lon="6.65149">
        <ele>2065</ele>
        <time>2020-09-16T10:56:37+02:00</time>
      </trkpt>
      <trkpt lat="44.34209" lon="6.65159">
        <ele>2069</ele>
        <time>2020-09-16T10:56:54+02:00</time>
      </trkpt>
      <trkpt lat="44.34202" lon="6.65167">
        <ele>2072</ele>
        <time>2020-09-16T10:57:14+02:00</time>
      </trkpt>
      <trkpt lat="44.34212" lon="6.65183">
        <ele>2072</ele>
        <time>2020-09-16T10:57:34+02:00</time>
      </trkpt>
      <trkpt lat="44.34214" lon="6.65193">
        <ele>2074</ele>
        <time>2020-09-16T10:57:54+02:00</time>
      </trkpt>
      <trkpt lat="44.34203" lon="6.65186">
        <ele>2076</ele>
        <time>2020-09-16T10:58:14+02:00</time>
      </trkpt>
      <trkpt lat="44.34198" lon="6.65201">
        <ele>2080</ele>
        <time>2020-09-16T10:58:34+02:00</time>
      </trkpt>
      <trkpt lat="44.34186" lon="6.65205">
        <ele>2085</ele>
        <time>2020-09-16T10:58:54+02:00</time>
      </trkpt>
      <trkpt lat="44.34167" lon="6.65207">
        <ele>2092</ele>
        <time>2020-09-16T10:59:15+02:00</time>
      </trkpt>
      <trkpt lat="44.34154" lon="6.65208">
        <ele>2096</ele>
        <time>2020-09-16T10:59:34+02:00</time>
      </trkpt>
      <trkpt lat="44.34162" lon="6.65235">
        <ele>2099</ele>
        <time>2020-09-16T10:59:55+02:00</time>
      </trkpt>
      <trkpt lat="44.34171" lon="6.6525">
        <ele>2099</ele>
        <time>2020-09-16T11:00:12+02:00</time>
      </trkpt>
      <trkpt lat="44.34174" lon="6.65273">
        <ele>2103</ele>
        <time>2020-09-16T11:00:33+02:00</time>
      </trkpt>
      <trkpt lat="44.34176" lon="6.65283">
        <ele>2105</ele>
        <time>2020-09-16T11:00:51+02:00</time>
      </trkpt>
      <trkpt lat="44.3417" lon="6.65281">
        <ele>2107</ele>
        <time>2020-09-16T11:01:06+02:00</time>
      </trkpt>
      <trkpt lat="44.3416" lon="6.65277">
        <ele>2110</ele>
        <time>2020-09-16T11:01:23+02:00</time>
      </trkpt>
      <trkpt lat="44.34145" lon="6.65276">
        <ele>2116</ele>
        <time>2020-09-16T11:01:42+02:00</time>
      </trkpt>
      <trkpt lat="44.34131" lon="6.65277">
        <ele>2122</ele>
        <time>2020-09-16T11:02:01+02:00</time>
      </trkpt>
      <trkpt lat="44.34122" lon="6.65279">
        <ele>2125</ele>
        <time>2020-09-16T11:02:18+02:00</time>
      </trkpt>
      <trkpt lat="44.34117" lon="6.65284">
        <ele>2128</ele>
        <time>2020-09-16T11:02:36+02:00</time>
      </trkpt>
      <trkpt lat="44.34129" lon="6.65299">
        <ele>2128</ele>
        <time>2020-09-16T11:02:54+02:00</time>
      </trkpt>
      <trkpt lat="44.34137" lon="6.65318">
        <ele>2131</ele>
        <time>2020-09-16T11:03:18+02:00</time>
      </trkpt>
      <trkpt lat="44.3414" lon="6.65332">
        <ele>2134</ele>
        <time>2020-09-16T11:03:39+02:00</time>
      </trkpt>
      <trkpt lat="44.34124" lon="6.65324">
        <ele>2138</ele>
        <time>2020-09-16T11:04:02+02:00</time>
      </trkpt>
      <trkpt lat="44.34105" lon="6.65322">
        <ele>2144</ele>
        <time>2020-09-16T11:04:26+02:00</time>
      </trkpt>
      <trkpt lat="44.34105" lon="6.65322">
        <ele>2144</ele>
        <time>2020-09-16T11:04:28+02:00</time>
      </trkpt>
      <trkpt lat="44.34101" lon="6.6532">
        <ele>2144</ele>
        <time>2020-09-16T11:04:34+02:00</time>
      </trkpt>
      <trkpt lat="44.3409" lon="6.65315">
        <ele>2147</ele>
        <time>2020-09-16T11:04:54+02:00</time>
      </trkpt>
      <trkpt lat="44.34098" lon="6.65329">
        <ele>2149</ele>
        <time>2020-09-16T11:05:12+02:00</time>
      </trkpt>
      <trkpt lat="44.34103" lon="6.65348">
        <ele>2152</ele>
        <time>2020-09-16T11:05:33+02:00</time>
      </trkpt>
      <trkpt lat="44.34107" lon="6.65363">
        <ele>2155</ele>
        <time>2020-09-16T11:05:51+02:00</time>
      </trkpt>
      <trkpt lat="44.34113" lon="6.6538">
        <ele>2157</ele>
        <time>2020-09-16T11:06:12+02:00</time>
      </trkpt>
      <trkpt lat="44.34115" lon="6.65396">
        <ele>2160</ele>
        <time>2020-09-16T11:06:31+02:00</time>
      </trkpt>
      <trkpt lat="44.34111" lon="6.65396">
        <ele>2162</ele>
        <time>2020-09-16T11:06:48+02:00</time>
      </trkpt>
      <trkpt lat="44.34097" lon="6.65394">
        <ele>2168</ele>
        <time>2020-09-16T11:07:06+02:00</time>
      </trkpt>
      <trkpt lat="44.34083" lon="6.6539">
        <ele>2172</ele>
        <time>2020-09-16T11:07:25+02:00</time>
      </trkpt>
      <trkpt lat="44.34071" lon="6.65388">
        <ele>2176</ele>
        <time>2020-09-16T11:07:43+02:00</time>
      </trkpt>
      <trkpt lat="44.34059" lon="6.65384">
        <ele>2178</ele>
        <time>2020-09-16T11:08:01+02:00</time>
      </trkpt>
      <trkpt lat="44.34049" lon="6.65379">
        <ele>2180</ele>
        <time>2020-09-16T11:08:20+02:00</time>
      </trkpt>
      <trkpt lat="44.34039" lon="6.65378">
        <ele>2183</ele>
        <time>2020-09-16T11:08:41+02:00</time>
      </trkpt>
      <trkpt lat="44.34042" lon="6.65389">
        <ele>2186</ele>
        <time>2020-09-16T11:08:57+02:00</time>
      </trkpt>
      <trkpt lat="44.34046" lon="6.65393">
        <ele>2186</ele>
        <time>2020-09-16T11:09:17+02:00</time>
      </trkpt>
      <trkpt lat="44.34046" lon="6.65395">
        <ele>2187</ele>
        <time>2020-09-16T11:09:41+02:00</time>
      </trkpt>
      <trkpt lat="44.34039" lon="6.65405">
        <ele>2193</ele>
        <time>2020-09-16T11:10:06+02:00</time>
      </trkpt>
      <trkpt lat="44.34046" lon="6.6539">
        <ele>2185</ele>
        <time>2020-09-16T11:10:28+02:00</time>
      </trkpt>
      <trkpt lat="44.34043" lon="6.65395">
        <ele>2188</ele>
        <time>2020-09-16T11:10:52+02:00</time>
      </trkpt>
      <trkpt lat="44.34043" lon="6.65395">
        <ele>2188</ele>
        <time>2020-09-16T11:11:17+02:00</time>
      </trkpt>
      <trkpt lat="44.3404" lon="6.65398">
        <ele>2190</ele>
        <time>2020-09-16T11:11:21+02:00</time>
      </trkpt>
      <trkpt lat="44.34042" lon="6.65399">
        <ele>2190</ele>
        <time>2020-09-16T11:11:43+02:00</time>
      </trkpt>
      <trkpt lat="44.34043" lon="6.65397">
        <ele>2188</ele>
        <time>2020-09-16T11:12:19+02:00</time>
      </trkpt>
      <trkpt lat="44.34044" lon="6.65401">
        <ele>2190</ele>
        <time>2020-09-16T11:12:54+02:00</time>
      </trkpt>
      <trkpt lat="44.34047" lon="6.65396">
        <ele>2187</ele>
        <time>2020-09-16T11:13:22+02:00</time>
      </trkpt>
      <trkpt lat="44.34051" lon="6.65404">
        <ele>2188</ele>
        <time>2020-09-16T11:13:40+02:00</time>
      </trkpt>
      <trkpt lat="44.34048" lon="6.65413">
        <ele>2193</ele>
        <time>2020-09-16T11:13:58+02:00</time>
      </trkpt>
      <trkpt lat="44.34036" lon="6.65408">
        <ele>2195</ele>
        <time>2020-09-16T11:14:18+02:00</time>
      </trkpt>
      <trkpt lat="44.34043" lon="6.65423">
        <ele>2198</ele>
        <time>2020-09-16T11:14:35+02:00</time>
      </trkpt>
      <trkpt lat="44.3405" lon="6.65438">
        <ele>2200</ele>
        <time>2020-09-16T11:14:55+02:00</time>
      </trkpt>
      <trkpt lat="44.34057" lon="6.65452">
        <ele>2202</ele>
        <time>2020-09-16T11:15:12+02:00</time>
      </trkpt>
      <trkpt lat="44.34063" lon="6.65466">
        <ele>2204</ele>
        <time>2020-09-16T11:15:31+02:00</time>
      </trkpt>
      <trkpt lat="44.34069" lon="6.65484">
        <ele>2206</ele>
        <time>2020-09-16T11:15:51+02:00</time>
      </trkpt>
      <trkpt lat="44.34061" lon="6.65483">
        <ele>2210</ele>
        <time>2020-09-16T11:16:09+02:00</time>
      </trkpt>
      <trkpt lat="44.34049" lon="6.65478">
        <ele>2214</ele>
        <time>2020-09-16T11:16:27+02:00</time>
      </trkpt>
      <trkpt lat="44.34038" lon="6.65473">
        <ele>2216</ele>
        <time>2020-09-16T11:16:45+02:00</time>
      </trkpt>
      <trkpt lat="44.34036" lon="6.65479">
        <ele>2219</ele>
        <time>2020-09-16T11:17:03+02:00</time>
      </trkpt>
      <trkpt lat="44.34043" lon="6.65491">
        <ele>2220</ele>
        <time>2020-09-16T11:17:20+02:00</time>
      </trkpt>
      <trkpt lat="44.34047" lon="6.65505">
        <ele>2222</ele>
        <time>2020-09-16T11:17:39+02:00</time>
      </trkpt>
      <trkpt lat="44.34045" lon="6.65514">
        <ele>2227</ele>
        <time>2020-09-16T11:17:56+02:00</time>
      </trkpt>
      <trkpt lat="44.34045" lon="6.6553">
        <ele>2232</ele>
        <time>2020-09-16T11:18:13+02:00</time>
      </trkpt>
      <trkpt lat="44.34044" lon="6.65536">
        <ele>2235</ele>
        <time>2020-09-16T11:18:31+02:00</time>
      </trkpt>
      <trkpt lat="44.34046" lon="6.65536">
        <ele>2234</ele>
        <time>2020-09-16T11:18:57+02:00</time>
      </trkpt>
      <trkpt lat="44.34048" lon="6.65548">
        <ele>2236</ele>
        <time>2020-09-16T11:19:12+02:00</time>
      </trkpt>
      <trkpt lat="44.34053" lon="6.65552">
        <ele>2235</ele>
        <time>2020-09-16T11:19:29+02:00</time>
      </trkpt>
      <trkpt lat="44.34054" lon="6.65553">
        <ele>2234</ele>
        <time>2020-09-16T11:19:55+02:00</time>
      </trkpt>
      <trkpt lat="44.34053" lon="6.65556">
        <ele>2236</ele>
        <time>2020-09-16T11:20:25+02:00</time>
      </trkpt>
      <trkpt lat="44.34057" lon="6.65558">
        <ele>2234</ele>
        <time>2020-09-16T11:20:55+02:00</time>
      </trkpt>
      <trkpt lat="44.34057" lon="6.65573">
        <ele>2239</ele>
        <time>2020-09-16T11:21:12+02:00</time>
      </trkpt>
      <trkpt lat="44.34057" lon="6.65584">
        <ele>2243</ele>
        <time>2020-09-16T11:21:29+02:00</time>
      </trkpt>
      <trkpt lat="44.34058" lon="6.6559">
        <ele>2246</ele>
        <time>2020-09-16T11:21:50+02:00</time>
      </trkpt>
      <trkpt lat="44.3406" lon="6.65588">
        <ele>2245</ele>
        <time>2020-09-16T11:22:11+02:00</time>
      </trkpt>
      <trkpt lat="44.3407" lon="6.65587">
        <ele>2242</ele>
        <time>2020-09-16T11:22:28+02:00</time>
      </trkpt>
      <trkpt lat="44.34079" lon="6.65586">
        <ele>2239</ele>
        <time>2020-09-16T11:22:44+02:00</time>
      </trkpt>
      <trkpt lat="44.3408" lon="6.65585">
        <ele>2238</ele>
        <time>2020-09-16T11:22:46+02:00</time>
      </trkpt>
      <trkpt lat="44.34092" lon="6.65586">
        <ele>2239</ele>
        <time>2020-09-16T11:23:05+02:00</time>
      </trkpt>
      <trkpt lat="44.34101" lon="6.6559">
        <ele>2243</ele>
        <time>2020-09-16T11:23:23+02:00</time>
      </trkpt>
      <trkpt lat="44.34109" lon="6.65592">
        <ele>2247</ele>
        <time>2020-09-16T11:23:40+02:00</time>
      </trkpt>
      <trkpt lat="44.34116" lon="6.65593">
        <ele>2248</ele>
        <time>2020-09-16T11:23:58+02:00</time>
      </trkpt>
      <trkpt lat="44.34127" lon="6.65591">
        <ele>2248</ele>
        <time>2020-09-16T11:24:16+02:00</time>
      </trkpt>
      <trkpt lat="44.34137" lon="6.65586">
        <ele>2246</ele>
        <time>2020-09-16T11:24:34+02:00</time>
      </trkpt>
      <trkpt lat="44.34148" lon="6.6559">
        <ele>2250</ele>
        <time>2020-09-16T11:24:50+02:00</time>
      </trkpt>
      <trkpt lat="44.34161" lon="6.65602">
        <ele>2256</ele>
        <time>2020-09-16T11:25:10+02:00</time>
      </trkpt>
      <trkpt lat="44.34176" lon="6.65616">
        <ele>2260</ele>
        <time>2020-09-16T11:25:33+02:00</time>
      </trkpt>
      <trkpt lat="44.34191" lon="6.6562">
        <ele>2258</ele>
        <time>2020-09-16T11:25:51+02:00</time>
      </trkpt>
      <trkpt lat="44.3419" lon="6.65628">
        <ele>2261</ele>
        <time>2020-09-16T11:26:11+02:00</time>
      </trkpt>
      <trkpt lat="44.34177" lon="6.65628">
        <ele>2264</ele>
        <time>2020-09-16T11:26:28+02:00</time>
      </trkpt>
      <trkpt lat="44.34162" lon="6.65631">
        <ele>2269</ele>
        <time>2020-09-16T11:26:46+02:00</time>
      </trkpt>
      <trkpt lat="44.34148" lon="6.65626">
        <ele>2270</ele>
        <time>2020-09-16T11:27:07+02:00</time>
      </trkpt>
      <trkpt lat="44.34155" lon="6.65641">
        <ele>2275</ele>
        <time>2020-09-16T11:27:26+02:00</time>
      </trkpt>
      <trkpt lat="44.3416" lon="6.65654">
        <ele>2278</ele>
        <time>2020-09-16T11:27:45+02:00</time>
      </trkpt>
      <trkpt lat="44.34148" lon="6.65647">
        <ele>2279</ele>
        <time>2020-09-16T11:28:03+02:00</time>
      </trkpt>
      <trkpt lat="44.34129" lon="6.65639">
        <ele>2280</ele>
        <time>2020-09-16T11:28:29+02:00</time>
      </trkpt>
      <trkpt lat="44.34112" lon="6.6564">
        <ele>2282</ele>
        <time>2020-09-16T11:28:52+02:00</time>
      </trkpt>
      <trkpt lat="44.34107" lon="6.65643">
        <ele>2284</ele>
        <time>2020-09-16T11:29:14+02:00</time>
      </trkpt>
      <trkpt lat="44.34117" lon="6.65653">
        <ele>2290</ele>
        <time>2020-09-16T11:29:32+02:00</time>
      </trkpt>
      <trkpt lat="44.34123" lon="6.65665">
        <ele>2295</ele>
        <time>2020-09-16T11:29:50+02:00</time>
      </trkpt>
      <trkpt lat="44.34115" lon="6.6567">
        <ele>2301</ele>
        <time>2020-09-16T11:30:07+02:00</time>
      </trkpt>
      <trkpt lat="44.34127" lon="6.6568">
        <ele>2301</ele>
        <time>2020-09-16T11:30:30+02:00</time>
      </trkpt>
      <trkpt lat="44.34133" lon="6.65693">
        <ele>2305</ele>
        <time>2020-09-16T11:30:51+02:00</time>
      </trkpt>
      <trkpt lat="44.34123" lon="6.65687">
        <ele>2307</ele>
        <time>2020-09-16T11:31:11+02:00</time>
      </trkpt>
      <trkpt lat="44.34129" lon="6.65705">
        <ele>2312</ele>
        <time>2020-09-16T11:31:30+02:00</time>
      </trkpt>
      <trkpt lat="44.34134" lon="6.65716">
        <ele>2314</ele>
        <time>2020-09-16T11:31:50+02:00</time>
      </trkpt>
      <trkpt lat="44.3412" lon="6.65709">
        <ele>2319</ele>
        <time>2020-09-16T11:32:09+02:00</time>
      </trkpt>
      <trkpt lat="44.3412" lon="6.65716">
        <ele>2321</ele>
        <time>2020-09-16T11:32:25+02:00</time>
      </trkpt>
      <trkpt lat="44.3412" lon="6.65722">
        <ele>2323</ele>
        <time>2020-09-16T11:32:43+02:00</time>
      </trkpt>
      <trkpt lat="44.34109" lon="6.65709">
        <ele>2324</ele>
        <time>2020-09-16T11:33:01+02:00</time>
      </trkpt>
      <trkpt lat="44.3411" lon="6.65721">
        <ele>2328</ele>
        <time>2020-09-16T11:33:16+02:00</time>
      </trkpt>
      <trkpt lat="44.34114" lon="6.65739">
        <ele>2331</ele>
        <time>2020-09-16T11:33:35+02:00</time>
      </trkpt>
      <trkpt lat="44.34106" lon="6.65732">
        <ele>2333</ele>
        <time>2020-09-16T11:33:50+02:00</time>
      </trkpt>
      <trkpt lat="44.34095" lon="6.65718">
        <ele>2333</ele>
        <time>2020-09-16T11:34:09+02:00</time>
      </trkpt>
      <trkpt lat="44.34085" lon="6.65715">
        <ele>2335</ele>
        <time>2020-09-16T11:34:27+02:00</time>
      </trkpt>
      <trkpt lat="44.34087" lon="6.65717">
        <ele>2335</ele>
        <time>2020-09-16T11:34:51+02:00</time>
      </trkpt>
      <trkpt lat="44.34089" lon="6.65735">
        <ele>2341</ele>
        <time>2020-09-16T11:35:07+02:00</time>
      </trkpt>
      <trkpt lat="44.34091" lon="6.65759">
        <ele>2346</ele>
        <time>2020-09-16T11:35:26+02:00</time>
      </trkpt>
      <trkpt lat="44.34089" lon="6.65764">
        <ele>2348</ele>
        <time>2020-09-16T11:35:42+02:00</time>
      </trkpt>
      <trkpt lat="44.34089" lon="6.65764">
        <ele>2348</ele>
        <time>2020-09-16T11:36:04+02:00</time>
      </trkpt>
      <trkpt lat="44.34082" lon="6.65767">
        <ele>2352</ele>
        <time>2020-09-16T11:36:22+02:00</time>
      </trkpt>
      <trkpt lat="44.34078" lon="6.65768">
        <ele>2355</ele>
        <time>2020-09-16T11:36:35+02:00</time>
      </trkpt>
      <trkpt lat="44.34077" lon="6.65764">
        <ele>2354</ele>
        <time>2020-09-16T11:36:54+02:00</time>
      </trkpt>
      <trkpt lat="44.34078" lon="6.65761">
        <ele>2353</ele>
        <time>2020-09-16T11:37:19+02:00</time>
      </trkpt>
      <trkpt lat="44.34082" lon="6.6576">
        <ele>2350</ele>
        <time>2020-09-16T11:37:45+02:00</time>
      </trkpt>
      <trkpt lat="44.34079" lon="6.6576">
        <ele>2352</ele>
        <time>2020-09-16T11:38:09+02:00</time>
      </trkpt>
      <trkpt lat="44.34078" lon="6.65759">
        <ele>2352</ele>
        <time>2020-09-16T11:38:38+02:00</time>
      </trkpt>
      <trkpt lat="44.34076" lon="6.65759">
        <ele>2354</ele>
        <time>2020-09-16T11:38:45+02:00</time>
      </trkpt>
      <trkpt lat="44.34071" lon="6.65757">
        <ele>2355</ele>
        <time>2020-09-16T11:38:51+02:00</time>
      </trkpt>
      <trkpt lat="44.3406" lon="6.65747">
        <ele>2357</ele>
        <time>2020-09-16T11:39:07+02:00</time>
      </trkpt>
      <trkpt lat="44.34054" lon="6.65747">
        <ele>2360</ele>
        <time>2020-09-16T11:39:27+02:00</time>
      </trkpt>
      <trkpt lat="44.34059" lon="6.65769">
        <ele>2366</ele>
        <time>2020-09-16T11:39:46+02:00</time>
      </trkpt>
      <trkpt lat="44.34062" lon="6.65791">
        <ele>2370</ele>
        <time>2020-09-16T11:40:06+02:00</time>
      </trkpt>
      <trkpt lat="44.34064" lon="6.65812">
        <ele>2374</ele>
        <time>2020-09-16T11:40:24+02:00</time>
      </trkpt>
      <trkpt lat="44.34058" lon="6.65808">
        <ele>2376</ele>
        <time>2020-09-16T11:40:40+02:00</time>
      </trkpt>
      <trkpt lat="44.34048" lon="6.65794">
        <ele>2378</ele>
        <time>2020-09-16T11:40:58+02:00</time>
      </trkpt>
      <trkpt lat="44.3404" lon="6.65784">
        <ele>2380</ele>
        <time>2020-09-16T11:41:15+02:00</time>
      </trkpt>
      <trkpt lat="44.34029" lon="6.65773">
        <ele>2380</ele>
        <time>2020-09-16T11:41:33+02:00</time>
      </trkpt>
      <trkpt lat="44.3403" lon="6.65787">
        <ele>2386</ele>
        <time>2020-09-16T11:41:49+02:00</time>
      </trkpt>
      <trkpt lat="44.34034" lon="6.65805">
        <ele>2390</ele>
        <time>2020-09-16T11:42:09+02:00</time>
      </trkpt>
      <trkpt lat="44.34037" lon="6.65824">
        <ele>2393</ele>
        <time>2020-09-16T11:42:27+02:00</time>
      </trkpt>
      <trkpt lat="44.34034" lon="6.65845">
        <ele>2401</ele>
        <time>2020-09-16T11:42:43+02:00</time>
      </trkpt>
      <trkpt lat="44.34037" lon="6.65862">
        <ele>2404</ele>
        <time>2020-09-16T11:43:01+02:00</time>
      </trkpt>
      <trkpt lat="44.34044" lon="6.65877">
        <ele>2405</ele>
        <time>2020-09-16T11:43:20+02:00</time>
      </trkpt>
      <trkpt lat="44.34048" lon="6.65891">
        <ele>2408</ele>
        <time>2020-09-16T11:43:39+02:00</time>
      </trkpt>
      <trkpt lat="44.34054" lon="6.65906">
        <ele>2412</ele>
        <time>2020-09-16T11:43:57+02:00</time>
      </trkpt>
      <trkpt lat="44.34048" lon="6.65904">
        <ele>2413</ele>
        <time>2020-09-16T11:44:14+02:00</time>
      </trkpt>
      <trkpt lat="44.34034" lon="6.65892">
        <ele>2415</ele>
        <time>2020-09-16T11:44:31+02:00</time>
      </trkpt>
      <trkpt lat="44.34024" lon="6.65884">
        <ele>2417</ele>
        <time>2020-09-16T11:44:46+02:00</time>
      </trkpt>
      <trkpt lat="44.34025" lon="6.65893">
        <ele>2419</ele>
        <time>2020-09-16T11:45:02+02:00</time>
      </trkpt>
      <trkpt lat="44.34032" lon="6.65914">
        <ele>2422</ele>
        <time>2020-09-16T11:45:22+02:00</time>
      </trkpt>
      <trkpt lat="44.34036" lon="6.65927">
        <ele>2426</ele>
        <time>2020-09-16T11:45:36+02:00</time>
      </trkpt>
      <trkpt lat="44.34038" lon="6.6593">
        <ele>2427</ele>
        <time>2020-09-16T11:45:55+02:00</time>
      </trkpt>
      <trkpt lat="44.34027" lon="6.65921">
        <ele>2426</ele>
        <time>2020-09-16T11:46:11+02:00</time>
      </trkpt>
      <trkpt lat="44.34025" lon="6.65915">
        <ele>2425</ele>
        <time>2020-09-16T11:46:29+02:00</time>
      </trkpt>
      <trkpt lat="44.34025" lon="6.65913">
        <ele>2424</ele>
        <time>2020-09-16T11:46:52+02:00</time>
      </trkpt>
      <trkpt lat="44.34023" lon="6.65913">
        <ele>2425</ele>
        <time>2020-09-16T11:47:17+02:00</time>
      </trkpt>
      <trkpt lat="44.34017" lon="6.65908">
        <ele>2427</ele>
        <time>2020-09-16T11:47:34+02:00</time>
      </trkpt>
      <trkpt lat="44.3401" lon="6.65912">
        <ele>2430</ele>
        <time>2020-09-16T11:47:52+02:00</time>
      </trkpt>
      <trkpt lat="44.34021" lon="6.6593">
        <ele>2431</ele>
        <time>2020-09-16T11:48:16+02:00</time>
      </trkpt>
      <trkpt lat="44.34016" lon="6.65933">
        <ele>2434</ele>
        <time>2020-09-16T11:48:32+02:00</time>
      </trkpt>
      <trkpt lat="44.33999" lon="6.65925">
        <ele>2440</ele>
        <time>2020-09-16T11:48:55+02:00</time>
      </trkpt>
      <trkpt lat="44.33986" lon="6.6592">
        <ele>2446</ele>
        <time>2020-09-16T11:49:13+02:00</time>
      </trkpt>
      <trkpt lat="44.33977" lon="6.65905">
        <ele>2445</ele>
        <time>2020-09-16T11:49:35+02:00</time>
      </trkpt>
      <trkpt lat="44.33967" lon="6.65895">
        <ele>2447</ele>
        <time>2020-09-16T11:49:54+02:00</time>
      </trkpt>
      <trkpt lat="44.33967" lon="6.65903">
        <ele>2451</ele>
        <time>2020-09-16T11:50:10+02:00</time>
      </trkpt>
      <trkpt lat="44.33969" lon="6.65919">
        <ele>2456</ele>
        <time>2020-09-16T11:50:31+02:00</time>
      </trkpt>
      <trkpt lat="44.33961" lon="6.65913">
        <ele>2459</ele>
        <time>2020-09-16T11:50:50+02:00</time>
      </trkpt>
      <trkpt lat="44.33949" lon="6.65904">
        <ele>2464</ele>
        <time>2020-09-16T11:51:08+02:00</time>
      </trkpt>
      <trkpt lat="44.33946" lon="6.659">
        <ele>2464</ele>
        <time>2020-09-16T11:51:26+02:00</time>
      </trkpt>
      <trkpt lat="44.33942" lon="6.65898">
        <ele>2467</ele>
        <time>2020-09-16T11:51:42+02:00</time>
      </trkpt>
      <trkpt lat="44.33942" lon="6.65906">
        <ele>2471</ele>
        <time>2020-09-16T11:52:00+02:00</time>
      </trkpt>
      <trkpt lat="44.33946" lon="6.65915">
        <ele>2472</ele>
        <time>2020-09-16T11:52:20+02:00</time>
      </trkpt>
      <trkpt lat="44.33944" lon="6.65923">
        <ele>2478</ele>
        <time>2020-09-16T11:52:38+02:00</time>
      </trkpt>
      <trkpt lat="44.3394" lon="6.65918">
        <ele>2479</ele>
        <time>2020-09-16T11:52:59+02:00</time>
      </trkpt>
      <trkpt lat="44.33936" lon="6.6592">
        <ele>2483</ele>
        <time>2020-09-16T11:53:19+02:00</time>
      </trkpt>
      <trkpt lat="44.33934" lon="6.65918">
        <ele>2483</ele>
        <time>2020-09-16T11:53:55+02:00</time>
      </trkpt>
      <trkpt lat="44.33934" lon="6.65923">
        <ele>2487</ele>
        <time>2020-09-16T11:54:16+02:00</time>
      </trkpt>
      <trkpt lat="44.33931" lon="6.65919">
        <ele>2486</ele>
        <time>2020-09-16T11:54:30+02:00</time>
      </trkpt>
      <trkpt lat="44.3393" lon="6.65918">
        <ele>2487</ele>
        <time>2020-09-16T11:54:54+02:00</time>
      </trkpt>
      <trkpt lat="44.33927" lon="6.65925">
        <ele>2493</ele>
        <time>2020-09-16T11:55:13+02:00</time>
      </trkpt>
      <trkpt lat="44.33925" lon="6.65924">
        <ele>2494</ele>
        <time>2020-09-16T11:55:37+02:00</time>
      </trkpt>
      <trkpt lat="44.33924" lon="6.65925">
        <ele>2495</ele>
        <time>2020-09-16T11:55:58+02:00</time>
      </trkpt>
      <trkpt lat="44.3392" lon="6.65926">
        <ele>2498</ele>
        <time>2020-09-16T11:56:16+02:00</time>
      </trkpt>
      <trkpt lat="44.33919" lon="6.65925">
        <ele>2499</ele>
        <time>2020-09-16T11:56:42+02:00</time>
      </trkpt>
      <trkpt lat="44.33919" lon="6.65926">
        <ele>2499</ele>
        <time>2020-09-16T11:57:01+02:00</time>
      </trkpt>
      <trkpt lat="44.33914" lon="6.65921">
        <ele>2500</ele>
        <time>2020-09-16T11:57:19+02:00</time>
      </trkpt>
      <trkpt lat="44.33912" lon="6.65923">
        <ele>2502</ele>
        <time>2020-09-16T11:57:34+02:00</time>
      </trkpt>
      <trkpt lat="44.33908" lon="6.6592">
        <ele>2503</ele>
        <time>2020-09-16T11:57:53+02:00</time>
      </trkpt>
      <trkpt lat="44.33901" lon="6.65917">
        <ele>2504</ele>
        <time>2020-09-16T11:58:15+02:00</time>
      </trkpt>
      <trkpt lat="44.33904" lon="6.65927">
        <ele>2507</ele>
        <time>2020-09-16T11:58:32+02:00</time>
      </trkpt>
      <trkpt lat="44.33901" lon="6.65928">
        <ele>2508</ele>
        <time>2020-09-16T11:58:55+02:00</time>
      </trkpt>
      <trkpt lat="44.33903" lon="6.65927">
        <ele>2507</ele>
        <time>2020-09-16T11:59:11+02:00</time>
      </trkpt>
      <trkpt lat="44.339" lon="6.65928">
        <ele>2508</ele>
        <time>2020-09-16T11:59:37+02:00</time>
      </trkpt>
      <trkpt lat="44.33901" lon="6.65924">
        <ele>2507</ele>
        <time>2020-09-16T11:59:56+02:00</time>
      </trkpt>
      <trkpt lat="44.33893" lon="6.6592">
        <ele>2509</ele>
        <time>2020-09-16T12:00:12+02:00</time>
      </trkpt>
      <trkpt lat="44.33894" lon="6.65932">
        <ele>2513</ele>
        <time>2020-09-16T12:00:35+02:00</time>
      </trkpt>
      <trkpt lat="44.339" lon="6.6595">
        <ele>2516</ele>
        <time>2020-09-16T12:00:52+02:00</time>
      </trkpt>
      <trkpt lat="44.33899" lon="6.65953">
        <ele>2518</ele>
        <time>2020-09-16T12:03:58+02:00</time>
      </trkpt>
      <trkpt lat="44.3389" lon="6.65949">
        <ele>2521</ele>
        <time>2020-09-16T12:04:09+02:00</time>
      </trkpt>
      <trkpt lat="44.33881" lon="6.65943">
        <ele>2521</ele>
        <time>2020-09-16T12:04:24+02:00</time>
      </trkpt>
      <trkpt lat="44.33868" lon="6.65932">
        <ele>2522</ele>
        <time>2020-09-16T12:04:44+02:00</time>
      </trkpt>
      <trkpt lat="44.33866" lon="6.65938">
        <ele>2525</ele>
        <time>2020-09-16T12:05:00+02:00</time>
      </trkpt>
      <trkpt lat="44.3387" lon="6.65957">
        <ele>2531</ele>
        <time>2020-09-16T12:05:19+02:00</time>
      </trkpt>
      <trkpt lat="44.33869" lon="6.65966">
        <ele>2535</ele>
        <time>2020-09-16T12:05:37+02:00</time>
      </trkpt>
      <trkpt lat="44.33859" lon="6.65963">
        <ele>2537</ele>
        <time>2020-09-16T12:05:55+02:00</time>
      </trkpt>
      <trkpt lat="44.3385" lon="6.65958">
        <ele>2540</ele>
        <time>2020-09-16T12:06:14+02:00</time>
      </trkpt>
      <trkpt lat="44.33843" lon="6.65951">
        <ele>2540</ele>
        <time>2020-09-16T12:06:30+02:00</time>
      </trkpt>
      <trkpt lat="44.33835" lon="6.65941">
        <ele>2540</ele>
        <time>2020-09-16T12:06:52+02:00</time>
      </trkpt>
      <trkpt lat="44.33837" lon="6.65939">
        <ele>2539</ele>
        <time>2020-09-16T12:07:13+02:00</time>
      </trkpt>
      <trkpt lat="44.33829" lon="6.65926">
        <ele>2540</ele>
        <time>2020-09-16T12:07:30+02:00</time>
      </trkpt>
      <trkpt lat="44.33823" lon="6.65908">
        <ele>2542</ele>
        <time>2020-09-16T12:07:48+02:00</time>
      </trkpt>
      <trkpt lat="44.3382" lon="6.6591">
        <ele>2544</ele>
        <time>2020-09-16T12:08:05+02:00</time>
      </trkpt>
      <trkpt lat="44.33819" lon="6.65918">
        <ele>2546</ele>
        <time>2020-09-16T12:08:21+02:00</time>
      </trkpt>
      <trkpt lat="44.33817" lon="6.6594">
        <ele>2551</ele>
        <time>2020-09-16T12:08:39+02:00</time>
      </trkpt>
      <trkpt lat="44.33818" lon="6.65948">
        <ele>2552</ele>
        <time>2020-09-16T12:08:56+02:00</time>
      </trkpt>
      <trkpt lat="44.33819" lon="6.65962">
        <ele>2555</ele>
        <time>2020-09-16T12:09:12+02:00</time>
      </trkpt>
      <trkpt lat="44.33814" lon="6.65968">
        <ele>2558</ele>
        <time>2020-09-16T12:09:28+02:00</time>
      </trkpt>
      <trkpt lat="44.33811" lon="6.65964">
        <ele>2558</ele>
        <time>2020-09-16T12:09:46+02:00</time>
      </trkpt>
      <trkpt lat="44.33813" lon="6.65977">
        <ele>2559</ele>
        <time>2020-09-16T12:10:03+02:00</time>
      </trkpt>
      <trkpt lat="44.33812" lon="6.65984">
        <ele>2559</ele>
        <time>2020-09-16T12:10:21+02:00</time>
      </trkpt>
      <trkpt lat="44.33811" lon="6.65991">
        <ele>2559</ele>
        <time>2020-09-16T12:10:38+02:00</time>
      </trkpt>
      <trkpt lat="44.3381" lon="6.65989">
        <ele>2559</ele>
        <time>2020-09-16T12:11:01+02:00</time>
      </trkpt>
      <trkpt lat="44.33804" lon="6.65989">
        <ele>2560</ele>
        <time>2020-09-16T12:11:16+02:00</time>
      </trkpt>
      <trkpt lat="44.33801" lon="6.65988">
        <ele>2560</ele>
        <time>2020-09-16T12:11:29+02:00</time>
      </trkpt>
      <trkpt lat="44.33803" lon="6.65987">
        <ele>2560</ele>
        <time>2020-09-16T12:11:44+02:00</time>
      </trkpt>
      <trkpt lat="44.33803" lon="6.65988">
        <ele>2560</ele>
        <time>2020-09-16T12:12:02+02:00</time>
      </trkpt>
      <trkpt lat="44.33804" lon="6.65988">
        <ele>2560</ele>
        <time>2020-09-16T12:12:34+02:00</time>
      </trkpt>
      <trkpt lat="44.33801" lon="6.65986">
        <ele>2560</ele>
        <time>2020-09-16T12:12:59+02:00</time>
      </trkpt>
      <trkpt lat="44.33779" lon="6.6599">
        <ele>2560</ele>
        <time>2020-09-16T12:13:20+02:00</time>
      </trkpt>
      <trkpt lat="44.33767" lon="6.6599">
        <ele>2560</ele>
        <time>2020-09-16T12:13:35+02:00</time>
      </trkpt>
      <trkpt lat="44.3375" lon="6.65996">
        <ele>2559</ele>
        <time>2020-09-16T12:13:51+02:00</time>
      </trkpt>
      <trkpt lat="44.33748" lon="6.65996">
        <ele>2559</ele>
        <time>2020-09-16T12:14:07+02:00</time>
      </trkpt>
      <trkpt lat="44.33738" lon="6.65999">
        <ele>2560</ele>
        <time>2020-09-16T12:14:21+02:00</time>
      </trkpt>
      <trkpt lat="44.33733" lon="6.66001">
        <ele>2561</ele>
        <time>2020-09-16T12:14:36+02:00</time>
      </trkpt>
      <trkpt lat="44.33732" lon="6.66003">
        <ele>2561</ele>
        <time>2020-09-16T12:14:56+02:00</time>
      </trkpt>
      <trkpt lat="44.33721" lon="6.65994">
        <ele>2564</ele>
        <time>2020-09-16T12:15:12+02:00</time>
      </trkpt>
      <trkpt lat="44.33713" lon="6.65991">
        <ele>2567</ele>
        <time>2020-09-16T12:15:25+02:00</time>
      </trkpt>
      <trkpt lat="44.33709" lon="6.66004">
        <ele>2566</ele>
        <time>2020-09-16T12:15:38+02:00</time>
      </trkpt>
      <trkpt lat="44.33696" lon="6.66025">
        <ele>2567</ele>
        <time>2020-09-16T12:15:59+02:00</time>
      </trkpt>
      <trkpt lat="44.3369" lon="6.66038">
        <ele>2567</ele>
        <time>2020-09-16T12:16:14+02:00</time>
      </trkpt>
      <trkpt lat="44.3369" lon="6.66044">
        <ele>2567</ele>
        <time>2020-09-16T12:16:32+02:00</time>
      </trkpt>
      <trkpt lat="44.33686" lon="6.66045">
        <ele>2569</ele>
        <time>2020-09-16T12:16:52+02:00</time>
      </trkpt>
      <trkpt lat="44.33674" lon="6.66055">
        <ele>2573</ele>
        <time>2020-09-16T12:17:07+02:00</time>
      </trkpt>
      <trkpt lat="44.33667" lon="6.66067">
        <ele>2574</ele>
        <time>2020-09-16T12:17:23+02:00</time>
      </trkpt>
      <trkpt lat="44.3366" lon="6.66084">
        <ele>2576</ele>
        <time>2020-09-16T12:17:42+02:00</time>
      </trkpt>
      <trkpt lat="44.33658" lon="6.66089">
        <ele>2577</ele>
        <time>2020-09-16T12:18:00+02:00</time>
      </trkpt>
      <trkpt lat="44.33653" lon="6.66099">
        <ele>2580</ele>
        <time>2020-09-16T12:18:19+02:00</time>
      </trkpt>
      <trkpt lat="44.3365" lon="6.66107">
        <ele>2581</ele>
        <time>2020-09-16T12:18:36+02:00</time>
      </trkpt>
      <trkpt lat="44.33648" lon="6.66109">
        <ele>2582</ele>
        <time>2020-09-16T12:18:54+02:00</time>
      </trkpt>
      <trkpt lat="44.33645" lon="6.66109">
        <ele>2584</ele>
        <time>2020-09-16T12:19:14+02:00</time>
      </trkpt>
      <trkpt lat="44.33647" lon="6.66115">
        <ele>2582</ele>
        <time>2020-09-16T12:19:30+02:00</time>
      </trkpt>
      <trkpt lat="44.33649" lon="6.66118">
        <ele>2580</ele>
        <time>2020-09-16T12:19:51+02:00</time>
      </trkpt>
      <trkpt lat="44.33643" lon="6.6613">
        <ele>2583</ele>
        <time>2020-09-16T12:20:07+02:00</time>
      </trkpt>
      <trkpt lat="44.33638" lon="6.66146">
        <ele>2584</ele>
        <time>2020-09-16T12:20:25+02:00</time>
      </trkpt>
      <trkpt lat="44.33635" lon="6.66153">
        <ele>2582</ele>
        <time>2020-09-16T12:20:40+02:00</time>
      </trkpt>
      <trkpt lat="44.33634" lon="6.66155">
        <ele>2580</ele>
        <time>2020-09-16T12:21:08+02:00</time>
      </trkpt>
      <trkpt lat="44.33638" lon="6.66156">
        <ele>2583</ele>
        <time>2020-09-16T12:21:31+02:00</time>
      </trkpt>
      <trkpt lat="44.33635" lon="6.66156">
        <ele>2581</ele>
        <time>2020-09-16T12:21:58+02:00</time>
      </trkpt>
      <trkpt lat="44.33636" lon="6.66156">
        <ele>2582</ele>
        <time>2020-09-16T12:22:02+02:00</time>
      </trkpt>
      <trkpt lat="44.33636" lon="6.66157">
        <ele>2582</ele>
        <time>2020-09-16T12:22:29+02:00</time>
      </trkpt>
      <trkpt lat="44.33635" lon="6.66157">
        <ele>2581</ele>
        <time>2020-09-16T12:23:02+02:00</time>
      </trkpt>
      <trkpt lat="44.33636" lon="6.66156">
        <ele>2582</ele>
        <time>2020-09-16T12:23:29+02:00</time>
      </trkpt>
      <trkpt lat="44.33635" lon="6.66156">
        <ele>2581</ele>
        <time>2020-09-16T12:24:01+02:00</time>
      </trkpt>
      <trkpt lat="44.33636" lon="6.66156">
        <ele>2582</ele>
        <time>2020-09-16T12:24:22+02:00</time>
      </trkpt>
      <trkpt lat="44.33636" lon="6.66156">
        <ele>2582</ele>
        <time>2020-09-16T12:24:51+02:00</time>
      </trkpt>
      <trkpt lat="44.33636" lon="6.66156">
        <ele>2582</ele>
        <time>2020-09-16T12:25:21+02:00</time>
      </trkpt>
      <trkpt lat="44.33635" lon="6.66157">
        <ele>2581</ele>
        <time>2020-09-16T12:25:34+02:00</time>
      </trkpt>
      <trkpt lat="44.33635" lon="6.66157">
        <ele>2581</ele>
        <time>2020-09-16T12:25:48+02:00</time>
      </trkpt>
      <trkpt lat="44.33636" lon="6.66163">
        <ele>2582</ele>
        <time>2020-09-16T12:26:04+02:00</time>
      </trkpt>
      <trkpt lat="44.33637" lon="6.66171">
        <ele>2583</ele>
        <time>2020-09-16T12:26:17+02:00</time>
      </trkpt>
      <trkpt lat="44.33639" lon="6.66175">
        <ele>2584</ele>
        <time>2020-09-16T12:26:31+02:00</time>
      </trkpt>
      <trkpt lat="44.33642" lon="6.6618">
        <ele>2583</ele>
        <time>2020-09-16T12:26:48+02:00</time>
      </trkpt>
      <trkpt lat="44.33642" lon="6.66183">
        <ele>2583</ele>
        <time>2020-09-16T12:27:04+02:00</time>
      </trkpt>
      <trkpt lat="44.3364" lon="6.66184">
        <ele>2584</ele>
        <time>2020-09-16T12:27:09+02:00</time>
      </trkpt>
      <trkpt lat="44.3364" lon="6.66189">
        <ele>2584</ele>
        <time>2020-09-16T12:27:25+02:00</time>
      </trkpt>
      <trkpt lat="44.3364" lon="6.66193">
        <ele>2584</ele>
        <time>2020-09-16T12:27:40+02:00</time>
      </trkpt>
      <trkpt lat="44.33639" lon="6.66192">
        <ele>2584</ele>
        <time>2020-09-16T12:27:58+02:00</time>
      </trkpt>
      <trkpt lat="44.3364" lon="6.66198">
        <ele>2584</ele>
        <time>2020-09-16T12:28:14+02:00</time>
      </trkpt>
      <trkpt lat="44.3364" lon="6.66203">
        <ele>2585</ele>
        <time>2020-09-16T12:28:32+02:00</time>
      </trkpt>
      <trkpt lat="44.33646" lon="6.66212">
        <ele>2586</ele>
        <time>2020-09-16T12:28:48+02:00</time>
      </trkpt>
      <trkpt lat="44.3365" lon="6.66214">
        <ele>2587</ele>
        <time>2020-09-16T12:29:07+02:00</time>
      </trkpt>
      <trkpt lat="44.33647" lon="6.66217">
        <ele>2587</ele>
        <time>2020-09-16T12:29:27+02:00</time>
      </trkpt>
      <trkpt lat="44.33646" lon="6.66218">
        <ele>2588</ele>
        <time>2020-09-16T12:29:47+02:00</time>
      </trkpt>
      <trkpt lat="44.33644" lon="6.66221">
        <ele>2588</ele>
        <time>2020-09-16T12:30:08+02:00</time>
      </trkpt>
      <trkpt lat="44.33641" lon="6.66218">
        <ele>2587</ele>
        <time>2020-09-16T12:30:28+02:00</time>
      </trkpt>
      <trkpt lat="44.33643" lon="6.66222">
        <ele>2588</ele>
        <time>2020-09-16T12:30:49+02:00</time>
      </trkpt>
      <trkpt lat="44.33642" lon="6.66223">
        <ele>2588</ele>
        <time>2020-09-16T12:31:21+02:00</time>
      </trkpt>
      <trkpt lat="44.33643" lon="6.66227">
        <ele>2589</ele>
        <time>2020-09-16T12:31:42+02:00</time>
      </trkpt>
      <trkpt lat="44.33643" lon="6.6623">
        <ele>2589</ele>
        <time>2020-09-16T12:32:06+02:00</time>
      </trkpt>
      <trkpt lat="44.33642" lon="6.66232">
        <ele>2589</ele>
        <time>2020-09-16T12:32:34+02:00</time>
      </trkpt>
      <trkpt lat="44.33643" lon="6.66233">
        <ele>2590</ele>
        <time>2020-09-16T12:32:56+02:00</time>
      </trkpt>
      <trkpt lat="44.33642" lon="6.66233">
        <ele>2589</ele>
        <time>2020-09-16T12:33:19+02:00</time>
      </trkpt>
      <trkpt lat="44.33646" lon="6.66234">
        <ele>2590</ele>
        <time>2020-09-16T12:33:42+02:00</time>
      </trkpt>
      <trkpt lat="44.33648" lon="6.66238">
        <ele>2592</ele>
        <time>2020-09-16T12:34:06+02:00</time>
      </trkpt>
      <trkpt lat="44.33647" lon="6.66246">
        <ele>2593</ele>
        <time>2020-09-16T12:34:28+02:00</time>
      </trkpt>
      <trkpt lat="44.33646" lon="6.66249">
        <ele>2593</ele>
        <time>2020-09-16T12:34:42+02:00</time>
      </trkpt>
      <trkpt lat="44.33647" lon="6.66255">
        <ele>2594</ele>
        <time>2020-09-16T12:34:57+02:00</time>
      </trkpt>
      <trkpt lat="44.33649" lon="6.66263">
        <ele>2596</ele>
        <time>2020-09-16T12:35:14+02:00</time>
      </trkpt>
      <trkpt lat="44.33655" lon="6.66272">
        <ele>2602</ele>
        <time>2020-09-16T12:35:30+02:00</time>
      </trkpt>
      <trkpt lat="44.33659" lon="6.66281">
        <ele>2606</ele>
        <time>2020-09-16T12:35:47+02:00</time>
      </trkpt>
      <trkpt lat="44.33659" lon="6.66289">
        <ele>2607</ele>
        <time>2020-09-16T12:36:05+02:00</time>
      </trkpt>
      <trkpt lat="44.33663" lon="6.66299">
        <ele>2611</ele>
        <time>2020-09-16T12:36:22+02:00</time>
      </trkpt>
      <trkpt lat="44.33664" lon="6.66304">
        <ele>2612</ele>
        <time>2020-09-16T12:36:43+02:00</time>
      </trkpt>
      <trkpt lat="44.33667" lon="6.66307">
        <ele>2614</ele>
        <time>2020-09-16T12:36:57+02:00</time>
      </trkpt>
      <trkpt lat="44.33669" lon="6.66313">
        <ele>2612</ele>
        <time>2020-09-16T12:37:14+02:00</time>
      </trkpt>
      <trkpt lat="44.33672" lon="6.66322">
        <ele>2612</ele>
        <time>2020-09-16T12:37:27+02:00</time>
      </trkpt>
      <trkpt lat="44.3368" lon="6.66333">
        <ele>2615</ele>
        <time>2020-09-16T12:37:43+02:00</time>
      </trkpt>
      <trkpt lat="44.33687" lon="6.66343">
        <ele>2619</ele>
        <time>2020-09-16T12:38:02+02:00</time>
      </trkpt>
      <trkpt lat="44.33691" lon="6.6635">
        <ele>2622</ele>
        <time>2020-09-16T12:38:19+02:00</time>
      </trkpt>
      <trkpt lat="44.33694" lon="6.66357">
        <ele>2625</ele>
        <time>2020-09-16T12:38:39+02:00</time>
      </trkpt>
      <trkpt lat="44.33696" lon="6.66359">
        <ele>2626</ele>
        <time>2020-09-16T12:38:58+02:00</time>
      </trkpt>
      <trkpt lat="44.33698" lon="6.66363">
        <ele>2627</ele>
        <time>2020-09-16T12:39:23+02:00</time>
      </trkpt>
      <trkpt lat="44.33699" lon="6.66367">
        <ele>2628</ele>
        <time>2020-09-16T12:39:55+02:00</time>
      </trkpt>
      <trkpt lat="44.33702" lon="6.66371">
        <ele>2630</ele>
        <time>2020-09-16T12:40:24+02:00</time>
      </trkpt>
      <trkpt lat="44.33698" lon="6.66369">
        <ele>2628</ele>
        <time>2020-09-16T12:40:52+02:00</time>
      </trkpt>
      <trkpt lat="44.33701" lon="6.66374">
        <ele>2631</ele>
        <time>2020-09-16T12:41:16+02:00</time>
      </trkpt>
      <trkpt lat="44.33704" lon="6.66375">
        <ele>2632</ele>
        <time>2020-09-16T12:41:35+02:00</time>
      </trkpt>
      <trkpt lat="44.33704" lon="6.66376">
        <ele>2632</ele>
        <time>2020-09-16T12:41:37+02:00</time>
      </trkpt>
      <trkpt lat="44.33704" lon="6.66373">
        <ele>2632</ele>
        <time>2020-09-16T12:42:01+02:00</time>
      </trkpt>
      <trkpt lat="44.33702" lon="6.66376">
        <ele>2631</ele>
        <time>2020-09-16T12:42:29+02:00</time>
      </trkpt>
      <trkpt lat="44.33698" lon="6.66373">
        <ele>2629</ele>
        <time>2020-09-16T12:42:51+02:00</time>
      </trkpt>
      <trkpt lat="44.33702" lon="6.66378">
        <ele>2632</ele>
        <time>2020-09-16T12:43:07+02:00</time>
      </trkpt>
      <trkpt lat="44.33704" lon="6.66383">
        <ele>2634</ele>
        <time>2020-09-16T12:43:24+02:00</time>
      </trkpt>
      <trkpt lat="44.33709" lon="6.66393">
        <ele>2640</ele>
        <time>2020-09-16T12:43:39+02:00</time>
      </trkpt>
      <trkpt lat="44.33712" lon="6.66408">
        <ele>2646</ele>
        <time>2020-09-16T12:43:55+02:00</time>
      </trkpt>
      <trkpt lat="44.33713" lon="6.66423">
        <ele>2651</ele>
        <time>2020-09-16T12:44:15+02:00</time>
      </trkpt>
      <trkpt lat="44.33715" lon="6.6643">
        <ele>2654</ele>
        <time>2020-09-16T12:44:35+02:00</time>
      </trkpt>
      <trkpt lat="44.33715" lon="6.66431">
        <ele>2654</ele>
        <time>2020-09-16T12:45:01+02:00</time>
      </trkpt>
      <trkpt lat="44.33718" lon="6.66434">
        <ele>2657</ele>
        <time>2020-09-16T12:45:21+02:00</time>
      </trkpt>
      <trkpt lat="44.33717" lon="6.66432">
        <ele>2656</ele>
        <time>2020-09-16T12:45:44+02:00</time>
      </trkpt>
      <trkpt lat="44.33721" lon="6.66433">
        <ele>2660</ele>
        <time>2020-09-16T12:46:06+02:00</time>
      </trkpt>
      <trkpt lat="44.33722" lon="6.66436">
        <ele>2661</ele>
        <time>2020-09-16T12:46:28+02:00</time>
      </trkpt>
      <trkpt lat="44.33723" lon="6.66443">
        <ele>2664</ele>
        <time>2020-09-16T12:46:46+02:00</time>
      </trkpt>
      <trkpt lat="44.33721" lon="6.66447">
        <ele>2664</ele>
        <time>2020-09-16T12:46:59+02:00</time>
      </trkpt>
      <trkpt lat="44.33719" lon="6.66449">
        <ele>2662</ele>
        <time>2020-09-16T12:47:19+02:00</time>
      </trkpt>
      <trkpt lat="44.33722" lon="6.66452">
        <ele>2666</ele>
        <time>2020-09-16T12:47:37+02:00</time>
      </trkpt>
      <trkpt lat="44.3372" lon="6.66456">
        <ele>2665</ele>
        <time>2020-09-16T12:47:55+02:00</time>
      </trkpt>
      <trkpt lat="44.33721" lon="6.6646">
        <ele>2667</ele>
        <time>2020-09-16T12:48:18+02:00</time>
      </trkpt>
      <trkpt lat="44.33725" lon="6.66462">
        <ele>2669</ele>
        <time>2020-09-16T12:48:33+02:00</time>
      </trkpt>
      <trkpt lat="44.33725" lon="6.66463">
        <ele>2669</ele>
        <time>2020-09-16T12:48:34+02:00</time>
      </trkpt>
      <trkpt lat="44.33725" lon="6.66467">
        <ele>2670</ele>
        <time>2020-09-16T12:48:51+02:00</time>
      </trkpt>
      <trkpt lat="44.33725" lon="6.66471">
        <ele>2671</ele>
        <time>2020-09-16T12:49:13+02:00</time>
      </trkpt>
      <trkpt lat="44.33725" lon="6.66474">
        <ele>2671</ele>
        <time>2020-09-16T12:49:29+02:00</time>
      </trkpt>
      <trkpt lat="44.33724" lon="6.66475">
        <ele>2671</ele>
        <time>2020-09-16T12:49:32+02:00</time>
      </trkpt>
      <trkpt lat="44.33724" lon="6.66483">
        <ele>2670</ele>
        <time>2020-09-16T12:49:45+02:00</time>
      </trkpt>
      <trkpt lat="44.33729" lon="6.66486">
        <ele>2670</ele>
        <time>2020-09-16T12:50:00+02:00</time>
      </trkpt>
      <trkpt lat="44.3373" lon="6.66486">
        <ele>2670</ele>
        <time>2020-09-16T12:50:19+02:00</time>
      </trkpt>
      <trkpt lat="44.33728" lon="6.66484">
        <ele>2670</ele>
        <time>2020-09-16T12:50:31+02:00</time>
      </trkpt>
      <trkpt lat="44.33728" lon="6.66484">
        <ele>2670</ele>
        <time>2020-09-16T12:50:57+02:00</time>
      </trkpt>
      <trkpt lat="44.33728" lon="6.66484">
        <ele>2670</ele>
        <time>2020-09-16T12:51:28+02:00</time>
      </trkpt>
      <trkpt lat="44.33725" lon="6.66486">
        <ele>2670</ele>
        <time>2020-09-16T12:51:47+02:00</time>
      </trkpt>
      <trkpt lat="44.33724" lon="6.66478">
        <ele>2670</ele>
        <time>2020-09-16T12:52:02+02:00</time>
      </trkpt>
      <trkpt lat="44.33724" lon="6.66478">
        <ele>2670</ele>
        <time>2020-09-16T12:52:08+02:00</time>
      </trkpt>
      <trkpt lat="44.33724" lon="6.66483">
        <ele>2670</ele>
        <time>2020-09-16T12:52:11+02:00</time>
      </trkpt>
      <trkpt lat="44.33726" lon="6.66497">
        <ele>2669</ele>
        <time>2020-09-16T12:52:26+02:00</time>
      </trkpt>
      <trkpt lat="44.33731" lon="6.66499">
        <ele>2669</ele>
        <time>2020-09-16T12:52:38+02:00</time>
      </trkpt>
      <trkpt lat="44.33739" lon="6.66505">
        <ele>2667</ele>
        <time>2020-09-16T12:52:51+02:00</time>
      </trkpt>
      <trkpt lat="44.33748" lon="6.66507">
        <ele>2667</ele>
        <time>2020-09-16T12:53:07+02:00</time>
      </trkpt>
      <trkpt lat="44.33753" lon="6.66508">
        <ele>2667</ele>
        <time>2020-09-16T12:53:21+02:00</time>
      </trkpt>
      <trkpt lat="44.33754" lon="6.66508">
        <ele>2668</ele>
        <time>2020-09-16T12:53:22+02:00</time>
      </trkpt>
      <trkpt lat="44.33759" lon="6.66508">
        <ele>2668</ele>
        <time>2020-09-16T12:53:38+02:00</time>
      </trkpt>
      <trkpt lat="44.33762" lon="6.66508">
        <ele>2668</ele>
        <time>2020-09-16T12:53:53+02:00</time>
      </trkpt>
      <trkpt lat="44.33774" lon="6.66509">
        <ele>2668</ele>
        <time>2020-09-16T12:54:11+02:00</time>
      </trkpt>
      <trkpt lat="44.3378" lon="6.66515">
        <ele>2668</ele>
        <time>2020-09-16T12:54:27+02:00</time>
      </trkpt>
      <trkpt lat="44.33782" lon="6.6652">
        <ele>2667</ele>
        <time>2020-09-16T12:54:45+02:00</time>
      </trkpt>
      <trkpt lat="44.33785" lon="6.66524">
        <ele>2668</ele>
        <time>2020-09-16T12:55:00+02:00</time>
      </trkpt>
      <trkpt lat="44.3379" lon="6.66529">
        <ele>2669</ele>
        <time>2020-09-16T12:55:14+02:00</time>
      </trkpt>
      <trkpt lat="44.33791" lon="6.66531">
        <ele>2668</ele>
        <time>2020-09-16T12:55:16+02:00</time>
      </trkpt>
      <trkpt lat="44.338" lon="6.66545">
        <ele>2666</ele>
        <time>2020-09-16T12:55:33+02:00</time>
      </trkpt>
      <trkpt lat="44.33803" lon="6.6655">
        <ele>2665</ele>
        <time>2020-09-16T12:55:52+02:00</time>
      </trkpt>
      <trkpt lat="44.33801" lon="6.66553">
        <ele>2663</ele>
        <time>2020-09-16T12:56:08+02:00</time>
      </trkpt>
      <trkpt lat="44.33801" lon="6.66553">
        <ele>2663</ele>
        <time>2020-09-16T12:56:33+02:00</time>
      </trkpt>
      <trkpt lat="44.33799" lon="6.66552">
        <ele>2663</ele>
        <time>2020-09-16T12:56:56+02:00</time>
      </trkpt>
      <trkpt lat="44.33799" lon="6.66553">
        <ele>2662</ele>
        <time>2020-09-16T12:57:14+02:00</time>
      </trkpt>
      <trkpt lat="44.33799" lon="6.66554">
        <ele>2662</ele>
        <time>2020-09-16T12:57:34+02:00</time>
      </trkpt>
      <trkpt lat="44.33798" lon="6.66553">
        <ele>2662</ele>
        <time>2020-09-16T12:57:59+02:00</time>
      </trkpt>
      <trkpt lat="44.33801" lon="6.66555">
        <ele>2663</ele>
        <time>2020-09-16T13:34:20+02:00</time>
      </trkpt>
      <trkpt lat="44.33801" lon="6.66555">
        <ele>2663</ele>
        <time>2020-09-16T13:34:22+02:00</time>
      </trkpt>
      <trkpt lat="44.338" lon="6.66555">
        <ele>2662</ele>
        <time>2020-09-16T13:34:33+02:00</time>
      </trkpt>
      <trkpt lat="44.338" lon="6.66555">
        <ele>2662</ele>
        <time>2020-09-16T13:34:34+02:00</time>
      </trkpt>
      <trkpt lat="44.338" lon="6.66555">
        <ele>2662</ele>
        <time>2020-09-16T13:34:53+02:00</time>
      </trkpt>
      <trkpt lat="44.338" lon="6.66555">
        <ele>2662</ele>
        <time>2020-09-16T13:35:12+02:00</time>
      </trkpt>
      <trkpt lat="44.338" lon="6.66554">
        <ele>2662</ele>
        <time>2020-09-16T13:35:36+02:00</time>
      </trkpt>
      <trkpt lat="44.338" lon="6.66555">
        <ele>2662</ele>
        <time>2020-09-16T13:36:08+02:00</time>
      </trkpt>
      <trkpt lat="44.33799" lon="6.66557">
        <ele>2661</ele>
        <time>2020-09-16T13:36:49+02:00</time>
      </trkpt>
      <trkpt lat="44.33798" lon="6.66558">
        <ele>2661</ele>
        <time>2020-09-16T13:37:25+02:00</time>
      </trkpt>
      <trkpt lat="44.33798" lon="6.66556">
        <ele>2661</ele>
        <time>2020-09-16T13:37:53+02:00</time>
      </trkpt>
      <trkpt lat="44.33799" lon="6.66554">
        <ele>2662</ele>
        <time>2020-09-16T13:38:28+02:00</time>
      </trkpt>
      <trkpt lat="44.33799" lon="6.66553">
        <ele>2662</ele>
        <time>2020-09-16T13:39:00+02:00</time>
      </trkpt>
      <trkpt lat="44.33799" lon="6.66554">
        <ele>2662</ele>
        <time>2020-09-16T13:39:20+02:00</time>
      </trkpt>
      <trkpt lat="44.33799" lon="6.66555">
        <ele>2662</ele>
        <time>2020-09-16T13:39:45+02:00</time>
      </trkpt>
      <trkpt lat="44.33799" lon="6.66553">
        <ele>2662</ele>
        <time>2020-09-16T13:40:05+02:00</time>
      </trkpt>
      <trkpt lat="44.33798" lon="6.66555">
        <ele>2662</ele>
        <time>2020-09-16T13:40:28+02:00</time>
      </trkpt>
      <trkpt lat="44.338" lon="6.66557">
        <ele>2662</ele>
        <time>2020-09-16T13:40:54+02:00</time>
      </trkpt>
      <trkpt lat="44.338" lon="6.66556">
        <ele>2662</ele>
        <time>2020-09-16T13:41:35+02:00</time>
      </trkpt>
      <trkpt lat="44.338" lon="6.66553">
        <ele>2663</ele>
        <time>2020-09-16T13:42:04+02:00</time>
      </trkpt>
      <trkpt lat="44.338" lon="6.66545">
        <ele>2666</ele>
        <time>2020-09-16T13:42:17+02:00</time>
      </trkpt>
      <trkpt lat="44.33794" lon="6.66539">
        <ele>2666</ele>
        <time>2020-09-16T13:42:33+02:00</time>
      </trkpt>
      <trkpt lat="44.33788" lon="6.66536">
        <ele>2665</ele>
        <time>2020-09-16T13:42:50+02:00</time>
      </trkpt>
      <trkpt lat="44.33782" lon="6.66534">
        <ele>2664</ele>
        <time>2020-09-16T13:43:06+02:00</time>
      </trkpt>
      <trkpt lat="44.33781" lon="6.66533">
        <ele>2665</ele>
        <time>2020-09-16T13:43:23+02:00</time>
      </trkpt>
      <trkpt lat="44.33773" lon="6.66533">
        <ele>2662</ele>
        <time>2020-09-16T13:43:45+02:00</time>
      </trkpt>
      <trkpt lat="44.33763" lon="6.66533">
        <ele>2659</ele>
        <time>2020-09-16T13:44:00+02:00</time>
      </trkpt>
      <trkpt lat="44.33761" lon="6.66533">
        <ele>2659</ele>
        <time>2020-09-16T13:44:16+02:00</time>
      </trkpt>
      <trkpt lat="44.33759" lon="6.66535">
        <ele>2657</ele>
        <time>2020-09-16T13:44:39+02:00</time>
      </trkpt>
      <trkpt lat="44.33756" lon="6.66543">
        <ele>2653</ele>
        <time>2020-09-16T13:44:54+02:00</time>
      </trkpt>
      <trkpt lat="44.33754" lon="6.66552">
        <ele>2649</ele>
        <time>2020-09-16T13:45:08+02:00</time>
      </trkpt>
      <trkpt lat="44.33752" lon="6.66556">
        <ele>2646</ele>
        <time>2020-09-16T13:45:14+02:00</time>
      </trkpt>
      <trkpt lat="44.33748" lon="6.66562">
        <ele>2642</ele>
        <time>2020-09-16T13:45:29+02:00</time>
      </trkpt>
      <trkpt lat="44.33747" lon="6.66561">
        <ele>2643</ele>
        <time>2020-09-16T13:45:53+02:00</time>
      </trkpt>
      <trkpt lat="44.33748" lon="6.66567">
        <ele>2640</ele>
        <time>2020-09-16T13:46:09+02:00</time>
      </trkpt>
      <trkpt lat="44.33744" lon="6.66572">
        <ele>2637</ele>
        <time>2020-09-16T13:46:23+02:00</time>
      </trkpt>
      <trkpt lat="44.33739" lon="6.66574">
        <ele>2635</ele>
        <time>2020-09-16T13:46:39+02:00</time>
      </trkpt>
      <trkpt lat="44.33739" lon="6.66581">
        <ele>2632</ele>
        <time>2020-09-16T13:46:56+02:00</time>
      </trkpt>
      <trkpt lat="44.33732" lon="6.66582">
        <ele>2630</ele>
        <time>2020-09-16T13:47:10+02:00</time>
      </trkpt>
      <trkpt lat="44.33727" lon="6.66586">
        <ele>2627</ele>
        <time>2020-09-16T13:47:23+02:00</time>
      </trkpt>
      <trkpt lat="44.33728" lon="6.66594">
        <ele>2624</ele>
        <time>2020-09-16T13:47:37+02:00</time>
      </trkpt>
      <trkpt lat="44.33731" lon="6.66597">
        <ele>2623</ele>
        <time>2020-09-16T13:47:52+02:00</time>
      </trkpt>
      <trkpt lat="44.33731" lon="6.66605">
        <ele>2620</ele>
        <time>2020-09-16T13:48:06+02:00</time>
      </trkpt>
      <trkpt lat="44.33724" lon="6.66611">
        <ele>2616</ele>
        <time>2020-09-16T13:48:19+02:00</time>
      </trkpt>
      <trkpt lat="44.33721" lon="6.66613">
        <ele>2615</ele>
        <time>2020-09-16T13:48:36+02:00</time>
      </trkpt>
      <trkpt lat="44.33719" lon="6.66618">
        <ele>2613</ele>
        <time>2020-09-16T13:48:47+02:00</time>
      </trkpt>
      <trkpt lat="44.33714" lon="6.66633">
        <ele>2607</ele>
        <time>2020-09-16T13:49:02+02:00</time>
      </trkpt>
      <trkpt lat="44.33717" lon="6.66641">
        <ele>2606</ele>
        <time>2020-09-16T13:49:16+02:00</time>
      </trkpt>
      <trkpt lat="44.33717" lon="6.66649">
        <ele>2603</ele>
        <time>2020-09-16T13:49:31+02:00</time>
      </trkpt>
      <trkpt lat="44.33716" lon="6.66658">
        <ele>2600</ele>
        <time>2020-09-16T13:49:46+02:00</time>
      </trkpt>
      <trkpt lat="44.33717" lon="6.66669">
        <ele>2596</ele>
        <time>2020-09-16T13:50:00+02:00</time>
      </trkpt>
      <trkpt lat="44.33716" lon="6.66675">
        <ele>2594</ele>
        <time>2020-09-16T13:50:07+02:00</time>
      </trkpt>
      <trkpt lat="44.33718" lon="6.6669">
        <ele>2589</ele>
        <time>2020-09-16T13:50:25+02:00</time>
      </trkpt>
      <trkpt lat="44.33722" lon="6.667">
        <ele>2587</ele>
        <time>2020-09-16T13:50:41+02:00</time>
      </trkpt>
      <trkpt lat="44.33726" lon="6.66705">
        <ele>2586</ele>
        <time>2020-09-16T13:50:55+02:00</time>
      </trkpt>
      <trkpt lat="44.3373" lon="6.66716">
        <ele>2583</ele>
        <time>2020-09-16T13:51:09+02:00</time>
      </trkpt>
      <trkpt lat="44.33733" lon="6.66726">
        <ele>2580</ele>
        <time>2020-09-16T13:51:20+02:00</time>
      </trkpt>
      <trkpt lat="44.33741" lon="6.66734">
        <ele>2579</ele>
        <time>2020-09-16T13:51:34+02:00</time>
      </trkpt>
      <trkpt lat="44.33737" lon="6.66738">
        <ele>2577</ele>
        <time>2020-09-16T13:51:44+02:00</time>
      </trkpt>
      <trkpt lat="44.33738" lon="6.66748">
        <ele>2574</ele>
        <time>2020-09-16T13:52:00+02:00</time>
      </trkpt>
      <trkpt lat="44.33739" lon="6.66752">
        <ele>2573</ele>
        <time>2020-09-16T13:52:13+02:00</time>
      </trkpt>
      <trkpt lat="44.33742" lon="6.66758">
        <ele>2571</ele>
        <time>2020-09-16T13:52:26+02:00</time>
      </trkpt>
      <trkpt lat="44.33739" lon="6.66764">
        <ele>2569</ele>
        <time>2020-09-16T13:52:38+02:00</time>
      </trkpt>
      <trkpt lat="44.33745" lon="6.66768">
        <ele>2569</ele>
        <time>2020-09-16T13:52:52+02:00</time>
      </trkpt>
      <trkpt lat="44.33745" lon="6.66775">
        <ele>2566</ele>
        <time>2020-09-16T13:53:06+02:00</time>
      </trkpt>
      <trkpt lat="44.33741" lon="6.6678">
        <ele>2564</ele>
        <time>2020-09-16T13:53:27+02:00</time>
      </trkpt>
      <trkpt lat="44.3374" lon="6.66781">
        <ele>2564</ele>
        <time>2020-09-16T13:53:30+02:00</time>
      </trkpt>
      <trkpt lat="44.3373" lon="6.66787">
        <ele>2561</ele>
        <time>2020-09-16T13:53:43+02:00</time>
      </trkpt>
      <trkpt lat="44.33724" lon="6.66796">
        <ele>2557</ele>
        <time>2020-09-16T13:53:56+02:00</time>
      </trkpt>
      <trkpt lat="44.33717" lon="6.66801">
        <ele>2554</ele>
        <time>2020-09-16T13:54:09+02:00</time>
      </trkpt>
      <trkpt lat="44.33715" lon="6.668">
        <ele>2553</ele>
        <time>2020-09-16T13:54:26+02:00</time>
      </trkpt>
      <trkpt lat="44.3371" lon="6.66803">
        <ele>2551</ele>
        <time>2020-09-16T13:54:43+02:00</time>
      </trkpt>
      <trkpt lat="44.33703" lon="6.66802">
        <ele>2549</ele>
        <time>2020-09-16T13:54:56+02:00</time>
      </trkpt>
      <trkpt lat="44.33697" lon="6.66803">
        <ele>2546</ele>
        <time>2020-09-16T13:55:10+02:00</time>
      </trkpt>
      <trkpt lat="44.33692" lon="6.66809">
        <ele>2542</ele>
        <time>2020-09-16T13:55:25+02:00</time>
      </trkpt>
      <trkpt lat="44.33686" lon="6.66813">
        <ele>2538</ele>
        <time>2020-09-16T13:55:40+02:00</time>
      </trkpt>
      <trkpt lat="44.33681" lon="6.6682">
        <ele>2532</ele>
        <time>2020-09-16T13:55:55+02:00</time>
      </trkpt>
      <trkpt lat="44.33675" lon="6.66827">
        <ele>2526</ele>
        <time>2020-09-16T13:56:07+02:00</time>
      </trkpt>
      <trkpt lat="44.33673" lon="6.66837">
        <ele>2523</ele>
        <time>2020-09-16T13:56:20+02:00</time>
      </trkpt>
      <trkpt lat="44.33671" lon="6.66849">
        <ele>2519</ele>
        <time>2020-09-16T13:56:34+02:00</time>
      </trkpt>
      <trkpt lat="44.33668" lon="6.66852">
        <ele>2516</ele>
        <time>2020-09-16T13:56:40+02:00</time>
      </trkpt>
      <trkpt lat="44.33662" lon="6.66854">
        <ele>2512</ele>
        <time>2020-09-16T13:56:54+02:00</time>
      </trkpt>
      <trkpt lat="44.33662" lon="6.66861">
        <ele>2510</ele>
        <time>2020-09-16T13:57:06+02:00</time>
      </trkpt>
      <trkpt lat="44.33662" lon="6.66875">
        <ele>2509</ele>
        <time>2020-09-16T13:57:20+02:00</time>
      </trkpt>
      <trkpt lat="44.3366" lon="6.66874">
        <ele>2508</ele>
        <time>2020-09-16T13:57:32+02:00</time>
      </trkpt>
      <trkpt lat="44.3366" lon="6.66874">
        <ele>2508</ele>
        <time>2020-09-16T13:57:58+02:00</time>
      </trkpt>
      <trkpt lat="44.33658" lon="6.66878">
        <ele>2507</ele>
        <time>2020-09-16T13:58:15+02:00</time>
      </trkpt>
      <trkpt lat="44.33655" lon="6.66874">
        <ele>2504</ele>
        <time>2020-09-16T13:58:24+02:00</time>
      </trkpt>
      <trkpt lat="44.33653" lon="6.66878">
        <ele>2503</ele>
        <time>2020-09-16T13:58:38+02:00</time>
      </trkpt>
      <trkpt lat="44.3365" lon="6.66885">
        <ele>2502</ele>
        <time>2020-09-16T13:58:53+02:00</time>
      </trkpt>
      <trkpt lat="44.33648" lon="6.66891">
        <ele>2501</ele>
        <time>2020-09-16T13:59:05+02:00</time>
      </trkpt>
      <trkpt lat="44.33648" lon="6.66893">
        <ele>2501</ele>
        <time>2020-09-16T13:59:14+02:00</time>
      </trkpt>
      <trkpt lat="44.33644" lon="6.66908">
        <ele>2503</ele>
        <time>2020-09-16T13:59:28+02:00</time>
      </trkpt>
      <trkpt lat="44.33643" lon="6.66913">
        <ele>2504</ele>
        <time>2020-09-16T13:59:45+02:00</time>
      </trkpt>
      <trkpt lat="44.3364" lon="6.66923">
        <ele>2506</ele>
        <time>2020-09-16T13:59:59+02:00</time>
      </trkpt>
      <trkpt lat="44.33638" lon="6.66929">
        <ele>2506</ele>
        <time>2020-09-16T14:00:15+02:00</time>
      </trkpt>
      <trkpt lat="44.33634" lon="6.66931">
        <ele>2504</ele>
        <time>2020-09-16T14:00:35+02:00</time>
      </trkpt>
      <trkpt lat="44.33633" lon="6.66932">
        <ele>2504</ele>
        <time>2020-09-16T14:00:56+02:00</time>
      </trkpt>
      <trkpt lat="44.33633" lon="6.66932">
        <ele>2504</ele>
        <time>2020-09-16T14:01:22+02:00</time>
      </trkpt>
      <trkpt lat="44.33634" lon="6.66944">
        <ele>2507</ele>
        <time>2020-09-16T14:01:40+02:00</time>
      </trkpt>
      <trkpt lat="44.33633" lon="6.66943">
        <ele>2506</ele>
        <time>2020-09-16T14:01:58+02:00</time>
      </trkpt>
      <trkpt lat="44.33633" lon="6.66945">
        <ele>2506</ele>
        <time>2020-09-16T14:02:23+02:00</time>
      </trkpt>
      <trkpt lat="44.33631" lon="6.66942">
        <ele>2505</ele>
        <time>2020-09-16T14:02:38+02:00</time>
      </trkpt>
      <trkpt lat="44.33626" lon="6.66951">
        <ele>2504</ele>
        <time>2020-09-16T14:02:54+02:00</time>
      </trkpt>
      <trkpt lat="44.33625" lon="6.66957">
        <ele>2504</ele>
        <time>2020-09-16T14:03:05+02:00</time>
      </trkpt>
      <trkpt lat="44.33621" lon="6.66959">
        <ele>2503</ele>
        <time>2020-09-16T14:03:20+02:00</time>
      </trkpt>
      <trkpt lat="44.33619" lon="6.6697">
        <ele>2505</ele>
        <time>2020-09-16T14:03:47+02:00</time>
      </trkpt>
      <trkpt lat="44.33622" lon="6.66976">
        <ele>2505</ele>
        <time>2020-09-16T14:04:03+02:00</time>
      </trkpt>
      <trkpt lat="44.33617" lon="6.66986">
        <ele>2505</ele>
        <time>2020-09-16T14:04:17+02:00</time>
      </trkpt>
      <trkpt lat="44.33613" lon="6.66994">
        <ele>2505</ele>
        <time>2020-09-16T14:04:34+02:00</time>
      </trkpt>
      <trkpt lat="44.33612" lon="6.66996">
        <ele>2506</ele>
        <time>2020-09-16T14:04:39+02:00</time>
      </trkpt>
      <trkpt lat="44.33613" lon="6.67001">
        <ele>2505</ele>
        <time>2020-09-16T14:04:52+02:00</time>
      </trkpt>
      <trkpt lat="44.33611" lon="6.67011">
        <ele>2504</ele>
        <time>2020-09-16T14:05:09+02:00</time>
      </trkpt>
      <trkpt lat="44.3361" lon="6.6702">
        <ele>2502</ele>
        <time>2020-09-16T14:05:26+02:00</time>
      </trkpt>
      <trkpt lat="44.33611" lon="6.67026">
        <ele>2502</ele>
        <time>2020-09-16T14:05:43+02:00</time>
      </trkpt>
      <trkpt lat="44.33613" lon="6.67035">
        <ele>2501</ele>
        <time>2020-09-16T14:06:00+02:00</time>
      </trkpt>
      <trkpt lat="44.33613" lon="6.67035">
        <ele>2501</ele>
        <time>2020-09-16T14:06:15+02:00</time>
      </trkpt>
      <trkpt lat="44.33614" lon="6.67037">
        <ele>2500</ele>
        <time>2020-09-16T14:06:33+02:00</time>
      </trkpt>
      <trkpt lat="44.33614" lon="6.67038">
        <ele>2500</ele>
        <time>2020-09-16T14:06:56+02:00</time>
      </trkpt>
      <trkpt lat="44.33615" lon="6.67035">
        <ele>2500</ele>
        <time>2020-09-16T14:07:22+02:00</time>
      </trkpt>
      <trkpt lat="44.33616" lon="6.67035">
        <ele>2500</ele>
        <time>2020-09-16T14:07:42+02:00</time>
      </trkpt>
      <trkpt lat="44.33614" lon="6.67037">
        <ele>2500</ele>
        <time>2020-09-16T14:08:02+02:00</time>
      </trkpt>
      <trkpt lat="44.33612" lon="6.67034">
        <ele>2501</ele>
        <time>2020-09-16T14:08:30+02:00</time>
      </trkpt>
      <trkpt lat="44.33611" lon="6.67035">
        <ele>2501</ele>
        <time>2020-09-16T14:09:02+02:00</time>
      </trkpt>
      <trkpt lat="44.33612" lon="6.67035">
        <ele>2501</ele>
        <time>2020-09-16T14:09:15+02:00</time>
      </trkpt>
      <trkpt lat="44.33613" lon="6.67034">
        <ele>2501</ele>
        <time>2020-09-16T14:09:20+02:00</time>
      </trkpt>
      <trkpt lat="44.33611" lon="6.67033">
        <ele>2501</ele>
        <time>2020-09-16T14:09:36+02:00</time>
      </trkpt>
      <trkpt lat="44.33611" lon="6.67033">
        <ele>2501</ele>
        <time>2020-09-16T14:09:40+02:00</time>
      </trkpt>
      <trkpt lat="44.33614" lon="6.67042">
        <ele>2500</ele>
        <time>2020-09-16T14:09:57+02:00</time>
      </trkpt>
      <trkpt lat="44.33615" lon="6.67045">
        <ele>2499</ele>
        <time>2020-09-16T14:10:08+02:00</time>
      </trkpt>
      <trkpt lat="44.33615" lon="6.67046">
        <ele>2499</ele>
        <time>2020-09-16T14:10:10+02:00</time>
      </trkpt>
      <trkpt lat="44.33615" lon="6.67046">
        <ele>2499</ele>
        <time>2020-09-16T14:10:12+02:00</time>
      </trkpt>
      <trkpt lat="44.33612" lon="6.67047">
        <ele>2500</ele>
        <time>2020-09-16T14:10:30+02:00</time>
      </trkpt>
      <trkpt lat="44.33611" lon="6.67045">
        <ele>2499</ele>
        <time>2020-09-16T14:10:50+02:00</time>
      </trkpt>
      <trkpt lat="44.33614" lon="6.67046">
        <ele>2499</ele>
        <time>2020-09-16T14:11:03+02:00</time>
      </trkpt>
      <trkpt lat="44.33612" lon="6.67047">
        <ele>2500</ele>
        <time>2020-09-16T14:11:21+02:00</time>
      </trkpt>
      <trkpt lat="44.33612" lon="6.67048">
        <ele>2500</ele>
        <time>2020-09-16T14:11:30+02:00</time>
      </trkpt>
      <trkpt lat="44.33611" lon="6.6705">
        <ele>2499</ele>
        <time>2020-09-16T14:11:33+02:00</time>
      </trkpt>
      <trkpt lat="44.33611" lon="6.6705">
        <ele>2499</ele>
        <time>2020-09-16T14:11:34+02:00</time>
      </trkpt>
      <trkpt lat="44.33609" lon="6.67054">
        <ele>2497</ele>
        <time>2020-09-16T14:11:52+02:00</time>
      </trkpt>
      <trkpt lat="44.33607" lon="6.67054">
        <ele>2494</ele>
        <time>2020-09-16T14:12:04+02:00</time>
      </trkpt>
      <trkpt lat="44.33607" lon="6.67054">
        <ele>2494</ele>
        <time>2020-09-16T14:12:06+02:00</time>
      </trkpt>
      <trkpt lat="44.33606" lon="6.67057">
        <ele>2493</ele>
        <time>2020-09-16T14:12:19+02:00</time>
      </trkpt>
      <trkpt lat="44.33602" lon="6.67064">
        <ele>2488</ele>
        <time>2020-09-16T14:12:36+02:00</time>
      </trkpt>
      <trkpt lat="44.33602" lon="6.67072">
        <ele>2488</ele>
        <time>2020-09-16T14:12:54+02:00</time>
      </trkpt>
      <trkpt lat="44.33602" lon="6.67076">
        <ele>2487</ele>
        <time>2020-09-16T14:13:08+02:00</time>
      </trkpt>
      <trkpt lat="44.33603" lon="6.67079">
        <ele>2489</ele>
        <time>2020-09-16T14:13:28+02:00</time>
      </trkpt>
      <trkpt lat="44.33604" lon="6.67082">
        <ele>2489</ele>
        <time>2020-09-16T14:13:51+02:00</time>
      </trkpt>
      <trkpt lat="44.33603" lon="6.67082">
        <ele>2488</ele>
        <time>2020-09-16T14:14:12+02:00</time>
      </trkpt>
      <trkpt lat="44.33604" lon="6.67087">
        <ele>2490</ele>
        <time>2020-09-16T14:14:35+02:00</time>
      </trkpt>
      <trkpt lat="44.33603" lon="6.67084">
        <ele>2488</ele>
        <time>2020-09-16T14:14:53+02:00</time>
      </trkpt>
      <trkpt lat="44.33603" lon="6.67086">
        <ele>2489</ele>
        <time>2020-09-16T14:15:07+02:00</time>
      </trkpt>
      <trkpt lat="44.33605" lon="6.67089">
        <ele>2492</ele>
        <time>2020-09-16T14:15:25+02:00</time>
      </trkpt>
      <trkpt lat="44.33604" lon="6.67091">
        <ele>2490</ele>
        <time>2020-09-16T14:15:43+02:00</time>
      </trkpt>
      <trkpt lat="44.33607" lon="6.67093">
        <ele>2494</ele>
        <time>2020-09-16T14:15:57+02:00</time>
      </trkpt>
      <trkpt lat="44.33606" lon="6.67102">
        <ele>2494</ele>
        <time>2020-09-16T14:16:13+02:00</time>
      </trkpt>
      <trkpt lat="44.33602" lon="6.67117">
        <ele>2490</ele>
        <time>2020-09-16T14:16:27+02:00</time>
      </trkpt>
      <trkpt lat="44.33597" lon="6.67127">
        <ele>2488</ele>
        <time>2020-09-16T14:16:42+02:00</time>
      </trkpt>
      <trkpt lat="44.33597" lon="6.67136">
        <ele>2489</ele>
        <time>2020-09-16T14:16:55+02:00</time>
      </trkpt>
      <trkpt lat="44.33596" lon="6.67143">
        <ele>2490</ele>
        <time>2020-09-16T14:17:09+02:00</time>
      </trkpt>
      <trkpt lat="44.33597" lon="6.67147">
        <ele>2490</ele>
        <time>2020-09-16T14:17:17+02:00</time>
      </trkpt>
      <trkpt lat="44.33594" lon="6.67153">
        <ele>2490</ele>
        <time>2020-09-16T14:17:29+02:00</time>
      </trkpt>
      <trkpt lat="44.33592" lon="6.67158">
        <ele>2491</ele>
        <time>2020-09-16T14:17:34+02:00</time>
      </trkpt>
      <trkpt lat="44.33587" lon="6.6717">
        <ele>2494</ele>
        <time>2020-09-16T14:17:44+02:00</time>
      </trkpt>
      <trkpt lat="44.33589" lon="6.67179">
        <ele>2493</ele>
        <time>2020-09-16T14:17:52+02:00</time>
      </trkpt>
      <trkpt lat="44.33593" lon="6.67188">
        <ele>2491</ele>
        <time>2020-09-16T14:18:08+02:00</time>
      </trkpt>
      <trkpt lat="44.3359" lon="6.67189">
        <ele>2493</ele>
        <time>2020-09-16T14:18:21+02:00</time>
      </trkpt>
      <trkpt lat="44.33582" lon="6.672">
        <ele>2494</ele>
        <time>2020-09-16T14:18:35+02:00</time>
      </trkpt>
      <trkpt lat="44.33582" lon="6.67202">
        <ele>2494</ele>
        <time>2020-09-16T14:18:46+02:00</time>
      </trkpt>
      <trkpt lat="44.33577" lon="6.67213">
        <ele>2489</ele>
        <time>2020-09-16T14:18:58+02:00</time>
      </trkpt>
      <trkpt lat="44.33578" lon="6.67218">
        <ele>2489</ele>
        <time>2020-09-16T14:19:11+02:00</time>
      </trkpt>
      <trkpt lat="44.3358" lon="6.6722">
        <ele>2490</ele>
        <time>2020-09-16T14:19:33+02:00</time>
      </trkpt>
      <trkpt lat="44.3358" lon="6.67221">
        <ele>2490</ele>
        <time>2020-09-16T14:19:37+02:00</time>
      </trkpt>
      <trkpt lat="44.33576" lon="6.67231">
        <ele>2486</ele>
        <time>2020-09-16T14:19:47+02:00</time>
      </trkpt>
      <trkpt lat="44.33574" lon="6.67241">
        <ele>2484</ele>
        <time>2020-09-16T14:19:55+02:00</time>
      </trkpt>
      <trkpt lat="44.33568" lon="6.67252">
        <ele>2480</ele>
        <time>2020-09-16T14:20:12+02:00</time>
      </trkpt>
      <trkpt lat="44.33567" lon="6.67263">
        <ele>2478</ele>
        <time>2020-09-16T14:20:24+02:00</time>
      </trkpt>
      <trkpt lat="44.33567" lon="6.67267">
        <ele>2478</ele>
        <time>2020-09-16T14:20:28+02:00</time>
      </trkpt>
      <trkpt lat="44.33567" lon="6.67285">
        <ele>2475</ele>
        <time>2020-09-16T14:20:40+02:00</time>
      </trkpt>
      <trkpt lat="44.33565" lon="6.67307">
        <ele>2472</ele>
        <time>2020-09-16T14:20:53+02:00</time>
      </trkpt>
      <trkpt lat="44.33565" lon="6.67315">
        <ele>2469</ele>
        <time>2020-09-16T14:20:59+02:00</time>
      </trkpt>
      <trkpt lat="44.33565" lon="6.67322">
        <ele>2467</ele>
        <time>2020-09-16T14:21:04+02:00</time>
      </trkpt>
      <trkpt lat="44.33572" lon="6.67335">
        <ele>2466</ele>
        <time>2020-09-16T14:21:20+02:00</time>
      </trkpt>
      <trkpt lat="44.33575" lon="6.6734">
        <ele>2466</ele>
        <time>2020-09-16T14:21:32+02:00</time>
      </trkpt>
      <trkpt lat="44.33577" lon="6.67349">
        <ele>2465</ele>
        <time>2020-09-16T14:21:41+02:00</time>
      </trkpt>
      <trkpt lat="44.33579" lon="6.67363">
        <ele>2463</ele>
        <time>2020-09-16T14:21:57+02:00</time>
      </trkpt>
      <trkpt lat="44.33579" lon="6.67374">
        <ele>2461</ele>
        <time>2020-09-16T14:22:12+02:00</time>
      </trkpt>
      <trkpt lat="44.33581" lon="6.67379">
        <ele>2462</ele>
        <time>2020-09-16T14:22:28+02:00</time>
      </trkpt>
      <trkpt lat="44.33579" lon="6.67386">
        <ele>2458</ele>
        <time>2020-09-16T14:22:50+02:00</time>
      </trkpt>
      <trkpt lat="44.33579" lon="6.67394">
        <ele>2456</ele>
        <time>2020-09-16T14:23:03+02:00</time>
      </trkpt>
      <trkpt lat="44.33581" lon="6.67401">
        <ele>2454</ele>
        <time>2020-09-16T14:23:19+02:00</time>
      </trkpt>
      <trkpt lat="44.33582" lon="6.6741">
        <ele>2450</ele>
        <time>2020-09-16T14:23:34+02:00</time>
      </trkpt>
      <trkpt lat="44.33582" lon="6.67419">
        <ele>2447</ele>
        <time>2020-09-16T14:23:48+02:00</time>
      </trkpt>
      <trkpt lat="44.33584" lon="6.67427">
        <ele>2444</ele>
        <time>2020-09-16T14:24:00+02:00</time>
      </trkpt>
      <trkpt lat="44.33584" lon="6.67428">
        <ele>2444</ele>
        <time>2020-09-16T14:24:01+02:00</time>
      </trkpt>
      <trkpt lat="44.33586" lon="6.67443">
        <ele>2438</ele>
        <time>2020-09-16T14:24:14+02:00</time>
      </trkpt>
      <trkpt lat="44.33588" lon="6.67458">
        <ele>2436</ele>
        <time>2020-09-16T14:24:29+02:00</time>
      </trkpt>
      <trkpt lat="44.3359" lon="6.6746">
        <ele>2436</ele>
        <time>2020-09-16T14:24:43+02:00</time>
      </trkpt>
      <trkpt lat="44.33591" lon="6.67458">
        <ele>2437</ele>
        <time>2020-09-16T14:25:06+02:00</time>
      </trkpt>
      <trkpt lat="44.33587" lon="6.67457">
        <ele>2436</ele>
        <time>2020-09-16T14:25:23+02:00</time>
      </trkpt>
      <trkpt lat="44.33591" lon="6.67458">
        <ele>2436</ele>
        <time>2020-09-16T14:25:38+02:00</time>
      </trkpt>
      <trkpt lat="44.33589" lon="6.67458">
        <ele>2436</ele>
        <time>2020-09-16T14:26:00+02:00</time>
      </trkpt>
      <trkpt lat="44.3359" lon="6.67456">
        <ele>2437</ele>
        <time>2020-09-16T14:26:32+02:00</time>
      </trkpt>
      <trkpt lat="44.3359" lon="6.67456">
        <ele>2437</ele>
        <time>2020-09-16T14:27:01+02:00</time>
      </trkpt>
      <trkpt lat="44.33589" lon="6.67454">
        <ele>2437</ele>
        <time>2020-09-16T14:27:38+02:00</time>
      </trkpt>
      <trkpt lat="44.33589" lon="6.67453">
        <ele>2437</ele>
        <time>2020-09-16T14:28:09+02:00</time>
      </trkpt>
      <trkpt lat="44.33589" lon="6.67452">
        <ele>2437</ele>
        <time>2020-09-16T14:28:40+02:00</time>
      </trkpt>
      <trkpt lat="44.33589" lon="6.67456">
        <ele>2436</ele>
        <time>2020-09-16T14:29:21+02:00</time>
      </trkpt>
      <trkpt lat="44.33589" lon="6.67457">
        <ele>2436</ele>
        <time>2020-09-16T14:29:53+02:00</time>
      </trkpt>
      <trkpt lat="44.33589" lon="6.67457">
        <ele>2436</ele>
        <time>2020-09-16T14:30:24+02:00</time>
      </trkpt>
      <trkpt lat="44.3359" lon="6.67457">
        <ele>2436</ele>
        <time>2020-09-16T14:30:51+02:00</time>
      </trkpt>
      <trkpt lat="44.33589" lon="6.67458">
        <ele>2436</ele>
        <time>2020-09-16T14:31:27+02:00</time>
      </trkpt>
      <trkpt lat="44.3359" lon="6.67457">
        <ele>2436</ele>
        <time>2020-09-16T14:31:54+02:00</time>
      </trkpt>
      <trkpt lat="44.33589" lon="6.67458">
        <ele>2436</ele>
        <time>2020-09-16T14:32:10+02:00</time>
      </trkpt>
      <trkpt lat="44.3359" lon="6.67461">
        <ele>2436</ele>
        <time>2020-09-16T14:32:25+02:00</time>
      </trkpt>
      <trkpt lat="44.3359" lon="6.67462">
        <ele>2436</ele>
        <time>2020-09-16T14:32:45+02:00</time>
      </trkpt>
      <trkpt lat="44.3359" lon="6.67461">
        <ele>2436</ele>
        <time>2020-09-16T14:33:04+02:00</time>
      </trkpt>
      <trkpt lat="44.3359" lon="6.67461">
        <ele>2436</ele>
        <time>2020-09-16T14:33:05+02:00</time>
      </trkpt>
      <trkpt lat="44.33589" lon="6.67457">
        <ele>2436</ele>
        <time>2020-09-16T14:33:17+02:00</time>
      </trkpt>
      <trkpt lat="44.33588" lon="6.67457">
        <ele>2436</ele>
        <time>2020-09-16T14:33:50+02:00</time>
      </trkpt>
      <trkpt lat="44.33588" lon="6.67458">
        <ele>2436</ele>
        <time>2020-09-16T14:34:15+02:00</time>
      </trkpt>
      <trkpt lat="44.33588" lon="6.67459">
        <ele>2436</ele>
        <time>2020-09-16T14:34:30+02:00</time>
      </trkpt>
      <trkpt lat="44.3359" lon="6.67461">
        <ele>2436</ele>
        <time>2020-09-16T14:34:45+02:00</time>
      </trkpt>
      <trkpt lat="44.3359" lon="6.67461">
        <ele>2436</ele>
        <time>2020-09-16T14:35:11+02:00</time>
      </trkpt>
      <trkpt lat="44.33587" lon="6.67466">
        <ele>2435</ele>
        <time>2020-09-16T14:35:31+02:00</time>
      </trkpt>
      <trkpt lat="44.33586" lon="6.67482">
        <ele>2433</ele>
        <time>2020-09-16T14:35:44+02:00</time>
      </trkpt>
      <trkpt lat="44.33584" lon="6.67493">
        <ele>2432</ele>
        <time>2020-09-16T14:35:59+02:00</time>
      </trkpt>
      <trkpt lat="44.33583" lon="6.67504">
        <ele>2430</ele>
        <time>2020-09-16T14:36:13+02:00</time>
      </trkpt>
      <trkpt lat="44.33583" lon="6.67509">
        <ele>2429</ele>
        <time>2020-09-16T14:36:18+02:00</time>
      </trkpt>
      <trkpt lat="44.33582" lon="6.67515">
        <ele>2428</ele>
        <time>2020-09-16T14:36:23+02:00</time>
      </trkpt>
      <trkpt lat="44.33581" lon="6.67534">
        <ele>2424</ele>
        <time>2020-09-16T14:36:37+02:00</time>
      </trkpt>
      <trkpt lat="44.33576" lon="6.67544">
        <ele>2418</ele>
        <time>2020-09-16T14:36:50+02:00</time>
      </trkpt>
      <trkpt lat="44.33573" lon="6.67554">
        <ele>2414</ele>
        <time>2020-09-16T14:37:03+02:00</time>
      </trkpt>
      <trkpt lat="44.3357" lon="6.67565">
        <ele>2410</ele>
        <time>2020-09-16T14:37:18+02:00</time>
      </trkpt>
      <trkpt lat="44.33567" lon="6.67573">
        <ele>2405</ele>
        <time>2020-09-16T14:37:29+02:00</time>
      </trkpt>
      <trkpt lat="44.33566" lon="6.67574">
        <ele>2405</ele>
        <time>2020-09-16T14:37:30+02:00</time>
      </trkpt>
      <trkpt lat="44.33564" lon="6.67582">
        <ele>2402</ele>
        <time>2020-09-16T14:37:40+02:00</time>
      </trkpt>
      <trkpt lat="44.33561" lon="6.67594">
        <ele>2398</ele>
        <time>2020-09-16T14:37:55+02:00</time>
      </trkpt>
      <trkpt lat="44.33558" lon="6.676">
        <ele>2395</ele>
        <time>2020-09-16T14:38:05+02:00</time>
      </trkpt>
      <trkpt lat="44.33554" lon="6.67608">
        <ele>2392</ele>
        <time>2020-09-16T14:38:17+02:00</time>
      </trkpt>
      <trkpt lat="44.33553" lon="6.6762">
        <ele>2389</ele>
        <time>2020-09-16T14:38:32+02:00</time>
      </trkpt>
      <trkpt lat="44.33552" lon="6.67629">
        <ele>2387</ele>
        <time>2020-09-16T14:38:45+02:00</time>
      </trkpt>
      <trkpt lat="44.33548" lon="6.67634">
        <ele>2385</ele>
        <time>2020-09-16T14:38:57+02:00</time>
      </trkpt>
      <trkpt lat="44.33543" lon="6.6764">
        <ele>2382</ele>
        <time>2020-09-16T14:39:10+02:00</time>
      </trkpt>
      <trkpt lat="44.33538" lon="6.67647">
        <ele>2379</ele>
        <time>2020-09-16T14:39:21+02:00</time>
      </trkpt>
      <trkpt lat="44.33533" lon="6.67652">
        <ele>2377</ele>
        <time>2020-09-16T14:39:35+02:00</time>
      </trkpt>
      <trkpt lat="44.33528" lon="6.67665">
        <ele>2374</ele>
        <time>2020-09-16T14:39:47+02:00</time>
      </trkpt>
      <trkpt lat="44.33527" lon="6.67667">
        <ele>2374</ele>
        <time>2020-09-16T14:39:49+02:00</time>
      </trkpt>
      <trkpt lat="44.33523" lon="6.67669">
        <ele>2371</ele>
        <time>2020-09-16T14:39:53+02:00</time>
      </trkpt>
      <trkpt lat="44.33522" lon="6.67675">
        <ele>2370</ele>
        <time>2020-09-16T14:39:58+02:00</time>
      </trkpt>
      <trkpt lat="44.33524" lon="6.67697">
        <ele>2371</ele>
        <time>2020-09-16T14:40:14+02:00</time>
      </trkpt>
      <trkpt lat="44.33522" lon="6.67707">
        <ele>2369</ele>
        <time>2020-09-16T14:40:27+02:00</time>
      </trkpt>
      <trkpt lat="44.33519" lon="6.6772">
        <ele>2368</ele>
        <time>2020-09-16T14:40:41+02:00</time>
      </trkpt>
      <trkpt lat="44.33514" lon="6.6774">
        <ele>2367</ele>
        <time>2020-09-16T14:40:58+02:00</time>
      </trkpt>
      <trkpt lat="44.33511" lon="6.67742">
        <ele>2366</ele>
        <time>2020-09-16T14:41:13+02:00</time>
      </trkpt>
      <trkpt lat="44.33507" lon="6.67751">
        <ele>2366</ele>
        <time>2020-09-16T14:41:28+02:00</time>
      </trkpt>
      <trkpt lat="44.33505" lon="6.67773">
        <ele>2367</ele>
        <time>2020-09-16T14:41:46+02:00</time>
      </trkpt>
      <trkpt lat="44.33495" lon="6.67795">
        <ele>2366</ele>
        <time>2020-09-16T14:42:06+02:00</time>
      </trkpt>
      <trkpt lat="44.33494" lon="6.67814">
        <ele>2368</ele>
        <time>2020-09-16T14:42:19+02:00</time>
      </trkpt>
      <trkpt lat="44.33491" lon="6.67836">
        <ele>2368</ele>
        <time>2020-09-16T14:42:36+02:00</time>
      </trkpt>
      <trkpt lat="44.33485" lon="6.67857">
        <ele>2364</ele>
        <time>2020-09-16T14:42:54+02:00</time>
      </trkpt>
      <trkpt lat="44.33476" lon="6.67862">
        <ele>2359</ele>
        <time>2020-09-16T14:43:14+02:00</time>
      </trkpt>
      <trkpt lat="44.33472" lon="6.67877">
        <ele>2355</ele>
        <time>2020-09-16T14:43:25+02:00</time>
      </trkpt>
      <trkpt lat="44.33466" lon="6.67886">
        <ele>2350</ele>
        <time>2020-09-16T14:43:41+02:00</time>
      </trkpt>
      <trkpt lat="44.33467" lon="6.679">
        <ele>2348</ele>
        <time>2020-09-16T14:43:55+02:00</time>
      </trkpt>
      <trkpt lat="44.3347" lon="6.67912">
        <ele>2348</ele>
        <time>2020-09-16T14:44:09+02:00</time>
      </trkpt>
      <trkpt lat="44.33463" lon="6.67914">
        <ele>2344</ele>
        <time>2020-09-16T14:44:23+02:00</time>
      </trkpt>
      <trkpt lat="44.33454" lon="6.67906">
        <ele>2341</ele>
        <time>2020-09-16T14:44:39+02:00</time>
      </trkpt>
      <trkpt lat="44.33448" lon="6.67909">
        <ele>2338</ele>
        <time>2020-09-16T14:44:57+02:00</time>
      </trkpt>
      <trkpt lat="44.3345" lon="6.67921">
        <ele>2338</ele>
        <time>2020-09-16T14:45:09+02:00</time>
      </trkpt>
      <trkpt lat="44.33451" lon="6.67928">
        <ele>2338</ele>
        <time>2020-09-16T14:45:14+02:00</time>
      </trkpt>
      <trkpt lat="44.33443" lon="6.6794">
        <ele>2334</ele>
        <time>2020-09-16T14:45:26+02:00</time>
      </trkpt>
      <trkpt lat="44.33434" lon="6.67944">
        <ele>2329</ele>
        <time>2020-09-16T14:45:41+02:00</time>
      </trkpt>
      <trkpt lat="44.33423" lon="6.6795">
        <ele>2323</ele>
        <time>2020-09-16T14:46:01+02:00</time>
      </trkpt>
      <trkpt lat="44.33416" lon="6.67958">
        <ele>2319</ele>
        <time>2020-09-16T14:46:17+02:00</time>
      </trkpt>
      <trkpt lat="44.33409" lon="6.67961">
        <ele>2314</ele>
        <time>2020-09-16T14:46:34+02:00</time>
      </trkpt>
      <trkpt lat="44.33402" lon="6.6797">
        <ele>2309</ele>
        <time>2020-09-16T14:46:50+02:00</time>
      </trkpt>
      <trkpt lat="44.334" lon="6.67985">
        <ele>2308</ele>
        <time>2020-09-16T14:47:03+02:00</time>
      </trkpt>
      <trkpt lat="44.33397" lon="6.68001">
        <ele>2306</ele>
        <time>2020-09-16T14:47:19+02:00</time>
      </trkpt>
      <trkpt lat="44.33395" lon="6.68009">
        <ele>2307</ele>
        <time>2020-09-16T14:47:32+02:00</time>
      </trkpt>
      <trkpt lat="44.33387" lon="6.68023">
        <ele>2305</ele>
        <time>2020-09-16T14:47:51+02:00</time>
      </trkpt>
      <trkpt lat="44.33376" lon="6.68037">
        <ele>2303</ele>
        <time>2020-09-16T14:48:13+02:00</time>
      </trkpt>
      <trkpt lat="44.33366" lon="6.68051">
        <ele>2302</ele>
        <time>2020-09-16T14:48:29+02:00</time>
      </trkpt>
      <trkpt lat="44.33357" lon="6.6807">
        <ele>2304</ele>
        <time>2020-09-16T14:48:48+02:00</time>
      </trkpt>
      <trkpt lat="44.33347" lon="6.68085">
        <ele>2306</ele>
        <time>2020-09-16T14:49:03+02:00</time>
      </trkpt>
      <trkpt lat="44.33341" lon="6.68087">
        <ele>2305</ele>
        <time>2020-09-16T14:49:10+02:00</time>
      </trkpt>
      <trkpt lat="44.33323" lon="6.68103">
        <ele>2304</ele>
        <time>2020-09-16T14:49:31+02:00</time>
      </trkpt>
      <trkpt lat="44.3331" lon="6.68116">
        <ele>2304</ele>
        <time>2020-09-16T14:49:49+02:00</time>
      </trkpt>
      <trkpt lat="44.33307" lon="6.68135">
        <ele>2307</ele>
        <time>2020-09-16T14:50:06+02:00</time>
      </trkpt>
      <trkpt lat="44.33304" lon="6.68159">
        <ele>2309</ele>
        <time>2020-09-16T14:50:25+02:00</time>
      </trkpt>
      <trkpt lat="44.33299" lon="6.68182">
        <ele>2310</ele>
        <time>2020-09-16T14:50:45+02:00</time>
      </trkpt>
      <trkpt lat="44.33298" lon="6.68202">
        <ele>2312</ele>
        <time>2020-09-16T14:51:02+02:00</time>
      </trkpt>
      <trkpt lat="44.33294" lon="6.6822">
        <ele>2312</ele>
        <time>2020-09-16T14:51:20+02:00</time>
      </trkpt>
      <trkpt lat="44.33296" lon="6.68238">
        <ele>2313</ele>
        <time>2020-09-16T14:51:35+02:00</time>
      </trkpt>
      <trkpt lat="44.33296" lon="6.6825">
        <ele>2314</ele>
        <time>2020-09-16T14:51:44+02:00</time>
      </trkpt>
      <trkpt lat="44.33292" lon="6.68279">
        <ele>2314</ele>
        <time>2020-09-16T14:52:06+02:00</time>
      </trkpt>
      <trkpt lat="44.33287" lon="6.68305">
        <ele>2314</ele>
        <time>2020-09-16T14:52:26+02:00</time>
      </trkpt>
      <trkpt lat="44.33277" lon="6.68332">
        <ele>2314</ele>
        <time>2020-09-16T14:52:45+02:00</time>
      </trkpt>
      <trkpt lat="44.33277" lon="6.68338">
        <ele>2313</ele>
        <time>2020-09-16T14:52:49+02:00</time>
      </trkpt>
      <trkpt lat="44.33275" lon="6.68354">
        <ele>2312</ele>
        <time>2020-09-16T14:53:11+02:00</time>
      </trkpt>
      <trkpt lat="44.33271" lon="6.68383">
        <ele>2310</ele>
        <time>2020-09-16T14:53:31+02:00</time>
      </trkpt>
      <trkpt lat="44.33275" lon="6.68407">
        <ele>2310</ele>
        <time>2020-09-16T14:53:47+02:00</time>
      </trkpt>
      <trkpt lat="44.33278" lon="6.68439">
        <ele>2309</ele>
        <time>2020-09-16T14:54:05+02:00</time>
      </trkpt>
      <trkpt lat="44.33274" lon="6.68446">
        <ele>2309</ele>
        <time>2020-09-16T14:54:10+02:00</time>
      </trkpt>
      <trkpt lat="44.33264" lon="6.68482">
        <ele>2307</ele>
        <time>2020-09-16T14:54:34+02:00</time>
      </trkpt>
      <trkpt lat="44.33258" lon="6.68503">
        <ele>2306</ele>
        <time>2020-09-16T14:54:52+02:00</time>
      </trkpt>
      <trkpt lat="44.33249" lon="6.68531">
        <ele>2302</ele>
        <time>2020-09-16T14:55:13+02:00</time>
      </trkpt>
      <trkpt lat="44.33244" lon="6.68552">
        <ele>2300</ele>
        <time>2020-09-16T14:55:31+02:00</time>
      </trkpt>
      <trkpt lat="44.33242" lon="6.6856">
        <ele>2299</ele>
        <time>2020-09-16T14:55:38+02:00</time>
      </trkpt>
      <trkpt lat="44.33239" lon="6.68579">
        <ele>2298</ele>
        <time>2020-09-16T14:55:52+02:00</time>
      </trkpt>
      <trkpt lat="44.33232" lon="6.68598">
        <ele>2298</ele>
        <time>2020-09-16T14:56:06+02:00</time>
      </trkpt>
      <trkpt lat="44.33212" lon="6.68631">
        <ele>2295</ele>
        <time>2020-09-16T14:56:31+02:00</time>
      </trkpt>
      <trkpt lat="44.33204" lon="6.68664">
        <ele>2295</ele>
        <time>2020-09-16T14:56:54+02:00</time>
      </trkpt>
      <trkpt lat="44.33198" lon="6.68686">
        <ele>2296</ele>
        <time>2020-09-16T14:57:11+02:00</time>
      </trkpt>
      <trkpt lat="44.33185" lon="6.68713">
        <ele>2295</ele>
        <time>2020-09-16T14:57:32+02:00</time>
      </trkpt>
      <trkpt lat="44.33175" lon="6.68734">
        <ele>2295</ele>
        <time>2020-09-16T14:57:53+02:00</time>
      </trkpt>
      <trkpt lat="44.33161" lon="6.68763">
        <ele>2295</ele>
        <time>2020-09-16T14:58:16+02:00</time>
      </trkpt>
      <trkpt lat="44.33156" lon="6.68783">
        <ele>2297</ele>
        <time>2020-09-16T14:58:31+02:00</time>
      </trkpt>
      <trkpt lat="44.33156" lon="6.6879">
        <ele>2298</ele>
        <time>2020-09-16T14:58:47+02:00</time>
      </trkpt>
      <trkpt lat="44.33155" lon="6.68788">
        <ele>2297</ele>
        <time>2020-09-16T14:59:09+02:00</time>
      </trkpt>
      <trkpt lat="44.33155" lon="6.6879">
        <ele>2298</ele>
        <time>2020-09-16T14:59:24+02:00</time>
      </trkpt>
      <trkpt lat="44.33152" lon="6.68795">
        <ele>2297</ele>
        <time>2020-09-16T14:59:28+02:00</time>
      </trkpt>
      <trkpt lat="44.33141" lon="6.68816">
        <ele>2295</ele>
        <time>2020-09-16T14:59:43+02:00</time>
      </trkpt>
      <trkpt lat="44.3314" lon="6.68826">
        <ele>2295</ele>
        <time>2020-09-16T14:59:50+02:00</time>
      </trkpt>
      <trkpt lat="44.33139" lon="6.68851">
        <ele>2296</ele>
        <time>2020-09-16T15:00:08+02:00</time>
      </trkpt>
      <trkpt lat="44.33139" lon="6.68854">
        <ele>2296</ele>
        <time>2020-09-16T15:00:11+02:00</time>
      </trkpt>
      <trkpt lat="44.33142" lon="6.68869">
        <ele>2298</ele>
        <time>2020-09-16T15:00:22+02:00</time>
      </trkpt>
      <trkpt lat="44.33141" lon="6.68891">
        <ele>2300</ele>
        <time>2020-09-16T15:00:39+02:00</time>
      </trkpt>
      <trkpt lat="44.33134" lon="6.68911">
        <ele>2298</ele>
        <time>2020-09-16T15:00:59+02:00</time>
      </trkpt>
      <trkpt lat="44.33133" lon="6.68913">
        <ele>2298</ele>
        <time>2020-09-16T15:01:02+02:00</time>
      </trkpt>
      <trkpt lat="44.33132" lon="6.68916">
        <ele>2298</ele>
        <time>2020-09-16T15:01:08+02:00</time>
      </trkpt>
      <trkpt lat="44.33119" lon="6.68936">
        <ele>2297</ele>
        <time>2020-09-16T15:01:27+02:00</time>
      </trkpt>
      <trkpt lat="44.33114" lon="6.68949">
        <ele>2299</ele>
        <time>2020-09-16T15:01:38+02:00</time>
      </trkpt>
      <trkpt lat="44.33112" lon="6.68953">
        <ele>2300</ele>
        <time>2020-09-16T15:01:42+02:00</time>
      </trkpt>
      <trkpt lat="44.33108" lon="6.68962">
        <ele>2303</ele>
        <time>2020-09-16T15:01:55+02:00</time>
      </trkpt>
      <trkpt lat="44.33106" lon="6.68964">
        <ele>2303</ele>
        <time>2020-09-16T15:01:57+02:00</time>
      </trkpt>
      <trkpt lat="44.33096" lon="6.68969">
        <ele>2303</ele>
        <time>2020-09-16T15:02:12+02:00</time>
      </trkpt>
      <trkpt lat="44.33076" lon="6.68977">
        <ele>2302</ele>
        <time>2020-09-16T15:02:31+02:00</time>
      </trkpt>
      <trkpt lat="44.33064" lon="6.68988">
        <ele>2301</ele>
        <time>2020-09-16T15:02:48+02:00</time>
      </trkpt>
      <trkpt lat="44.33061" lon="6.68994">
        <ele>2301</ele>
        <time>2020-09-16T15:02:53+02:00</time>
      </trkpt>
      <trkpt lat="44.33056" lon="6.6901">
        <ele>2301</ele>
        <time>2020-09-16T15:03:05+02:00</time>
      </trkpt>
      <trkpt lat="44.33045" lon="6.69033">
        <ele>2298</ele>
        <time>2020-09-16T15:03:25+02:00</time>
      </trkpt>
      <trkpt lat="44.33046" lon="6.69062">
        <ele>2295</ele>
        <time>2020-09-16T15:03:45+02:00</time>
      </trkpt>
      <trkpt lat="44.33052" lon="6.69078">
        <ele>2294</ele>
        <time>2020-09-16T15:04:03+02:00</time>
      </trkpt>
      <trkpt lat="44.33053" lon="6.69091">
        <ele>2292</ele>
        <time>2020-09-16T15:04:12+02:00</time>
      </trkpt>
      <trkpt lat="44.33052" lon="6.69101">
        <ele>2291</ele>
        <time>2020-09-16T15:04:18+02:00</time>
      </trkpt>
      <trkpt lat="44.3305" lon="6.69108">
        <ele>2290</ele>
        <time>2020-09-16T15:04:23+02:00</time>
      </trkpt>
      <trkpt lat="44.33045" lon="6.69137">
        <ele>2287</ele>
        <time>2020-09-16T15:04:42+02:00</time>
      </trkpt>
      <trkpt lat="44.33037" lon="6.69166">
        <ele>2281</ele>
        <time>2020-09-16T15:05:04+02:00</time>
      </trkpt>
      <trkpt lat="44.33034" lon="6.6919">
        <ele>2279</ele>
        <time>2020-09-16T15:05:22+02:00</time>
      </trkpt>
      <trkpt lat="44.33025" lon="6.69214">
        <ele>2275</ele>
        <time>2020-09-16T15:05:43+02:00</time>
      </trkpt>
      <trkpt lat="44.33018" lon="6.69239">
        <ele>2273</ele>
        <time>2020-09-16T15:06:03+02:00</time>
      </trkpt>
      <trkpt lat="44.33011" lon="6.69247">
        <ele>2271</ele>
        <time>2020-09-16T15:06:14+02:00</time>
      </trkpt>
      <trkpt lat="44.33003" lon="6.69272">
        <ele>2268</ele>
        <time>2020-09-16T15:06:32+02:00</time>
      </trkpt>
      <trkpt lat="44.32996" lon="6.69293">
        <ele>2265</ele>
        <time>2020-09-16T15:06:49+02:00</time>
      </trkpt>
      <trkpt lat="44.32995" lon="6.69307">
        <ele>2264</ele>
        <time>2020-09-16T15:07:02+02:00</time>
      </trkpt>
      <trkpt lat="44.32993" lon="6.69319">
        <ele>2263</ele>
        <time>2020-09-16T15:07:18+02:00</time>
      </trkpt>
      <trkpt lat="44.32983" lon="6.69331">
        <ele>2258</ele>
        <time>2020-09-16T15:07:36+02:00</time>
      </trkpt>
      <trkpt lat="44.32985" lon="6.69329">
        <ele>2259</ele>
        <time>2020-09-16T15:08:06+02:00</time>
      </trkpt>
      <trkpt lat="44.32979" lon="6.69333">
        <ele>2257</ele>
        <time>2020-09-16T15:08:21+02:00</time>
      </trkpt>
      <trkpt lat="44.32975" lon="6.69342">
        <ele>2255</ele>
        <time>2020-09-16T15:08:34+02:00</time>
      </trkpt>
      <trkpt lat="44.3297" lon="6.69356">
        <ele>2252</ele>
        <time>2020-09-16T15:08:49+02:00</time>
      </trkpt>
      <trkpt lat="44.32967" lon="6.69361">
        <ele>2250</ele>
        <time>2020-09-16T15:08:59+02:00</time>
      </trkpt>
      <trkpt lat="44.32961" lon="6.69364">
        <ele>2247</ele>
        <time>2020-09-16T15:09:12+02:00</time>
      </trkpt>
      <trkpt lat="44.32957" lon="6.69371">
        <ele>2244</ele>
        <time>2020-09-16T15:09:23+02:00</time>
      </trkpt>
      <trkpt lat="44.32951" lon="6.69383">
        <ele>2240</ele>
        <time>2020-09-16T15:09:40+02:00</time>
      </trkpt>
      <trkpt lat="44.32946" lon="6.69392">
        <ele>2237</ele>
        <time>2020-09-16T15:09:55+02:00</time>
      </trkpt>
      <trkpt lat="44.32941" lon="6.69386">
        <ele>2235</ele>
        <time>2020-09-16T15:10:08+02:00</time>
      </trkpt>
      <trkpt lat="44.32939" lon="6.69382">
        <ele>2235</ele>
        <time>2020-09-16T15:10:29+02:00</time>
      </trkpt>
      <trkpt lat="44.32932" lon="6.6938">
        <ele>2232</ele>
        <time>2020-09-16T15:10:45+02:00</time>
      </trkpt>
      <trkpt lat="44.32926" lon="6.6938">
        <ele>2231</ele>
        <time>2020-09-16T15:10:59+02:00</time>
      </trkpt>
      <trkpt lat="44.32925" lon="6.6938">
        <ele>2230</ele>
        <time>2020-09-16T15:11:01+02:00</time>
      </trkpt>
      <trkpt lat="44.32924" lon="6.69379">
        <ele>2230</ele>
        <time>2020-09-16T15:11:03+02:00</time>
      </trkpt>
      <trkpt lat="44.32914" lon="6.69375">
        <ele>2227</ele>
        <time>2020-09-16T15:11:19+02:00</time>
      </trkpt>
      <trkpt lat="44.32913" lon="6.69385">
        <ele>2227</ele>
        <time>2020-09-16T15:11:31+02:00</time>
      </trkpt>
      <trkpt lat="44.32902" lon="6.69394">
        <ele>2227</ele>
        <time>2020-09-16T15:11:47+02:00</time>
      </trkpt>
      <trkpt lat="44.32885" lon="6.69406">
        <ele>2225</ele>
        <time>2020-09-16T15:12:05+02:00</time>
      </trkpt>
      <trkpt lat="44.32881" lon="6.69413">
        <ele>2224</ele>
        <time>2020-09-16T15:12:13+02:00</time>
      </trkpt>
      <trkpt lat="44.32878" lon="6.69419">
        <ele>2223</ele>
        <time>2020-09-16T15:12:17+02:00</time>
      </trkpt>
      <trkpt lat="44.32868" lon="6.69451">
        <ele>2217</ele>
        <time>2020-09-16T15:12:38+02:00</time>
      </trkpt>
      <trkpt lat="44.32855" lon="6.69472">
        <ele>2213</ele>
        <time>2020-09-16T15:12:57+02:00</time>
      </trkpt>
      <trkpt lat="44.32845" lon="6.69485">
        <ele>2212</ele>
        <time>2020-09-16T15:13:12+02:00</time>
      </trkpt>
      <trkpt lat="44.32837" lon="6.69503">
        <ele>2211</ele>
        <time>2020-09-16T15:13:31+02:00</time>
      </trkpt>
      <trkpt lat="44.32838" lon="6.69503">
        <ele>2211</ele>
        <time>2020-09-16T15:13:45+02:00</time>
      </trkpt>
      <trkpt lat="44.32838" lon="6.69505">
        <ele>2211</ele>
        <time>2020-09-16T15:14:04+02:00</time>
      </trkpt>
      <trkpt lat="44.32839" lon="6.69506">
        <ele>2211</ele>
        <time>2020-09-16T15:14:07+02:00</time>
      </trkpt>
      <trkpt lat="44.32839" lon="6.69506">
        <ele>2211</ele>
        <time>2020-09-16T15:14:16+02:00</time>
      </trkpt>
      <trkpt lat="44.32837" lon="6.69502">
        <ele>2211</ele>
        <time>2020-09-16T15:14:45+02:00</time>
      </trkpt>
      <trkpt lat="44.32836" lon="6.69503">
        <ele>2211</ele>
        <time>2020-09-16T15:15:11+02:00</time>
      </trkpt>
      <trkpt lat="44.32836" lon="6.69507">
        <ele>2211</ele>
        <time>2020-09-16T15:15:33+02:00</time>
      </trkpt>
      <trkpt lat="44.32842" lon="6.69537">
        <ele>2214</ele>
        <time>2020-09-16T15:15:54+02:00</time>
      </trkpt>
      <trkpt lat="44.32842" lon="6.69544">
        <ele>2215</ele>
        <time>2020-09-16T15:15:59+02:00</time>
      </trkpt>
      <trkpt lat="44.32842" lon="6.69559">
        <ele>2217</ele>
        <time>2020-09-16T15:16:13+02:00</time>
      </trkpt>
      <trkpt lat="44.32846" lon="6.69572">
        <ele>2220</ele>
        <time>2020-09-16T15:16:28+02:00</time>
      </trkpt>
      <trkpt lat="44.32847" lon="6.69581">
        <ele>2222</ele>
        <time>2020-09-16T15:16:40+02:00</time>
      </trkpt>
      <trkpt lat="44.32846" lon="6.69598">
        <ele>2222</ele>
        <time>2020-09-16T15:16:58+02:00</time>
      </trkpt>
      <trkpt lat="44.32851" lon="6.6961">
        <ele>2224</ele>
        <time>2020-09-16T15:17:14+02:00</time>
      </trkpt>
      <trkpt lat="44.32862" lon="6.69617">
        <ele>2228</ele>
        <time>2020-09-16T15:17:30+02:00</time>
      </trkpt>
      <trkpt lat="44.32869" lon="6.69631">
        <ele>2231</ele>
        <time>2020-09-16T15:17:47+02:00</time>
      </trkpt>
      <trkpt lat="44.32875" lon="6.69642">
        <ele>2233</ele>
        <time>2020-09-16T15:18:05+02:00</time>
      </trkpt>
      <trkpt lat="44.32876" lon="6.69654">
        <ele>2233</ele>
        <time>2020-09-16T15:18:23+02:00</time>
      </trkpt>
      <trkpt lat="44.32879" lon="6.69664">
        <ele>2234</ele>
        <time>2020-09-16T15:18:37+02:00</time>
      </trkpt>
      <trkpt lat="44.32883" lon="6.69678">
        <ele>2233</ele>
        <time>2020-09-16T15:18:53+02:00</time>
      </trkpt>
      <trkpt lat="44.32888" lon="6.69677">
        <ele>2235</ele>
        <time>2020-09-16T15:19:10+02:00</time>
      </trkpt>
      <trkpt lat="44.32896" lon="6.69674">
        <ele>2236</ele>
        <time>2020-09-16T15:19:30+02:00</time>
      </trkpt>
      <trkpt lat="44.32896" lon="6.69675">
        <ele>2236</ele>
        <time>2020-09-16T15:19:54+02:00</time>
      </trkpt>
      <trkpt lat="44.32894" lon="6.69676">
        <ele>2236</ele>
        <time>2020-09-16T15:20:20+02:00</time>
      </trkpt>
      <trkpt lat="44.32897" lon="6.69673">
        <ele>2237</ele>
        <time>2020-09-16T15:20:46+02:00</time>
      </trkpt>
      <trkpt lat="44.329" lon="6.69673">
        <ele>2236</ele>
        <time>2020-09-16T15:21:05+02:00</time>
      </trkpt>
      <trkpt lat="44.32904" lon="6.69672">
        <ele>2236</ele>
        <time>2020-09-16T15:21:29+02:00</time>
      </trkpt>
      <trkpt lat="44.32914" lon="6.69665">
        <ele>2238</ele>
        <time>2020-09-16T15:21:49+02:00</time>
      </trkpt>
      <trkpt lat="44.32924" lon="6.69658">
        <ele>2241</ele>
        <time>2020-09-16T15:22:09+02:00</time>
      </trkpt>
      <trkpt lat="44.32933" lon="6.69652">
        <ele>2245</ele>
        <time>2020-09-16T15:22:26+02:00</time>
      </trkpt>
      <trkpt lat="44.32946" lon="6.69645">
        <ele>2249</ele>
        <time>2020-09-16T15:22:46+02:00</time>
      </trkpt>
      <trkpt lat="44.32956" lon="6.6964">
        <ele>2252</ele>
        <time>2020-09-16T15:23:02+02:00</time>
      </trkpt>
      <trkpt lat="44.32967" lon="6.69643">
        <ele>2252</ele>
        <time>2020-09-16T15:23:18+02:00</time>
      </trkpt>
      <trkpt lat="44.32978" lon="6.69642">
        <ele>2254</ele>
        <time>2020-09-16T15:23:35+02:00</time>
      </trkpt>
      <trkpt lat="44.32991" lon="6.69638">
        <ele>2259</ele>
        <time>2020-09-16T15:23:55+02:00</time>
      </trkpt>
      <trkpt lat="44.33004" lon="6.69641">
        <ele>2261</ele>
        <time>2020-09-16T15:24:15+02:00</time>
      </trkpt>
      <trkpt lat="44.33025" lon="6.69643">
        <ele>2266</ele>
        <time>2020-09-16T15:24:42+02:00</time>
      </trkpt>
      <trkpt lat="44.3304" lon="6.69649">
        <ele>2270</ele>
        <time>2020-09-16T15:25:05+02:00</time>
      </trkpt>
      <trkpt lat="44.33051" lon="6.69657">
        <ele>2271</ele>
        <time>2020-09-16T15:25:23+02:00</time>
      </trkpt>
      <trkpt lat="44.33063" lon="6.69667">
        <ele>2273</ele>
        <time>2020-09-16T15:25:44+02:00</time>
      </trkpt>
      <trkpt lat="44.3307" lon="6.69677">
        <ele>2274</ele>
        <time>2020-09-16T15:26:03+02:00</time>
      </trkpt>
      <trkpt lat="44.33078" lon="6.69686">
        <ele>2276</ele>
        <time>2020-09-16T15:26:20+02:00</time>
      </trkpt>
      <trkpt lat="44.33087" lon="6.69693">
        <ele>2279</ele>
        <time>2020-09-16T15:26:37+02:00</time>
      </trkpt>
      <trkpt lat="44.33105" lon="6.69704">
        <ele>2287</ele>
        <time>2020-09-16T15:27:01+02:00</time>
      </trkpt>
      <trkpt lat="44.33115" lon="6.69715">
        <ele>2289</ele>
        <time>2020-09-16T15:27:22+02:00</time>
      </trkpt>
      <trkpt lat="44.33122" lon="6.69726">
        <ele>2289</ele>
        <time>2020-09-16T15:27:39+02:00</time>
      </trkpt>
      <trkpt lat="44.33132" lon="6.69736">
        <ele>2289</ele>
        <time>2020-09-16T15:27:58+02:00</time>
      </trkpt>
      <trkpt lat="44.33139" lon="6.69739">
        <ele>2291</ele>
        <time>2020-09-16T15:28:05+02:00</time>
      </trkpt>
      <trkpt lat="44.33151" lon="6.69745">
        <ele>2295</ele>
        <time>2020-09-16T15:28:23+02:00</time>
      </trkpt>
      <trkpt lat="44.33163" lon="6.69755">
        <ele>2298</ele>
        <time>2020-09-16T15:28:43+02:00</time>
      </trkpt>
      <trkpt lat="44.33173" lon="6.69762">
        <ele>2302</ele>
        <time>2020-09-16T15:29:02+02:00</time>
      </trkpt>
      <trkpt lat="44.33185" lon="6.69772">
        <ele>2306</ele>
        <time>2020-09-16T15:29:23+02:00</time>
      </trkpt>
      <trkpt lat="44.33202" lon="6.69785">
        <ele>2311</ele>
        <time>2020-09-16T15:29:45+02:00</time>
      </trkpt>
      <trkpt lat="44.33214" lon="6.69805">
        <ele>2311</ele>
        <time>2020-09-16T15:30:05+02:00</time>
      </trkpt>
      <trkpt lat="44.33222" lon="6.69813">
        <ele>2312</ele>
        <time>2020-09-16T15:30:15+02:00</time>
      </trkpt>
      <trkpt lat="44.33236" lon="6.69825">
        <ele>2311</ele>
        <time>2020-09-16T15:30:31+02:00</time>
      </trkpt>
      <trkpt lat="44.3325" lon="6.6985">
        <ele>2310</ele>
        <time>2020-09-16T15:30:53+02:00</time>
      </trkpt>
      <trkpt lat="44.33262" lon="6.69868">
        <ele>2312</ele>
        <time>2020-09-16T15:31:14+02:00</time>
      </trkpt>
      <trkpt lat="44.33271" lon="6.69875">
        <ele>2314</ele>
        <time>2020-09-16T15:31:30+02:00</time>
      </trkpt>
      <trkpt lat="44.33276" lon="6.69874">
        <ele>2315</ele>
        <time>2020-09-16T15:31:49+02:00</time>
      </trkpt>
      <trkpt lat="44.33276" lon="6.69873">
        <ele>2314</ele>
        <time>2020-09-16T15:32:05+02:00</time>
      </trkpt>
      <trkpt lat="44.33273" lon="6.69871">
        <ele>2314</ele>
        <time>2020-09-16T15:32:29+02:00</time>
      </trkpt>
      <trkpt lat="44.33274" lon="6.69873">
        <ele>2314</ele>
        <time>2020-09-16T15:32:56+02:00</time>
      </trkpt>
      <trkpt lat="44.33268" lon="6.69872">
        <ele>2313</ele>
        <time>2020-09-16T15:33:15+02:00</time>
      </trkpt>
      <trkpt lat="44.33268" lon="6.69872">
        <ele>2313</ele>
        <time>2020-09-16T15:33:34+02:00</time>
      </trkpt>
      <trkpt lat="44.33272" lon="6.69874">
        <ele>2314</ele>
        <time>2020-09-16T15:33:56+02:00</time>
      </trkpt>
      <trkpt lat="44.33271" lon="6.69874">
        <ele>2314</ele>
        <time>2020-09-16T15:34:17+02:00</time>
      </trkpt>
      <trkpt lat="44.33269" lon="6.69872">
        <ele>2313</ele>
        <time>2020-09-16T15:34:40+02:00</time>
      </trkpt>
      <trkpt lat="44.33272" lon="6.69874">
        <ele>2314</ele>
        <time>2020-09-16T15:35:07+02:00</time>
      </trkpt>
      <trkpt lat="44.33274" lon="6.69874">
        <ele>2314</ele>
        <time>2020-09-16T15:35:25+02:00</time>
      </trkpt>
      <trkpt lat="44.33283" lon="6.69868">
        <ele>2314</ele>
        <time>2020-09-16T15:35:41+02:00</time>
      </trkpt>
      <trkpt lat="44.3329" lon="6.69865">
        <ele>2312</ele>
        <time>2020-09-16T15:35:56+02:00</time>
      </trkpt>
      <trkpt lat="44.333" lon="6.69867">
        <ele>2312</ele>
        <time>2020-09-16T15:36:14+02:00</time>
      </trkpt>
      <trkpt lat="44.33314" lon="6.69865">
        <ele>2310</ele>
        <time>2020-09-16T15:36:30+02:00</time>
      </trkpt>
      <trkpt lat="44.33325" lon="6.69859">
        <ele>2308</ele>
        <time>2020-09-16T15:36:48+02:00</time>
      </trkpt>
      <trkpt lat="44.33334" lon="6.69852">
        <ele>2306</ele>
        <time>2020-09-16T15:37:04+02:00</time>
      </trkpt>
      <trkpt lat="44.33342" lon="6.69835">
        <ele>2301</ele>
        <time>2020-09-16T15:37:26+02:00</time>
      </trkpt>
      <trkpt lat="44.3334" lon="6.69829">
        <ele>2301</ele>
        <time>2020-09-16T15:37:44+02:00</time>
      </trkpt>
      <trkpt lat="44.33351" lon="6.6982">
        <ele>2297</ele>
        <time>2020-09-16T15:38:03+02:00</time>
      </trkpt>
      <trkpt lat="44.3336" lon="6.69814">
        <ele>2293</ele>
        <time>2020-09-16T15:38:22+02:00</time>
      </trkpt>
      <trkpt lat="44.33365" lon="6.69808">
        <ele>2291</ele>
        <time>2020-09-16T15:38:45+02:00</time>
      </trkpt>
      <trkpt lat="44.33369" lon="6.69805">
        <ele>2290</ele>
        <time>2020-09-16T15:39:09+02:00</time>
      </trkpt>
      <trkpt lat="44.33379" lon="6.69799">
        <ele>2287</ele>
        <time>2020-09-16T15:39:24+02:00</time>
      </trkpt>
      <trkpt lat="44.33393" lon="6.69793">
        <ele>2284</ele>
        <time>2020-09-16T15:39:45+02:00</time>
      </trkpt>
      <trkpt lat="44.33402" lon="6.69783">
        <ele>2281</ele>
        <time>2020-09-16T15:40:02+02:00</time>
      </trkpt>
      <trkpt lat="44.33406" lon="6.69767">
        <ele>2276</ele>
        <time>2020-09-16T15:40:19+02:00</time>
      </trkpt>
      <trkpt lat="44.33418" lon="6.69759">
        <ele>2274</ele>
        <time>2020-09-16T15:40:35+02:00</time>
      </trkpt>
      <trkpt lat="44.33427" lon="6.69752">
        <ele>2274</ele>
        <time>2020-09-16T15:40:50+02:00</time>
      </trkpt>
      <trkpt lat="44.33439" lon="6.6974">
        <ele>2272</ele>
        <time>2020-09-16T15:41:06+02:00</time>
      </trkpt>
      <trkpt lat="44.33458" lon="6.69725">
        <ele>2268</ele>
        <time>2020-09-16T15:41:29+02:00</time>
      </trkpt>
      <trkpt lat="44.33469" lon="6.69715">
        <ele>2266</ele>
        <time>2020-09-16T15:41:50+02:00</time>
      </trkpt>
      <trkpt lat="44.33482" lon="6.6971">
        <ele>2264</ele>
        <time>2020-09-16T15:42:08+02:00</time>
      </trkpt>
      <trkpt lat="44.33498" lon="6.697">
        <ele>2260</ele>
        <time>2020-09-16T15:42:29+02:00</time>
      </trkpt>
      <trkpt lat="44.33514" lon="6.69689">
        <ele>2257</ele>
        <time>2020-09-16T15:42:46+02:00</time>
      </trkpt>
      <trkpt lat="44.33521" lon="6.69684">
        <ele>2257</ele>
        <time>2020-09-16T15:42:56+02:00</time>
      </trkpt>
      <trkpt lat="44.33523" lon="6.6968">
        <ele>2256</ele>
        <time>2020-09-16T15:43:09+02:00</time>
      </trkpt>
      <trkpt lat="44.33531" lon="6.69675">
        <ele>2256</ele>
        <time>2020-09-16T15:43:30+02:00</time>
      </trkpt>
      <trkpt lat="44.3354" lon="6.69668">
        <ele>2255</ele>
        <time>2020-09-16T15:43:45+02:00</time>
      </trkpt>
      <trkpt lat="44.33555" lon="6.69658">
        <ele>2253</ele>
        <time>2020-09-16T15:44:03+02:00</time>
      </trkpt>
      <trkpt lat="44.33561" lon="6.69649">
        <ele>2251</ele>
        <time>2020-09-16T15:44:16+02:00</time>
      </trkpt>
      <trkpt lat="44.33568" lon="6.69634">
        <ele>2249</ele>
        <time>2020-09-16T15:44:27+02:00</time>
      </trkpt>
      <trkpt lat="44.33573" lon="6.69622">
        <ele>2247</ele>
        <time>2020-09-16T15:44:43+02:00</time>
      </trkpt>
      <trkpt lat="44.33574" lon="6.69619">
        <ele>2246</ele>
        <time>2020-09-16T15:44:58+02:00</time>
      </trkpt>
      <trkpt lat="44.3358" lon="6.69599">
        <ele>2242</ele>
        <time>2020-09-16T15:45:13+02:00</time>
      </trkpt>
      <trkpt lat="44.33583" lon="6.69584">
        <ele>2239</ele>
        <time>2020-09-16T15:45:25+02:00</time>
      </trkpt>
      <trkpt lat="44.3358" lon="6.6957">
        <ele>2239</ele>
        <time>2020-09-16T15:45:41+02:00</time>
      </trkpt>
      <trkpt lat="44.33581" lon="6.69561">
        <ele>2237</ele>
        <time>2020-09-16T15:45:49+02:00</time>
      </trkpt>
      <trkpt lat="44.33585" lon="6.69548">
        <ele>2232</ele>
        <time>2020-09-16T15:46:05+02:00</time>
      </trkpt>
      <trkpt lat="44.33589" lon="6.69539">
        <ele>2228</ele>
        <time>2020-09-16T15:46:16+02:00</time>
      </trkpt>
      <trkpt lat="44.33593" lon="6.6953">
        <ele>2224</ele>
        <time>2020-09-16T15:46:31+02:00</time>
      </trkpt>
      <trkpt lat="44.33592" lon="6.69516">
        <ele>2223</ele>
        <time>2020-09-16T15:46:49+02:00</time>
      </trkpt>
      <trkpt lat="44.33593" lon="6.69509">
        <ele>2222</ele>
        <time>2020-09-16T15:46:56+02:00</time>
      </trkpt>
      <trkpt lat="44.33596" lon="6.6949">
        <ele>2220</ele>
        <time>2020-09-16T15:47:13+02:00</time>
      </trkpt>
      <trkpt lat="44.336" lon="6.69486">
        <ele>2218</ele>
        <time>2020-09-16T15:47:28+02:00</time>
      </trkpt>
      <trkpt lat="44.33602" lon="6.6948">
        <ele>2217</ele>
        <time>2020-09-16T15:47:35+02:00</time>
      </trkpt>
      <trkpt lat="44.33601" lon="6.69476">
        <ele>2217</ele>
        <time>2020-09-16T15:47:49+02:00</time>
      </trkpt>
      <trkpt lat="44.33606" lon="6.69469">
        <ele>2215</ele>
        <time>2020-09-16T15:48:00+02:00</time>
      </trkpt>
      <trkpt lat="44.33609" lon="6.69468">
        <ele>2214</ele>
        <time>2020-09-16T15:48:06+02:00</time>
      </trkpt>
      <trkpt lat="44.33625" lon="6.69491">
        <ele>2208</ele>
        <time>2020-09-16T15:48:25+02:00</time>
      </trkpt>
      <trkpt lat="44.33635" lon="6.69507">
        <ele>2204</ele>
        <time>2020-09-16T15:48:38+02:00</time>
      </trkpt>
      <trkpt lat="44.33641" lon="6.69525">
        <ele>2203</ele>
        <time>2020-09-16T15:48:53+02:00</time>
      </trkpt>
      <trkpt lat="44.33642" lon="6.69543">
        <ele>2203</ele>
        <time>2020-09-16T15:49:09+02:00</time>
      </trkpt>
      <trkpt lat="44.33645" lon="6.69557">
        <ele>2202</ele>
        <time>2020-09-16T15:49:25+02:00</time>
      </trkpt>
      <trkpt lat="44.33645" lon="6.69558">
        <ele>2202</ele>
        <time>2020-09-16T15:49:26+02:00</time>
      </trkpt>
      <trkpt lat="44.33651" lon="6.69569">
        <ele>2200</ele>
        <time>2020-09-16T15:49:40+02:00</time>
      </trkpt>
      <trkpt lat="44.33651" lon="6.6957">
        <ele>2200</ele>
        <time>2020-09-16T15:49:41+02:00</time>
      </trkpt>
      <trkpt lat="44.3366" lon="6.69581">
        <ele>2196</ele>
        <time>2020-09-16T15:49:57+02:00</time>
      </trkpt>
      <trkpt lat="44.33667" lon="6.69582">
        <ele>2193</ele>
        <time>2020-09-16T15:50:08+02:00</time>
      </trkpt>
      <trkpt lat="44.3368" lon="6.69583">
        <ele>2189</ele>
        <time>2020-09-16T15:50:26+02:00</time>
      </trkpt>
      <trkpt lat="44.33691" lon="6.69593">
        <ele>2186</ele>
        <time>2020-09-16T15:50:41+02:00</time>
      </trkpt>
      <trkpt lat="44.33708" lon="6.69603">
        <ele>2183</ele>
        <time>2020-09-16T15:51:00+02:00</time>
      </trkpt>
      <trkpt lat="44.33711" lon="6.69603">
        <ele>2182</ele>
        <time>2020-09-16T15:51:03+02:00</time>
      </trkpt>
      <trkpt lat="44.33718" lon="6.69603">
        <ele>2180</ele>
        <time>2020-09-16T15:51:09+02:00</time>
      </trkpt>
      <trkpt lat="44.33743" lon="6.69612">
        <ele>2176</ele>
        <time>2020-09-16T15:51:30+02:00</time>
      </trkpt>
      <trkpt lat="44.33762" lon="6.69624">
        <ele>2172</ele>
        <time>2020-09-16T15:51:46+02:00</time>
      </trkpt>
      <trkpt lat="44.33782" lon="6.69634">
        <ele>2168</ele>
        <time>2020-09-16T15:52:03+02:00</time>
      </trkpt>
      <trkpt lat="44.33794" lon="6.69641">
        <ele>2165</ele>
        <time>2020-09-16T15:52:17+02:00</time>
      </trkpt>
      <trkpt lat="44.33796" lon="6.69645">
        <ele>2163</ele>
        <time>2020-09-16T15:52:33+02:00</time>
      </trkpt>
      <trkpt lat="44.33807" lon="6.69652">
        <ele>2160</ele>
        <time>2020-09-16T15:52:50+02:00</time>
      </trkpt>
      <trkpt lat="44.33812" lon="6.69656">
        <ele>2157</ele>
        <time>2020-09-16T15:52:57+02:00</time>
      </trkpt>
      <trkpt lat="44.33827" lon="6.69659">
        <ele>2152</ele>
        <time>2020-09-16T15:53:13+02:00</time>
      </trkpt>
      <trkpt lat="44.33827" lon="6.69658">
        <ele>2152</ele>
        <time>2020-09-16T15:53:14+02:00</time>
      </trkpt>
      <trkpt lat="44.33837" lon="6.69653">
        <ele>2150</ele>
        <time>2020-09-16T15:53:26+02:00</time>
      </trkpt>
      <trkpt lat="44.33839" lon="6.69652">
        <ele>2150</ele>
        <time>2020-09-16T15:53:28+02:00</time>
      </trkpt>
      <trkpt lat="44.33854" lon="6.69647">
        <ele>2149</ele>
        <time>2020-09-16T15:53:43+02:00</time>
      </trkpt>
      <trkpt lat="44.33859" lon="6.69644">
        <ele>2149</ele>
        <time>2020-09-16T15:53:49+02:00</time>
      </trkpt>
      <trkpt lat="44.33865" lon="6.69643">
        <ele>2147</ele>
        <time>2020-09-16T15:53:55+02:00</time>
      </trkpt>
      <trkpt lat="44.33877" lon="6.69636">
        <ele>2144</ele>
        <time>2020-09-16T15:54:10+02:00</time>
      </trkpt>
      <trkpt lat="44.33884" lon="6.69628">
        <ele>2142</ele>
        <time>2020-09-16T15:54:22+02:00</time>
      </trkpt>
      <trkpt lat="44.33887" lon="6.6962">
        <ele>2141</ele>
        <time>2020-09-16T15:54:28+02:00</time>
      </trkpt>
      <trkpt lat="44.33895" lon="6.69614">
        <ele>2138</ele>
        <time>2020-09-16T15:54:37+02:00</time>
      </trkpt>
      <trkpt lat="44.33906" lon="6.69611">
        <ele>2134</ele>
        <time>2020-09-16T15:54:48+02:00</time>
      </trkpt>
      <trkpt lat="44.3392" lon="6.69608">
        <ele>2129</ele>
        <time>2020-09-16T15:55:02+02:00</time>
      </trkpt>
      <trkpt lat="44.33928" lon="6.69601">
        <ele>2127</ele>
        <time>2020-09-16T15:55:12+02:00</time>
      </trkpt>
      <trkpt lat="44.33932" lon="6.696">
        <ele>2126</ele>
        <time>2020-09-16T15:55:16+02:00</time>
      </trkpt>
      <trkpt lat="44.3395" lon="6.69602">
        <ele>2122</ele>
        <time>2020-09-16T15:55:32+02:00</time>
      </trkpt>
      <trkpt lat="44.33963" lon="6.69601">
        <ele>2119</ele>
        <time>2020-09-16T15:55:43+02:00</time>
      </trkpt>
      <trkpt lat="44.33978" lon="6.69597">
        <ele>2115</ele>
        <time>2020-09-16T15:55:56+02:00</time>
      </trkpt>
      <trkpt lat="44.33985" lon="6.69593">
        <ele>2113</ele>
        <time>2020-09-16T15:56:03+02:00</time>
      </trkpt>
      <trkpt lat="44.33992" lon="6.69591">
        <ele>2110</ele>
        <time>2020-09-16T15:56:11+02:00</time>
      </trkpt>
      <trkpt lat="44.33993" lon="6.6959">
        <ele>2110</ele>
        <time>2020-09-16T15:56:12+02:00</time>
      </trkpt>
      <trkpt lat="44.33995" lon="6.69589">
        <ele>2110</ele>
        <time>2020-09-16T15:56:14+02:00</time>
      </trkpt>
      <trkpt lat="44.34001" lon="6.69586">
        <ele>2108</ele>
        <time>2020-09-16T15:56:20+02:00</time>
      </trkpt>
      <trkpt lat="44.34008" lon="6.69583">
        <ele>2105</ele>
        <time>2020-09-16T15:56:28+02:00</time>
      </trkpt>
      <trkpt lat="44.3402" lon="6.69582">
        <ele>2101</ele>
        <time>2020-09-16T15:56:46+02:00</time>
      </trkpt>
      <trkpt lat="44.34028" lon="6.69578">
        <ele>2099</ele>
        <time>2020-09-16T15:56:58+02:00</time>
      </trkpt>
      <trkpt lat="44.3403" lon="6.69576">
        <ele>2098</ele>
        <time>2020-09-16T15:57:01+02:00</time>
      </trkpt>
      <trkpt lat="44.34034" lon="6.69573">
        <ele>2097</ele>
        <time>2020-09-16T15:57:05+02:00</time>
      </trkpt>
      <trkpt lat="44.34037" lon="6.69571">
        <ele>2096</ele>
        <time>2020-09-16T15:57:09+02:00</time>
      </trkpt>
      <trkpt lat="44.34046" lon="6.69561">
        <ele>2094</ele>
        <time>2020-09-16T15:57:25+02:00</time>
      </trkpt>
      <trkpt lat="44.34047" lon="6.69561">
        <ele>2093</ele>
        <time>2020-09-16T15:57:26+02:00</time>
      </trkpt>
      <trkpt lat="44.3405" lon="6.69561">
        <ele>2093</ele>
        <time>2020-09-16T15:57:29+02:00</time>
      </trkpt>
      <trkpt lat="44.34059" lon="6.69561">
        <ele>2090</ele>
        <time>2020-09-16T15:57:37+02:00</time>
      </trkpt>
      <trkpt lat="44.34076" lon="6.69562">
        <ele>2084</ele>
        <time>2020-09-16T15:57:50+02:00</time>
      </trkpt>
      <trkpt lat="44.34086" lon="6.69563">
        <ele>2081</ele>
        <time>2020-09-16T15:57:58+02:00</time>
      </trkpt>
      <trkpt lat="44.34088" lon="6.69564">
        <ele>2080</ele>
        <time>2020-09-16T15:58:00+02:00</time>
      </trkpt>
      <trkpt lat="44.34097" lon="6.69565">
        <ele>2078</ele>
        <time>2020-09-16T15:58:06+02:00</time>
      </trkpt>
      <trkpt lat="44.34102" lon="6.69565">
        <ele>2076</ele>
        <time>2020-09-16T15:58:10+02:00</time>
      </trkpt>
      <trkpt lat="44.34114" lon="6.69566">
        <ele>2073</ele>
        <time>2020-09-16T15:58:19+02:00</time>
      </trkpt>
      <trkpt lat="44.34124" lon="6.69565">
        <ele>2069</ele>
        <time>2020-09-16T15:58:28+02:00</time>
      </trkpt>
      <trkpt lat="44.34131" lon="6.69559">
        <ele>2067</ele>
        <time>2020-09-16T15:58:40+02:00</time>
      </trkpt>
      <trkpt lat="44.34137" lon="6.69556">
        <ele>2066</ele>
        <time>2020-09-16T15:58:45+02:00</time>
      </trkpt>
      <trkpt lat="44.34148" lon="6.69555">
        <ele>2062</ele>
        <time>2020-09-16T15:58:56+02:00</time>
      </trkpt>
      <trkpt lat="44.34156" lon="6.69552">
        <ele>2059</ele>
        <time>2020-09-16T15:59:07+02:00</time>
      </trkpt>
      <trkpt lat="44.34158" lon="6.69548">
        <ele>2058</ele>
        <time>2020-09-16T15:59:11+02:00</time>
      </trkpt>
      <trkpt lat="44.34164" lon="6.69538">
        <ele>2055</ele>
        <time>2020-09-16T15:59:23+02:00</time>
      </trkpt>
      <trkpt lat="44.34176" lon="6.69533">
        <ele>2050</ele>
        <time>2020-09-16T15:59:34+02:00</time>
      </trkpt>
      <trkpt lat="44.34186" lon="6.69531">
        <ele>2046</ele>
        <time>2020-09-16T15:59:45+02:00</time>
      </trkpt>
      <trkpt lat="44.34193" lon="6.69525">
        <ele>2043</ele>
        <time>2020-09-16T15:59:55+02:00</time>
      </trkpt>
      <trkpt lat="44.34198" lon="6.69521">
        <ele>2041</ele>
        <time>2020-09-16T16:00:04+02:00</time>
      </trkpt>
      <trkpt lat="44.34204" lon="6.69517">
        <ele>2039</ele>
        <time>2020-09-16T16:00:14+02:00</time>
      </trkpt>
      <trkpt lat="44.34208" lon="6.69519">
        <ele>2037</ele>
        <time>2020-09-16T16:00:29+02:00</time>
      </trkpt>
      <trkpt lat="44.34214" lon="6.69518">
        <ele>2035</ele>
        <time>2020-09-16T16:00:35+02:00</time>
      </trkpt>
      <trkpt lat="44.34221" lon="6.69516">
        <ele>2032</ele>
        <time>2020-09-16T16:00:43+02:00</time>
      </trkpt>
      <trkpt lat="44.34231" lon="6.69516">
        <ele>2029</ele>
        <time>2020-09-16T16:00:51+02:00</time>
      </trkpt>
      <trkpt lat="44.34244" lon="6.69519">
        <ele>2024</ele>
        <time>2020-09-16T16:01:02+02:00</time>
      </trkpt>
      <trkpt lat="44.34255" lon="6.69522">
        <ele>2020</ele>
        <time>2020-09-16T16:01:12+02:00</time>
      </trkpt>
      <trkpt lat="44.34257" lon="6.69522">
        <ele>2020</ele>
        <time>2020-09-16T16:01:13+02:00</time>
      </trkpt>
      <trkpt lat="44.34268" lon="6.69524">
        <ele>2016</ele>
        <time>2020-09-16T16:01:23+02:00</time>
      </trkpt>
      <trkpt lat="44.3428" lon="6.69538">
        <ele>2012</ele>
        <time>2020-09-16T16:01:35+02:00</time>
      </trkpt>
      <trkpt lat="44.34283" lon="6.6954">
        <ele>2011</ele>
        <time>2020-09-16T16:01:38+02:00</time>
      </trkpt>
      <trkpt lat="44.34298" lon="6.69535">
        <ele>2007</ele>
        <time>2020-09-16T16:01:51+02:00</time>
      </trkpt>
      <trkpt lat="44.34306" lon="6.69533">
        <ele>2004</ele>
        <time>2020-09-16T16:01:58+02:00</time>
      </trkpt>
      <trkpt lat="44.34312" lon="6.69531">
        <ele>2002</ele>
        <time>2020-09-16T16:02:03+02:00</time>
      </trkpt>
      <trkpt lat="44.34315" lon="6.6953">
        <ele>2001</ele>
        <time>2020-09-16T16:02:05+02:00</time>
      </trkpt>
      <trkpt lat="44.34327" lon="6.69526">
        <ele>1998</ele>
        <time>2020-09-16T16:02:15+02:00</time>
      </trkpt>
      <trkpt lat="44.34332" lon="6.69525">
        <ele>1996</ele>
        <time>2020-09-16T16:02:20+02:00</time>
      </trkpt>
      <trkpt lat="44.34338" lon="6.69521">
        <ele>1994</ele>
        <time>2020-09-16T16:02:34+02:00</time>
      </trkpt>
      <trkpt lat="44.34338" lon="6.6952">
        <ele>1994</ele>
        <time>2020-09-16T16:02:35+02:00</time>
      </trkpt>
      <trkpt lat="44.34343" lon="6.69512">
        <ele>1992</ele>
        <time>2020-09-16T16:02:52+02:00</time>
      </trkpt>
      <trkpt lat="44.34347" lon="6.6951">
        <ele>1991</ele>
        <time>2020-09-16T16:03:15+02:00</time>
      </trkpt>
      <trkpt lat="44.34351" lon="6.69504">
        <ele>1990</ele>
        <time>2020-09-16T16:03:23+02:00</time>
      </trkpt>
      <trkpt lat="44.34354" lon="6.69501">
        <ele>1989</ele>
        <time>2020-09-16T16:03:28+02:00</time>
      </trkpt>
      <trkpt lat="44.34362" lon="6.69499">
        <ele>1987</ele>
        <time>2020-09-16T16:03:39+02:00</time>
      </trkpt>
      <trkpt lat="44.34365" lon="6.695">
        <ele>1986</ele>
        <time>2020-09-16T16:03:42+02:00</time>
      </trkpt>
      <trkpt lat="44.34377" lon="6.69501">
        <ele>1984</ele>
        <time>2020-09-16T16:03:53+02:00</time>
      </trkpt>
      <trkpt lat="44.34391" lon="6.69493">
        <ele>1980</ele>
        <time>2020-09-16T16:04:07+02:00</time>
      </trkpt>
      <trkpt lat="44.34392" lon="6.69492">
        <ele>1980</ele>
        <time>2020-09-16T16:04:08+02:00</time>
      </trkpt>
      <trkpt lat="44.34411" lon="6.69481">
        <ele>1977</ele>
        <time>2020-09-16T16:04:24+02:00</time>
      </trkpt>
      <trkpt lat="44.3443" lon="6.6948">
        <ele>1973</ele>
        <time>2020-09-16T16:04:40+02:00</time>
      </trkpt>
      <trkpt lat="44.34437" lon="6.6948">
        <ele>1972</ele>
        <time>2020-09-16T16:04:57+02:00</time>
      </trkpt>
      <trkpt lat="44.34443" lon="6.6948">
        <ele>1971</ele>
        <time>2020-09-16T16:05:09+02:00</time>
      </trkpt>
      <trkpt lat="44.34448" lon="6.69483">
        <ele>1970</ele>
        <time>2020-09-16T16:05:25+02:00</time>
      </trkpt>
      <trkpt lat="44.34461" lon="6.69485">
        <ele>1968</ele>
        <time>2020-09-16T16:05:39+02:00</time>
      </trkpt>
      <trkpt lat="44.34484" lon="6.69485">
        <ele>1966</ele>
        <time>2020-09-16T16:06:02+02:00</time>
      </trkpt>
      <trkpt lat="44.34503" lon="6.69481">
        <ele>1964</ele>
        <time>2020-09-16T16:06:20+02:00</time>
      </trkpt>
      <trkpt lat="44.34524" lon="6.69482">
        <ele>1960</ele>
        <time>2020-09-16T16:06:43+02:00</time>
      </trkpt>
      <trkpt lat="44.34524" lon="6.6948">
        <ele>1961</ele>
        <time>2020-09-16T16:07:02+02:00</time>
      </trkpt>
      <trkpt lat="44.34523" lon="6.69482">
        <ele>1960</ele>
        <time>2020-09-16T16:07:29+02:00</time>
      </trkpt>
      <trkpt lat="44.34522" lon="6.6948">
        <ele>1961</ele>
        <time>2020-09-16T16:07:51+02:00</time>
      </trkpt>
      <trkpt lat="44.34523" lon="6.69481">
        <ele>1961</ele>
        <time>2020-09-16T16:08:15+02:00</time>
      </trkpt>
      <trkpt lat="44.34524" lon="6.69479">
        <ele>1961</ele>
        <time>2020-09-16T16:08:38+02:00</time>
      </trkpt>
      <trkpt lat="44.34523" lon="6.69479">
        <ele>1961</ele>
        <time>2020-09-16T16:08:57+02:00</time>
      </trkpt>
      <trkpt lat="44.34523" lon="6.69478">
        <ele>1961</ele>
        <time>2020-09-16T16:09:17+02:00</time>
      </trkpt>
      <trkpt lat="44.3453" lon="6.69477">
        <ele>1960</ele>
        <time>2020-09-16T16:09:33+02:00</time>
      </trkpt>
      <trkpt lat="44.34533" lon="6.69478">
        <ele>1959</ele>
        <time>2020-09-16T16:09:37+02:00</time>
      </trkpt>
      <trkpt lat="44.3455" lon="6.69479">
        <ele>1956</ele>
        <time>2020-09-16T16:09:52+02:00</time>
      </trkpt>
      <trkpt lat="44.34573" lon="6.69481">
        <ele>1953</ele>
        <time>2020-09-16T16:10:13+02:00</time>
      </trkpt>
      <trkpt lat="44.34596" lon="6.69486">
        <ele>1949</ele>
        <time>2020-09-16T16:10:36+02:00</time>
      </trkpt>
      <trkpt lat="44.34617" lon="6.69485">
        <ele>1945</ele>
        <time>2020-09-16T16:10:57+02:00</time>
      </trkpt>
      <trkpt lat="44.3463" lon="6.69481">
        <ele>1943</ele>
        <time>2020-09-16T16:11:12+02:00</time>
      </trkpt>
      <trkpt lat="44.34632" lon="6.6948">
        <ele>1943</ele>
        <time>2020-09-16T16:11:14+02:00</time>
      </trkpt>
      <trkpt lat="44.34641" lon="6.69476">
        <ele>1942</ele>
        <time>2020-09-16T16:11:24+02:00</time>
      </trkpt>
      <trkpt lat="44.34644" lon="6.69474">
        <ele>1941</ele>
        <time>2020-09-16T16:11:27+02:00</time>
      </trkpt>
      <trkpt lat="44.34651" lon="6.69471">
        <ele>1940</ele>
        <time>2020-09-16T16:11:33+02:00</time>
      </trkpt>
      <trkpt lat="44.34666" lon="6.69463">
        <ele>1938</ele>
        <time>2020-09-16T16:11:48+02:00</time>
      </trkpt>
      <trkpt lat="44.34669" lon="6.69462">
        <ele>1937</ele>
        <time>2020-09-16T16:11:52+02:00</time>
      </trkpt>
      <trkpt lat="44.34685" lon="6.69454">
        <ele>1933</ele>
        <time>2020-09-16T16:12:09+02:00</time>
      </trkpt>
      <trkpt lat="44.34689" lon="6.6945">
        <ele>1933</ele>
        <time>2020-09-16T16:12:14+02:00</time>
      </trkpt>
      <trkpt lat="44.34697" lon="6.69442">
        <ele>1932</ele>
        <time>2020-09-16T16:12:24+02:00</time>
      </trkpt>
      <trkpt lat="44.34713" lon="6.69429">
        <ele>1928</ele>
        <time>2020-09-16T16:12:42+02:00</time>
      </trkpt>
      <trkpt lat="44.34733" lon="6.69425">
        <ele>1923</ele>
        <time>2020-09-16T16:13:01+02:00</time>
      </trkpt>
      <trkpt lat="44.34751" lon="6.69417">
        <ele>1919</ele>
        <time>2020-09-16T16:13:20+02:00</time>
      </trkpt>
      <trkpt lat="44.34763" lon="6.69412">
        <ele>1917</ele>
        <time>2020-09-16T16:13:34+02:00</time>
      </trkpt>
      <trkpt lat="44.34775" lon="6.69408">
        <ele>1915</ele>
        <time>2020-09-16T16:13:47+02:00</time>
      </trkpt>
      <trkpt lat="44.34796" lon="6.69412">
        <ele>1911</ele>
        <time>2020-09-16T16:14:07+02:00</time>
      </trkpt>
      <trkpt lat="44.34819" lon="6.69414">
        <ele>1907</ele>
        <time>2020-09-16T16:14:29+02:00</time>
      </trkpt>
      <trkpt lat="44.34838" lon="6.69415">
        <ele>1903</ele>
        <time>2020-09-16T16:14:49+02:00</time>
      </trkpt>
      <trkpt lat="44.3485" lon="6.69408">
        <ele>1900</ele>
        <time>2020-09-16T16:15:04+02:00</time>
      </trkpt>
      <trkpt lat="44.34858" lon="6.69402">
        <ele>1898</ele>
        <time>2020-09-16T16:15:17+02:00</time>
      </trkpt>
      <trkpt lat="44.3487" lon="6.69411">
        <ele>1894</ele>
        <time>2020-09-16T16:15:35+02:00</time>
      </trkpt>
      <trkpt lat="44.34876" lon="6.69406">
        <ele>1893</ele>
        <time>2020-09-16T16:15:49+02:00</time>
      </trkpt>
      <trkpt lat="44.34886" lon="6.69404">
        <ele>1890</ele>
        <time>2020-09-16T16:16:03+02:00</time>
      </trkpt>
      <trkpt lat="44.34894" lon="6.69397">
        <ele>1889</ele>
        <time>2020-09-16T16:16:20+02:00</time>
      </trkpt>
      <trkpt lat="44.34901" lon="6.69396">
        <ele>1887</ele>
        <time>2020-09-16T16:16:29+02:00</time>
      </trkpt>
      <trkpt lat="44.34904" lon="6.69398">
        <ele>1886</ele>
        <time>2020-09-16T16:16:32+02:00</time>
      </trkpt>
      <trkpt lat="44.34915" lon="6.694">
        <ele>1883</ele>
        <time>2020-09-16T16:16:46+02:00</time>
      </trkpt>
      <trkpt lat="44.34923" lon="6.694">
        <ele>1880</ele>
        <time>2020-09-16T16:16:56+02:00</time>
      </trkpt>
      <trkpt lat="44.34936" lon="6.69403">
        <ele>1876</ele>
        <time>2020-09-16T16:17:11+02:00</time>
      </trkpt>
      <trkpt lat="44.34948" lon="6.69399">
        <ele>1873</ele>
        <time>2020-09-16T16:17:24+02:00</time>
      </trkpt>
      <trkpt lat="44.3496" lon="6.69396">
        <ele>1870</ele>
        <time>2020-09-16T16:17:39+02:00</time>
      </trkpt>
      <trkpt lat="44.34976" lon="6.69396">
        <ele>1865</ele>
        <time>2020-09-16T16:17:55+02:00</time>
      </trkpt>
      <trkpt lat="44.34991" lon="6.69394">
        <ele>1862</ele>
        <time>2020-09-16T16:18:11+02:00</time>
      </trkpt>
      <trkpt lat="44.35012" lon="6.69392">
        <ele>1857</ele>
        <time>2020-09-16T16:18:32+02:00</time>
      </trkpt>
      <trkpt lat="44.35043" lon="6.69383">
        <ele>1853</ele>
        <time>2020-09-16T16:18:59+02:00</time>
      </trkpt>
      <trkpt lat="44.35058" lon="6.69378">
        <ele>1851</ele>
        <time>2020-09-16T16:19:14+02:00</time>
      </trkpt>
      <trkpt lat="44.35068" lon="6.69371">
        <ele>1851</ele>
        <time>2020-09-16T16:19:27+02:00</time>
      </trkpt>
      <trkpt lat="44.35075" lon="6.69363">
        <ele>1850</ele>
        <time>2020-09-16T16:19:38+02:00</time>
      </trkpt>
      <trkpt lat="44.35094" lon="6.69367">
        <ele>1846</ele>
        <time>2020-09-16T16:19:57+02:00</time>
      </trkpt>
      <trkpt lat="44.35116" lon="6.69363">
        <ele>1842</ele>
        <time>2020-09-16T16:20:18+02:00</time>
      </trkpt>
      <trkpt lat="44.35134" lon="6.69358">
        <ele>1839</ele>
        <time>2020-09-16T16:20:36+02:00</time>
      </trkpt>
      <trkpt lat="44.35152" lon="6.69356">
        <ele>1836</ele>
        <time>2020-09-16T16:20:54+02:00</time>
      </trkpt>
      <trkpt lat="44.35174" lon="6.69343">
        <ele>1834</ele>
        <time>2020-09-16T16:21:15+02:00</time>
      </trkpt>
      <trkpt lat="44.35192" lon="6.69333">
        <ele>1833</ele>
        <time>2020-09-16T16:21:34+02:00</time>
      </trkpt>
      <trkpt lat="44.35208" lon="6.69326">
        <ele>1830</ele>
        <time>2020-09-16T16:21:52+02:00</time>
      </trkpt>
      <trkpt lat="44.35218" lon="6.69322">
        <ele>1828</ele>
        <time>2020-09-16T16:22:02+02:00</time>
      </trkpt>
      <trkpt lat="44.35238" lon="6.69312">
        <ele>1824</ele>
        <time>2020-09-16T16:22:20+02:00</time>
      </trkpt>
      <trkpt lat="44.35249" lon="6.69303">
        <ele>1822</ele>
        <time>2020-09-16T16:22:33+02:00</time>
      </trkpt>
      <trkpt lat="44.35255" lon="6.69297">
        <ele>1820</ele>
        <time>2020-09-16T16:22:47+02:00</time>
      </trkpt>
      <trkpt lat="44.35266" lon="6.69283">
        <ele>1817</ele>
        <time>2020-09-16T16:23:02+02:00</time>
      </trkpt>
      <trkpt lat="44.35275" lon="6.69275">
        <ele>1814</ele>
        <time>2020-09-16T16:23:17+02:00</time>
      </trkpt>
      <trkpt lat="44.35286" lon="6.69259">
        <ele>1811</ele>
        <time>2020-09-16T16:23:37+02:00</time>
      </trkpt>
      <trkpt lat="44.35304" lon="6.69242">
        <ele>1808</ele>
        <time>2020-09-16T16:23:54+02:00</time>
      </trkpt>
      <trkpt lat="44.35313" lon="6.69227">
        <ele>1807</ele>
        <time>2020-09-16T16:24:07+02:00</time>
      </trkpt>
      <trkpt lat="44.35316" lon="6.69223">
        <ele>1807</ele>
        <time>2020-09-16T16:24:11+02:00</time>
      </trkpt>
      <trkpt lat="44.35334" lon="6.69216">
        <ele>1801</ele>
        <time>2020-09-16T16:24:29+02:00</time>
      </trkpt>
      <trkpt lat="44.35348" lon="6.69204">
        <ele>1799</ele>
        <time>2020-09-16T16:24:48+02:00</time>
      </trkpt>
      <trkpt lat="44.35363" lon="6.69191">
        <ele>1798</ele>
        <time>2020-09-16T16:25:05+02:00</time>
      </trkpt>
      <trkpt lat="44.35376" lon="6.69188">
        <ele>1795</ele>
        <time>2020-09-16T16:25:22+02:00</time>
      </trkpt>
      <trkpt lat="44.35391" lon="6.6918">
        <ele>1792</ele>
        <time>2020-09-16T16:25:38+02:00</time>
      </trkpt>
      <trkpt lat="44.35407" lon="6.69171">
        <ele>1791</ele>
        <time>2020-09-16T16:25:58+02:00</time>
      </trkpt>
      <trkpt lat="44.35429" lon="6.69172">
        <ele>1788</ele>
        <time>2020-09-16T16:26:18+02:00</time>
      </trkpt>
      <trkpt lat="44.35447" lon="6.69172">
        <ele>1785</ele>
        <time>2020-09-16T16:26:35+02:00</time>
      </trkpt>
      <trkpt lat="44.35476" lon="6.69173">
        <ele>1779</ele>
        <time>2020-09-16T16:26:58+02:00</time>
      </trkpt>
      <trkpt lat="44.35493" lon="6.69166">
        <ele>1778</ele>
        <time>2020-09-16T16:27:18+02:00</time>
      </trkpt>
      <trkpt lat="44.35514" lon="6.69165">
        <ele>1774</ele>
        <time>2020-09-16T16:27:36+02:00</time>
      </trkpt>
      <trkpt lat="44.35524" lon="6.69162">
        <ele>1772</ele>
        <time>2020-09-16T16:27:48+02:00</time>
      </trkpt>
      <trkpt lat="44.35538" lon="6.69149">
        <ele>1773</ele>
        <time>2020-09-16T16:28:05+02:00</time>
      </trkpt>
      <trkpt lat="44.35555" lon="6.69133">
        <ele>1772</ele>
        <time>2020-09-16T16:28:25+02:00</time>
      </trkpt>
      <trkpt lat="44.35556" lon="6.69132">
        <ele>1772</ele>
        <time>2020-09-16T16:28:26+02:00</time>
      </trkpt>
      <trkpt lat="44.35565" lon="6.69121">
        <ele>1770</ele>
        <time>2020-09-16T16:28:41+02:00</time>
      </trkpt>
      <trkpt lat="44.35575" lon="6.691">
        <ele>1767</ele>
        <time>2020-09-16T16:28:59+02:00</time>
      </trkpt>
      <trkpt lat="44.35576" lon="6.69094">
        <ele>1767</ele>
        <time>2020-09-16T16:29:03+02:00</time>
      </trkpt>
      <trkpt lat="44.35581" lon="6.69071">
        <ele>1764</ele>
        <time>2020-09-16T16:29:20+02:00</time>
      </trkpt>
      <trkpt lat="44.35582" lon="6.69049">
        <ele>1762</ele>
        <time>2020-09-16T16:29:38+02:00</time>
      </trkpt>
      <trkpt lat="44.35583" lon="6.69034">
        <ele>1759</ele>
        <time>2020-09-16T16:29:52+02:00</time>
      </trkpt>
      <trkpt lat="44.35588" lon="6.69015">
        <ele>1755</ele>
        <time>2020-09-16T16:30:07+02:00</time>
      </trkpt>
      <trkpt lat="44.35593" lon="6.68992">
        <ele>1751</ele>
        <time>2020-09-16T16:30:25+02:00</time>
      </trkpt>
      <trkpt lat="44.35602" lon="6.68969">
        <ele>1749</ele>
        <time>2020-09-16T16:30:44+02:00</time>
      </trkpt>
      <trkpt lat="44.35605" lon="6.68952">
        <ele>1748</ele>
        <time>2020-09-16T16:30:59+02:00</time>
      </trkpt>
      <trkpt lat="44.35611" lon="6.68922">
        <ele>1744</ele>
        <time>2020-09-16T16:31:21+02:00</time>
      </trkpt>
      <trkpt lat="44.3562" lon="6.68903">
        <ele>1741</ele>
        <time>2020-09-16T16:31:39+02:00</time>
      </trkpt>
      <trkpt lat="44.35634" lon="6.68884">
        <ele>1735</ele>
        <time>2020-09-16T16:31:58+02:00</time>
      </trkpt>
      <trkpt lat="44.35646" lon="6.68866">
        <ele>1730</ele>
        <time>2020-09-16T16:32:17+02:00</time>
      </trkpt>
      <trkpt lat="44.35657" lon="6.68843">
        <ele>1725</ele>
        <time>2020-09-16T16:32:37+02:00</time>
      </trkpt>
      <trkpt lat="44.3566" lon="6.68819">
        <ele>1723</ele>
        <time>2020-09-16T16:32:58+02:00</time>
      </trkpt>
      <trkpt lat="44.35658" lon="6.68801">
        <ele>1723</ele>
        <time>2020-09-16T16:33:16+02:00</time>
      </trkpt>
      <trkpt lat="44.35655" lon="6.68786">
        <ele>1724</ele>
        <time>2020-09-16T16:33:29+02:00</time>
      </trkpt>
      <trkpt lat="44.35654" lon="6.68764">
        <ele>1723</ele>
        <time>2020-09-16T16:33:47+02:00</time>
      </trkpt>
      <trkpt lat="44.35658" lon="6.68749">
        <ele>1722</ele>
        <time>2020-09-16T16:34:06+02:00</time>
      </trkpt>
      <trkpt lat="44.35663" lon="6.68735">
        <ele>1720</ele>
        <time>2020-09-16T16:34:25+02:00</time>
      </trkpt>
      <trkpt lat="44.3567" lon="6.68722">
        <ele>1717</ele>
        <time>2020-09-16T16:34:39+02:00</time>
      </trkpt>
      <trkpt lat="44.3568" lon="6.6871">
        <ele>1715</ele>
        <time>2020-09-16T16:34:52+02:00</time>
      </trkpt>
      <trkpt lat="44.357" lon="6.68696">
        <ele>1710</ele>
        <time>2020-09-16T16:35:13+02:00</time>
      </trkpt>
      <trkpt lat="44.35705" lon="6.68692">
        <ele>1709</ele>
        <time>2020-09-16T16:35:19+02:00</time>
      </trkpt>
      <trkpt lat="44.35723" lon="6.68673">
        <ele>1704</ele>
        <time>2020-09-16T16:35:41+02:00</time>
      </trkpt>
      <trkpt lat="44.35729" lon="6.68651">
        <ele>1702</ele>
        <time>2020-09-16T16:35:58+02:00</time>
      </trkpt>
      <trkpt lat="44.35734" lon="6.68637">
        <ele>1701</ele>
        <time>2020-09-16T16:36:07+02:00</time>
      </trkpt>
      <trkpt lat="44.35735" lon="6.68617">
        <ele>1701</ele>
        <time>2020-09-16T16:36:23+02:00</time>
      </trkpt>
      <trkpt lat="44.35739" lon="6.68618">
        <ele>1700</ele>
        <time>2020-09-16T16:36:42+02:00</time>
      </trkpt>
      <trkpt lat="44.35739" lon="6.68612">
        <ele>1700</ele>
        <time>2020-09-16T16:36:58+02:00</time>
      </trkpt>
      <trkpt lat="44.3574" lon="6.68595">
        <ele>1702</ele>
        <time>2020-09-16T16:37:13+02:00</time>
      </trkpt>
      <trkpt lat="44.35741" lon="6.68593">
        <ele>1702</ele>
        <time>2020-09-16T16:37:14+02:00</time>
      </trkpt>
      <trkpt lat="44.35756" lon="6.68593">
        <ele>1698</ele>
        <time>2020-09-16T16:37:31+02:00</time>
      </trkpt>
      <trkpt lat="44.35757" lon="6.68588">
        <ele>1699</ele>
        <time>2020-09-16T16:37:48+02:00</time>
      </trkpt>
      <trkpt lat="44.35759" lon="6.68582">
        <ele>1700</ele>
        <time>2020-09-16T16:37:52+02:00</time>
      </trkpt>
      <trkpt lat="44.3577" lon="6.6856">
        <ele>1702</ele>
        <time>2020-09-16T16:38:11+02:00</time>
      </trkpt>
      <trkpt lat="44.35771" lon="6.68557">
        <ele>1702</ele>
        <time>2020-09-16T16:38:13+02:00</time>
      </trkpt>
      <trkpt lat="44.35784" lon="6.6854">
        <ele>1704</ele>
        <time>2020-09-16T16:38:32+02:00</time>
      </trkpt>
      <trkpt lat="44.35783" lon="6.68538">
        <ele>1704</ele>
        <time>2020-09-16T16:38:48+02:00</time>
      </trkpt>
    </trkseg>
  </trk>
</gpx>